[[{"header":{"parameterUnit":"m.s-1","parameterCategory":1,"la1":30.6,"la2":28.766,"lo1":-90.7593,"lo2":-88.6598,"dy":0.0162,"dx":0.0183,"nx":116,"ny":114,"refTime":"2023-11-19T18:00:00:Z","depth":0,"parameterNumber":2,"parameterNumberName":"U-component_of_WINDS"},"data":[0.0,0.0,0.0,0.0,0.0,0.0,0.0,0.0,0.0,0.0,0.0,0.0,0.0,0.0,0.0,0.0,0.0,0.0,0.0,0.0,0.0,0.0,0.0,0.0,0.0,0.0,0.0,0.0,0.0,0.0,0.0,0.0,0.0,0.0,0.0,0.0,0.0,0.0,0.0,0.0,0.0,0.0,0.0,0.0,0.0,0.0,0.0,0.0,0.0,0.0,0.0,0.0,0.0,0.0,0.0,0.0,0.0,0.0,0.0,0.0,0.0,0.0,0.0,0.0,0.0,0.0,0.0,0.0,0.0,0.0,0.0,0.0,0.0,0.0,0.0,0.0,0.0,0.0,0.0,0.0,0.0,0.0,0.0,0.0,0.0,0.0,0.0,0.0,0.0,0.0,0.0,0.0,0.0,0.0,0.0,0.0,0.0,0.0,0.0,0.0,0.0,0.0,0.0,0.0,0.0,0.0,0.0,0.0,0.0,0.0,0.0,0.0,0.0,0.0,0.0,0.0,0.0,0.0,0.0,0.0,0.0,0.0,0.0,0.0,0.0,0.0,0.0,0.0,0.0,0.0,0.0,0.0,0.0,0.0,0.0,0.0,0.0,0.0,0.0,0.0,0.0,0.0,0.0,0.0,0.0,0.0,0.0,0.0,0.0,0.0,0.0,0.0,0.0,0.0,0.0,0.0,0.0,0.0,0.0,0.0,0.0,0.0,0.0,0.0,0.0,0.0,0.0,0.0,0.0,0.0,0.0,0.0,0.0,0.0,0.0,0.0,0.0,0.0,0.0,0.0,0.0,0.0,0.0,0.0,0.0,0.0,0.0,0.0,0.0,0.0,0.0,0.0,0.0,0.0,0.0,0.0,0.0,0.0,0.0,0.0,0.0,0.0,0.0,0.0,0.0,0.0,0.0,0.0,0.0,0.0,0.0,0.0,0.0,0.0,0.0,0.0,0.0,0.0,0.0,0.0,0.0,0.0,0.0,0.0,0.0,0.0,0.0,0.0,0.0,0.0,0.0,0.0,0.0,0.0,0.0,0.0,0.0,0.0,0.0,0.0,0.0,0.0,0.0,0.0,0.0,0.0,0.0,0.0,0.0,0.0,0.0,0.0,0.0,0.0,0.0,0.0,0.0,0.0,0.0,0.0,0.0,0.0,0.0,0.0,0.0,0.0,0.0,0.0,0.0,0.0,0.0,0.0,0.0,0.0,0.0,0.0,0.0,0.0,0.0,0.0,0.0,0.0,0.0,0.0,0.0,0.0,0.0,0.0,0.0,0.0,0.0,0.0,0.0,0.0,0.0,0.0,0.0,0.0,0.0,0.0,0.0,0.0,0.0,0.0,0.0,0.0,0.0,0.0,0.0,0.0,0.0,0.0,0.0,0.0,0.0,0.0,0.0,0.0,0.0,0.0,0.0,0.0,0.0,0.0,0.0,0.0,0.0,0.0,0.0,0.0,0.0,0.0,0.0,0.0,0.0,0.0,0.0,0.0,0.0,0.0,0.0,0.0,0.0,0.0,0.0,0.0,0.0,0.0,0.0,0.0,0.0,0.0,0.0,0.0,0.0,0.0,0.0,0.0,0.0,0.0,0.0,0.0,0.0,0.0,0.0,0.0,0.0,0.0,0.0,0.0,0.0,0.0,0.0,0.0,0.0,0.0,0.0,0.0,0.0,0.0,0.0,0.0,0.0,0.0,0.0,0.0,0.0,0.0,0.0,0.0,0.0,0.0,0.0,0.0,0.0,0.0,0.0,0.0,0.0,0.0,0.0,0.0,0.0,0.0,0.0,0.0,0.0,0.0,0.0,0.0,0.0,0.0,0.0,0.0,0.0,0.0,0.0,0.0,0.0,0.0,0.0,0.0,0.0,0.0,0.0,0.0,0.0,0.0,0.0,0.0,0.0,0.0,0.0,0.0,0.0,0.0,0.0,0.0,0.0,0.0,0.0,0.0,0.0,0.0,0.0,0.0,0.0,0.0,0.0,0.0,0.0,0.0,0.0,0.0,0.0,0.0,0.0,0.0,0.0,0.0,0.0,0.0,0.0,0.0,0.0,0.0,0.0,0.0,0.0,0.0,0.0,0.0,0.0,0.0,0.0,0.0,0.0,0.0,0.0,0.0,0.0,0.0,0.0,0.0,0.0,0.0,0.0,0.0,0.0,0.0,0.0,0.0,0.0,0.0,0.0,0.0,0.0,0.0,0.0,0.0,0.0,0.0,0.0,0.0,0.0,0.0,0.0,0.0,0.0,0.0,0.0,0.0,0.0,0.0,0.0,0.0,0.0,0.0,0.0,0.0,0.0,0.0,0.0,0.0,0.0,0.0,0.0,0.0,0.0,0.0,0.0,0.0,0.0,0.0,0.0,0.0,0.0,0.0,0.0,0.0,0.0,0.0,0.0,0.0,0.0,0.0,0.0,0.0,0.0,0.0,0.0,0.0,0.0,0.0,0.0,0.0,0.0,0.0,0.0,0.0,0.0,0.0,0.0,0.0,0.0,0.0,0.0,0.0,0.0,0.0,0.0,0.0,0.0,0.0,0.0,0.0,0.0,0.0,0.0,0.0,0.0,0.0,0.0,0.0,0.0,0.0,0.0,0.0,0.0,0.0,0.0,0.0,0.0,0.0,0.0,0.0,0.0,0.0,0.0,0.0,0.0,0.0,0.0,0.0,0.0,0.0,0.0,0.0,0.0,0.0,0.0,0.0,0.0,0.0,0.0,0.0,0.0,0.0,0.0,0.0,0.0,0.0,0.0,0.0,0.0,0.0,0.0,0.0,0.0,0.0,0.0,0.0,0.0,0.0,0.0,0.0,0.0,0.0,0.0,0.0,0.0,0.0,0.0,0.0,0.0,0.0,0.0,0.0,0.0,0.0,0.0,0.0,0.0,0.0,0.0,0.0,0.0,0.0,0.0,0.0,0.0,0.0,0.0,0.0,0.0,0.0,0.0,0.0,0.0,0.0,0.0,0.0,0.0,0.0,0.0,0.0,0.0,0.0,0.0,0.0,0.0,0.0,0.0,0.0,0.0,0.0,0.0,0.0,0.0,0.0,0.0,0.0,0.0,0.0,0.0,0.0,0.0,0.0,0.0,0.0,0.0,0.0,0.0,0.0,0.0,0.0,0.0,0.0,0.0,0.0,0.0,0.0,0.0,0.0,0.0,0.0,0.0,0.0,0.0,0.0,0.0,0.0,0.0,0.0,0.0,0.0,0.0,0.0,0.0,0.0,0.0,0.0,0.0,0.0,0.0,0.0,0.0,0.0,0.0,0.0,0.0,0.0,0.0,0.0,0.0,0.0,0.0,0.0,0.0,0.0,0.0,0.0,0.0,0.0,0.0,0.0,0.0,0.0,0.0,0.0,0.0,0.0,0.0,0.0,0.0,0.0,0.0,0.0,0.0,0.0,0.0,0.0,0.0,0.0,0.0,0.0,0.0,0.0,0.0,0.0,0.0,0.0,0.0,0.0,0.0,0.0,0.0,0.0,0.0,0.0,0.0,0.0,0.0,0.0,0.0,0.0,0.0,0.0,0.0,0.0,0.0,0.0,0.0,0.0,0.0,0.0,0.0,0.0,0.0,0.0,0.0,0.0,0.0,0.0,0.0,0.0,0.0,0.0,0.0,0.0,0.0,0.0,0.0,0.0,0.0,0.0,0.0,0.0,0.0,0.0,0.0,0.0,0.0,0.0,0.0,0.0,0.0,0.0,0.0,0.0,0.0,0.0,0.0,0.0,0.0,0.0,0.0,0.0,0.0,0.0,0.0,0.0,0.0,0.0,0.0,0.0,0.0,0.0,0.0,0.0,0.0,0.0,0.0,0.0,0.0,0.0,0.0,0.0,0.0,0.0,0.0,0.0,0.0,0.0,0.0,0.0,0.0,0.0,0.0,0.0,0.0,0.0,0.0,0.0,0.0,0.0,0.0,0.0,0.0,0.0,0.0,0.0,0.0,0.0,0.0,0.0,0.0,0.0,0.0,0.0,0.0,0.0,0.0,0.0,0.0,0.0,0.0,0.0,0.0,0.0,0.0,0.0,0.0,0.0,0.0,0.0,0.0,0.0,0.0,0.0,0.0,0.0,0.0,0.0,0.0,0.0,0.0,0.0,0.0,0.0,0.0,0.0,0.0,0.0,0.0,0.0,0.0,0.0,0.0,0.0,0.0,0.0,0.0,0.0,0.0,0.0,0.0,0.0,0.0,0.0,0.0,0.0,0.0,0.0,0.0,0.0,0.0,0.0,0.0,0.0,0.0,0.0,0.0,0.0,0.0,0.0,0.0,0.0,0.0,0.0,0.0,0.0,0.0,0.0,0.0,0.0,0.0,0.0,0.0,0.0,0.0,0.0,0.0,0.0,0.0,0.0,0.0,0.0,0.0,0.0,0.0,0.0,0.0,0.0,0.0,0.0,0.0,0.0,0.0,0.0,0.0,0.0,0.0,0.0,0.0,0.0,0.0,0.0,0.0,0.0,0.0,0.0,0.0,0.0,0.0,0.0,0.0,0.0,0.0,0.0,0.0,0.0,0.0,0.0,0.0,0.0,0.0,0.0,0.0,0.0,0.0,0.0,0.0,0.0,0.0,0.0,0.0,0.0,0.0,0.0,0.0,0.0,0.0,0.0,0.0,0.0,0.0,0.0,0.0,0.0,0.0,0.0,0.0,0.0,0.0,0.0,0.0,0.0,0.0,0.0,0.0,0.0,0.0,0.0,0.0,0.0,0.0,0.0,0.0,0.0,0.0,0.0,0.0,0.0,0.0,0.0,0.0,0.0,0.0,0.0,0.0,0.0,0.0,0.0,0.0,0.0,0.0,0.0,0.0,0.0,0.0,0.0,0.0,0.0,0.0,0.0,0.0,0.0,0.0,0.0,0.0,0.0,0.0,0.0,0.0,0.0,0.0,0.0,0.0,0.0,0.0,0.0,0.0,0.0,0.0,0.0,0.0,0.0,0.0,0.0,0.0,0.0,0.0,0.0,0.0,0.0,0.0,0.0,0.0,0.0,0.0,0.0,0.0,0.0,0.0,0.0,0.0,0.0,0.0,0.0,0.0,0.0,0.0,0.0,0.0,0.0,0.0,0.0,0.0,0.0,0.0,0.0,0.0,0.0,0.0,0.0,0.0,0.0,0.0,0.0,0.0,0.0,0.0,0.0,0.0,0.0,0.0,0.0,0.0,0.0,0.0,0.0,0.0,0.0,0.0,0.0,0.0,0.0,0.0,0.0,0.0,0.0,0.0,0.0,0.0,0.0,0.0,0.0,0.0,0.0,0.0,0.0,0.0,0.0,0.0,0.0,0.0,0.0,0.0,0.0,0.0,0.0,0.0,0.0,0.0,0.0,0.0,0.0,0.0,0.0,0.0,0.0,0.0,0.0,0.0,0.0,0.0,0.0,0.0,0.0,0.0,0.0,0.0,0.0,0.0,0.0,0.0,0.0,0.0,0.0,0.0,0.0,0.0,0.0,0.0,0.0,0.0,0.0,0.0,0.0,0.0,0.0,0.0,0.0,0.0,0.0,0.0,0.0,0.0,0.0,0.0,0.0,0.0,0.0,0.0,0.0,0.0,0.0,0.0,0.0,0.0,0.0,0.0,0.0,0.0,0.0,0.0,0.0,0.0,0.0,0.0,0.0,0.0,0.0,0.0,0.0,0.0,0.0,0.0,0.0,0.0,0.0,0.0,0.0,0.0,0.0,0.0,0.0,0.0,0.0,0.0,0.0,0.0,0.0,0.0,0.0,0.0,0.0,0.0,0.0,0.0,0.0,0.0,0.0,0.0,0.0,0.0,0.0,0.0,0.0,0.0,0.0,0.0,0.0,0.0,0.0,0.0,0.0,0.0,0.0,0.0,0.0,0.0,0.0,0.0,0.0,0.0,0.0,0.0,0.0,0.0,0.0,0.0,0.0,0.0,0.0,0.0,0.0,0.0,0.0,0.0,0.0,0.0,0.0,0.0,0.0,0.0,0.0,0.0,0.0,0.0,0.0,0.0,0.0,0.0,0.0,0.0,0.0,0.0,0.0,0.0,0.0,0.0,0.0,0.0,0.0,0.0,0.0,0.0,0.0,0.0,0.0,0.0,0.0,0.0,0.0,0.0,0.0,0.0,0.0,-0.4577,-0.4257,0.0,0.0,0.0,0.0,0.0,0.0,0.0,0.0,0.0,0.0,0.0,0.0,0.0,0.0,0.0,0.0,0.0,0.0,0.0,0.0,0.0,0.0,0.0,0.0,0.0,0.0,0.0,0.0,0.0,0.0,0.0,0.0,0.0,0.0,0.0,0.0,0.0,0.0,-0.7946,-0.8732,-0.98,-0.8793,-0.7553,-0.6134,0.0,0.0,0.0,0.0,0.0,0.0,0.0,0.0,0.0,0.0,0.0,0.0,0.0,0.0,0.0,0.0,0.0,0.0,0.0,0.0,0.0,0.0,0.0,0.0,0.0,0.0,0.0,0.0,0.0,0.0,0.0,0.0,0.0,0.0,0.0,0.0,0.0,0.0,0.0,0.0,0.0,0.0,0.0,0.0,0.0,0.0,0.0,0.0,0.0,0.0,0.0,0.0,0.0,0.0,0.0,0.0,0.0,0.0,0.0,0.0,0.0,0.0,0.0,0.0,0.0,0.0,0.0,0.0,0.0,0.0,-0.7346,-0.6241,0.0,0.0,0.0,0.0,0.0,0.0,0.0,0.0,0.0,0.0,0.0,0.0,0.0,0.0,0.0,0.0,0.0,0.0,0.0,0.0,0.0,0.0,0.0,-0.7165,-0.7313,-0.7688,-0.7682,-0.768,0.0,0.0,0.0,0.0,0.0,0.0,0.0,-0.7822,-0.8447,-0.9124,-0.9803,-1.0673,-1.1759,-1.2157,-1.1104,-0.8784,-0.7541,0.0,0.0,0.0,0.0,0.0,0.0,0.0,0.0,0.0,0.0,0.0,0.0,0.0,0.0,0.0,0.0,0.0,0.0,0.0,0.0,0.0,0.0,0.0,0.0,0.0,0.0,0.0,0.0,0.0,0.0,0.0,0.0,0.0,0.0,0.0,0.0,0.0,0.0,0.0,0.0,0.0,0.0,0.0,0.0,0.0,0.0,0.0,0.0,0.0,0.0,0.0,0.0,0.0,0.0,0.0,0.0,0.0,0.0,0.0,0.0,0.0,0.0,0.0,-1.177,-1.2585,-1.3584,-1.3842,-1.3844,-1.3545,-1.092,-0.9089,-0.7959,-0.8176,0.0,0.0,0.0,0.0,0.0,0.0,0.0,0.0,0.0,0.0,0.0,0.0,0.0,0.0,0.0,0.0,0.0,0.0,0.0,0.0,0.0,-0.8241,-0.8317,-0.8604,-0.8419,-0.8387,-0.8614,0.0,0.0,0.0,0.0,0.0,-0.8894,-0.9972,-1.0508,-1.045,-1.3209,-1.5029,-1.5921,-1.6304,-1.5822,-1.4422,-1.0616,-0.8975,-0.8885,0.0,0.0,0.0,0.0,0.0,0.0,0.0,0.0,0.0,0.0,0.0,0.0,0.0,0.0,0.0,0.0,0.0,0.0,0.0,0.0,0.0,0.0,0.0,0.0,0.0,0.0,0.0,0.0,0.0,0.0,0.0,0.0,0.0,0.0,0.0,0.0,0.0,0.0,0.0,0.0,0.0,-0.4509,-0.4007,0.0,0.0,0.0,0.0,0.0,0.0,0.0,0.0,0.0,0.0,0.0,0.0,0.0,-1.2079,-1.1797,-1.3191,-1.3752,-1.345,-1.4012,-1.4314,-1.4378,-1.5565,-1.6071,-1.6088,-1.6686,0.0,-1.0797,-1.0352,0.0,0.0,0.0,0.0,0.0,0.0,0.0,0.0,0.0,0.0,0.0,0.0,0.0,0.0,0.0,0.0,0.0,0.0,0.0,0.0,0.0,-1.006,-1.0658,-1.0649,-1.1892,-1.2007,-1.0429,-1.0848,-1.0548,-0.9178,-0.9798,-1.0118,-0.999,-1.1818,-1.325,-1.4133,-1.6543,-1.7647,-1.7547,-1.7843,-1.7644,-1.7009,-1.4802,-1.2816,-1.1033,-0.9071,0.0,0.0,0.0,0.0,0.0,0.0,0.0,0.0,0.0,0.0,0.0,0.0,0.0,0.0,0.0,0.0,0.0,0.0,0.0,0.0,0.0,0.0,0.0,0.0,0.0,0.0,0.0,0.0,0.0,0.0,0.0,0.0,0.0,0.0,0.0,0.0,0.0,0.0,0.0,-0.5652,-0.5825,-0.5559,-0.5932,-0.6147,0.0,0.0,0.0,0.0,0.0,0.0,0.0,0.0,0.0,-1.1442,-1.3339,-1.4387,-1.4472,-1.5731,-1.659,-1.6988,-1.747,-1.7864,-1.8237,-1.8809,-1.9208,-1.944,-1.9869,-1.867,-1.6307,-1.4984,-1.4412,-1.4249,0.0,0.0,0.0,0.0,-1.2908,-1.3626,0.0,0.0,0.0,0.0,0.0,0.0,0.0,0.0,0.0,0.0,0.0,0.0,-1.0495,-1.2155,-1.325,-1.3298,-1.51,-1.5108,-1.2473,-1.2669,-1.1972,-0.9936,-1.0573,-1.1074,-1.1266,-1.3932,-1.6289,-1.826,-2.0053,-2.0575,-1.9952,-2.006,-1.9878,-1.9469,-1.8768,-1.6628,-1.3513,-1.159,-1.0075,-0.883,0.0,0.0,0.0,0.0,0.0,0.0,0.0,0.0,0.0,0.0,0.0,0.0,0.0,0.0,0.0,0.0,0.0,0.0,0.0,0.0,0.0,0.0,0.0,0.0,0.0,0.0,0.0,0.0,0.0,0.0,0.0,0.0,0.0,0.0,0.0,0.0,0.0,-0.6627,-0.6903,-0.6765,-0.7349,-0.7699,0.0,0.0,0.0,0.0,0.0,0.0,-1.1467,-1.3223,-1.4255,-1.4324,-1.5923,-1.6885,-1.7131,-1.8099,-1.8999,-1.9848,-2.0175,-2.0665,-2.1334,-2.1686,-2.2043,-2.2395,-2.2577,-2.2332,-2.1629,-1.9121,-1.778,-1.723,-1.6276,-1.6198,-1.6563,-1.5972,-1.653,-1.7507,0.0,0.0,0.0,0.0,0.0,0.0,0.0,0.0,0.0,0.0,0.0,-1.1135,-1.267,-1.4389,-1.5749,-1.6506,-1.6738,-1.6159,-1.4546,-1.277,-1.1724,-1.1579,-1.1221,-1.1651,-1.3048,-1.6555,-1.9648,-2.2198,-2.3963,-2.4755,-2.464,-2.4535,-2.3978,-2.3019,-2.1959,-1.9812,-1.6804,-1.4233,-1.2766,-1.195,-0.945,0.0,0.0,0.0,0.0,0.0,0.0,0.0,0.0,0.0,0.0,0.0,0.0,0.0,0.0,0.0,0.0,0.0,0.0,0.0,0.0,0.0,0.0,0.0,0.0,0.0,0.0,0.0,0.0,0.0,0.0,0.0,0.0,0.0,0.0,0.0,0.0,0.0,0.0,-0.6948,-0.8758,0.0,0.0,0.0,0.0,-1.161,-1.2867,-1.3696,-1.3899,-1.6051,-1.7406,-1.7663,-1.9357,-2.0249,-2.0263,-2.0757,-2.1047,-2.1104,-2.1125,-2.1449,-2.201,-2.3324,-2.4026,-2.4243,-2.5523,-2.6013,-2.5669,-2.1355,-1.9671,-1.9736,-1.8908,-1.9503,-2.0711,-2.0033,-1.9939,-2.0042,0.0,0.0,0.0,0.0,0.0,0.0,0.0,0.0,-1.0337,-1.0582,-1.2031,-1.3575,-1.5027,-1.7282,-1.8995,-1.9837,-2.0393,-1.9625,-1.7082,-1.5694,-1.4573,-1.3678,-1.3138,-1.4715,-1.8639,-2.0764,-2.3046,-2.553,-2.6477,-2.6819,-2.652,-2.6172,-2.5513,-2.4503,-2.3799,-2.2376,-2.0289,-1.7559,-1.5385,-1.3542,-1.1015,-0.8993,0.0,0.0,0.0,0.0,0.0,0.0,0.0,0.0,0.0,0.0,0.0,0.0,0.0,0.0,0.0,0.0,0.0,0.0,0.0,0.0,0.0,0.0,0.0,0.0,0.0,0.0,0.0,0.0,0.0,0.0,0.0,0.0,0.0,0.0,0.0,0.0,0.0,-1.1495,-1.2649,0.0,-1.3028,-1.3327,-1.3794,-1.4389,-1.5687,-1.6637,-1.7037,-1.8566,-1.9643,-2.0139,-2.1001,-2.1791,-2.2411,-2.2888,-2.3257,-2.3517,-2.3869,-2.4144,-2.4362,-2.5693,-2.6365,-2.6624,-2.763,-2.8131,-2.8127,-2.6516,-2.4859,-2.328,-2.3194,-2.3244,-2.3443,-2.413,-2.4576,-2.477,0.0,0.0,0.0,0.0,0.0,0.0,0.0,0.0,-1.0973,-1.1838,-1.3432,-1.5307,-1.7499,-2.0067,-2.1825,-2.23,-2.3022,-2.1998,-1.8627,-1.747,-1.6299,-1.4868,-1.5584,-1.7829,-2.1693,-2.3831,-2.5822,-2.7644,-2.8537,-2.8694,-2.8065,-2.7723,-2.6905,-2.5736,-2.5235,-2.4217,-2.2695,-2.0774,-1.8371,-1.571,-1.3441,-1.1423,-0.9599,0.0,0.0,0.0,0.0,0.0,0.0,0.0,0.0,0.0,0.0,0.0,0.0,0.0,0.0,0.0,0.0,0.0,0.0,0.0,0.0,0.0,0.0,0.0,0.0,0.0,0.0,0.0,0.0,0.0,0.0,0.0,0.0,0.0,0.0,-1.2248,-1.3694,-1.4403,-1.5462,-1.5992,-1.5679,-1.6025,-1.6378,-1.6625,-1.7979,-1.8913,-1.9177,-2.0622,-2.166,-2.208,-2.2661,-2.3243,-2.3913,-2.424,-2.4639,-2.506,-2.5438,-2.5858,-2.6394,-2.7397,-2.815,-2.8604,-2.9329,-2.9745,-2.996,-2.9998,-2.8973,-2.7296,-2.696,-2.6667,-2.6514,-2.7419,-2.7947,-2.8172,0.0,0.0,0.0,0.0,0.0,0.0,0.0,-1.0739,-1.1637,-1.3381,-1.4225,-1.6167,-2.0044,-2.26,-2.3961,-2.3915,-2.4335,-2.3019,-1.9206,-1.7862,-1.6578,-1.5199,-1.8444,-2.0794,-2.1852,-2.5616,-2.7912,-2.8607,-3.0146,-3.0446,-2.9479,-2.9335,-2.8426,-2.6849,-2.6302,-2.5266,-2.394,-2.368,-2.1751,-1.8737,-1.6746,-1.4777,-1.2699,0.0,0.0,0.0,0.0,0.0,0.0,0.0,0.0,0.0,0.0,0.0,0.0,0.0,0.0,0.0,0.0,0.0,0.0,0.0,0.0,0.0,0.0,0.0,0.0,0.0,0.0,0.0,0.0,0.0,0.0,0.0,0.0,0.0,-1.237,-1.3477,-1.4622,-1.5396,-1.6974,-1.7725,-1.6965,-1.8391,-1.9065,-1.8349,-1.9736,-2.0525,-2.0354,-2.2253,-2.3438,-2.3585,-2.4358,-2.4849,-2.4908,-2.4897,-2.5144,-2.5737,-2.5712,-2.6467,-2.7889,-2.8438,-2.9249,-3.0194,-3.0758,-3.1106,-3.1288,-3.149,-3.1667,-3.1605,-3.0014,-2.9621,-2.9912,-2.9752,-2.9787,-2.9956,0.0,0.0,0.0,0.0,0.0,0.0,0.0,-1.0804,-1.1719,-1.3501,-1.535,-1.7879,-2.1533,-2.3361,-2.4844,-2.6166,-2.4331,-2.2816,-2.2099,-1.9083,-1.7604,-1.8174,-2.0561,-2.3121,-2.5841,-2.7809,-2.9455,-3.0838,-3.1271,-3.1356,-3.1068,-3.0847,-2.9863,-2.8301,-2.7821,-2.6734,-2.5265,-2.4665,-2.3952,-2.2781,-1.9134,-1.6779,-1.5235,0.0,0.0,0.0,0.0,0.0,0.0,0.0,0.0,0.0,0.0,0.0,0.0,0.0,0.0,0.0,0.0,0.0,0.0,0.0,0.0,0.0,0.0,0.0,0.0,0.0,0.0,0.0,0.0,0.0,0.0,0.0,-1.4219,-1.5215,-1.472,-1.6509,-1.8282,-1.9366,-1.991,-2.0501,-2.1284,-2.1262,-2.1514,-2.2251,-2.2754,-2.3137,-2.338,-2.4033,-2.4641,-2.5137,-2.5062,-2.5732,-2.7174,-2.6791,-2.7174,-2.8275,-2.8088,-2.8499,-2.9484,-3.0164,-3.0929,-3.1807,-3.2692,-3.3108,-3.3164,-3.333,-3.3411,-3.3283,-3.1822,-3.1068,-3.0843,-3.1312,-3.1316,-3.1052,0.0,0.0,0.0,0.0,0.0,0.0,0.0,-1.0945,-1.2163,-1.4528,-1.6236,-1.8551,-2.2107,-2.3687,-2.4716,-2.5174,-2.3516,-2.213,-2.1286,-1.9111,-1.8512,-2.0005,-2.2624,-2.5043,-2.7163,-2.9243,-3.0735,-3.1705,-3.1705,-3.1705,-3.1705,-3.1104,-3.0216,-2.9031,-2.8411,-2.7332,-2.5933,-2.5609,-2.5282,-2.4831,-2.2103,-2.0228,-1.8795,-1.6614,-1.493,-1.3426,-1.1668,-1.0197,-0.8842,-0.711,0.0,0.0,0.0,0.0,0.0,0.0,0.0,0.0,0.0,0.0,0.0,0.0,0.0,0.0,0.0,0.0,0.0,0.0,0.0,0.0,0.0,0.0,0.0,0.0,-1.6166,-1.7315,-1.762,-1.8876,-2.0315,-2.1791,-2.2073,-2.2591,-2.3574,-2.3499,-2.3552,-2.4002,-2.4465,-2.477,-2.4926,-2.5344,-2.5787,-2.6232,-2.6324,-2.6917,-2.8083,-2.8127,-2.8621,-2.9607,-2.9488,-2.9943,-3.096,-3.1462,-3.2146,-3.2938,-3.3591,-3.3917,-3.3985,-3.4074,-3.4162,-3.4124,0.0,0.0,0.0,0.0,-3.2228,-3.1495,0.0,0.0,0.0,0.0,0.0,0.0,0.0,-1.0935,-1.2567,-1.5746,-1.6693,-1.8375,-2.1812,-2.3433,-2.3746,-2.2556,-2.2211,-2.1033,-1.8662,-1.869,-1.958,-2.1232,-2.4487,-2.6517,-2.708,-3.0141,-3.1705,-3.1705,-3.1705,-3.1741,-3.1757,-3.0771,-2.9996,-2.9406,-2.8551,-2.7519,-2.6385,-2.6411,-2.6101,-2.5525,-2.513,-2.413,-2.2588,-2.0081,-1.9006,-1.8332,-1.4902,-1.3306,-1.2458,-0.9968,0.0,0.0,0.0,0.0,0.0,0.0,0.0,0.0,0.0,0.0,0.0,0.0,0.0,0.0,0.0,0.0,0.0,0.0,0.0,0.0,0.0,0.0,0.0,0.0,-1.7852,-1.9216,-2.0451,-2.0659,-2.1224,-2.2814,-2.3388,-2.391,-2.4516,-2.5141,-2.5252,-2.4676,-2.5415,-2.5792,-2.565,-2.6279,0.0,0.0,0.0,-2.8255,-2.8564,-2.9207,-2.9847,-3.0464,-3.0392,-3.1019,-3.2268,-3.2376,-3.2868,-3.3675,-3.3848,-3.4005,-3.4128,-3.4128,-3.423,-3.438,-3.4124,-3.4086,-3.4124,-3.3518,-3.2588,-3.1613,0.0,0.0,0.0,0.0,0.0,0.0,0.0,-1.0059,-1.1525,-1.4878,-1.5766,-1.7174,-2.0108,-2.1253,-2.1914,-2.2024,-2.0712,-1.969,-1.9157,-2.0205,-2.1597,-2.3257,-2.5486,-2.737,-2.8839,-3.0738,-3.1705,-3.1705,-3.1705,-3.1934,-3.2334,-3.1182,-3.0611,-3.0443,-2.9164,-2.8187,-2.753,-2.6708,-2.6533,-2.6612,-2.6,-2.5039,-2.3795,-2.2912,-2.1479,-1.9859,-1.8894,-1.7497,-1.5845,-1.3602,-1.2435,-1.1489,-0.9066,-0.7184,0.0,0.0,0.0,0.0,0.0,0.0,0.0,0.0,0.0,0.0,0.0,0.0,0.0,0.0,0.0,0.0,0.0,0.0,0.0,-1.8513,-1.9765,-2.0799,-2.1376,-2.1458,-2.1721,-2.2371,-2.291,-2.3759,-2.5093,-2.5722,-2.6376,-2.7111,-2.7107,-2.7062,-2.7034,-2.6885,-2.7368,-2.8487,-2.8261,-2.9134,-3.1324,-3.1047,-3.1518,-3.2693,-3.2032,0.0,-3.3297,-3.2846,-3.3129,-3.4025,-3.421,-3.4312,-3.4346,-3.4346,-3.4346,-3.437,-3.3815,-3.3307,-3.2771,-3.2135,-3.2171,-3.2382,0.0,0.0,0.0,0.0,0.0,0.0,0.0,-0.9659,-1.093,-1.3191,-1.426,-1.563,-1.7773,-1.8708,-1.9234,-1.9307,-1.8705,-1.8743,-1.9626,-2.0913,-2.245,-2.4252,-2.5847,-2.7196,-2.8263,-2.9736,-3.0377,-3.0215,-3.064,-3.0857,-3.0869,-3.0057,-2.9774,-2.9899,-2.8695,-2.8072,-2.7833,-2.7204,-2.691,-2.6971,-2.6515,-2.5966,-2.5326,-2.4913,-2.3945,-2.2624,-2.1016,-1.9956,-1.8981,-1.6402,-1.5189,-1.4322,-1.2174,-1.0292,-0.851,0.0,0.0,0.0,0.0,0.0,0.0,0.0,0.0,0.0,0.0,0.0,0.0,0.0,0.0,-1.5151,-1.6054,0.0,-1.8733,-1.9742,-2.0759,-2.1449,-2.1659,-2.1696,-2.193,-2.2608,-2.3364,-2.4313,-2.5658,-2.6538,-2.733,-2.799,-2.7981,-2.7956,-2.7956,-2.7783,-2.8212,-2.9289,-2.9426,-3.0344,-3.2074,-3.2244,-3.2778,-3.374,-3.3141,-3.3275,-3.4023,-3.3614,-3.3667,-3.4128,-3.4312,-3.4414,-3.4414,-3.4414,-3.4414,-3.4385,-3.4066,-3.3609,-3.3063,-3.2727,-3.2689,-3.2694,0.0,0.0,0.0,0.0,0.0,0.0,0.0,-0.9223,-1.0262,-1.1578,-1.2739,-1.3992,-1.5429,-1.6272,-1.6672,-1.6473,-1.7153,-1.8374,-2.007,-2.1436,-2.2975,-2.479,-2.6033,-2.6915,-2.7324,-2.856,-2.9125,-2.8964,-2.9567,-2.9758,-2.9574,-2.8932,-2.8848,-2.9219,-2.8234,-2.7863,-2.796,-2.7584,-2.726,-2.7043,-2.6745,-2.6591,-2.6536,-2.59,-2.5438,-2.4785,-2.2553,-2.1535,-2.0938,-1.8518,-1.7203,-1.6294,-1.4691,-1.3007,-1.1193,-0.8926,-0.8408,0.0,0.0,0.0,0.0,0.0,0.0,0.0,0.0,-1.0854,-1.2248,-1.4013,-1.5475,-1.6902,-1.829,-1.9301,-2.0099,-2.0717,-2.1504,-2.1989,-2.1833,-2.1806,-2.2082,-2.2765,-2.38,-2.4872,-2.5883,-2.7167,-2.8002,-2.8219,-2.8431,-2.851,-2.851,-2.851,-2.8922,-2.9884,-3.0557,-3.1378,-3.2304,-3.298,-3.3621,-3.4247,-3.3832,-3.4023,-3.4789,-3.4301,-3.42,-3.4335,-3.4404,-3.4414,-3.4414,-3.4414,-3.4414,-3.4414,-3.4448,-3.4313,-3.4109,-3.3944,-3.3615,-3.3277,0.0,0.0,0.0,0.0,0.0,0.0,0.0,0.0,-0.9051,-1.1014,-1.1772,-1.2549,-1.367,-1.4551,-1.5205,-1.5537,-1.7347,-1.9066,-2.0447,-2.2126,-2.3668,-2.5004,-2.6388,-2.7345,-2.7831,-2.8447,-2.9114,-2.9834,-2.9519,-2.9818,-3.0602,-2.9551,-2.9312,-2.9745,-2.8681,-2.8252,-2.8237,-2.7638,-2.7377,-2.7323,-2.68,-2.6591,-2.6427,-2.5019,-2.4241,-2.3948,-2.4277,-2.2585,-2.0188,-1.9662,-1.8589,-1.7205,-1.5747,-1.3995,-1.2197,-1.0707,-0.9094,-0.7637,-0.6801,-0.7225,-0.8082,-0.8839,-0.9474,-1.0458,0.0,-1.4108,-1.5537,-1.6512,-1.8425,-1.9998,-2.0186,-2.1156,-2.197,-2.2062,-2.2757,-2.3041,-2.2318,-2.2217,-2.2126,-2.1911,-2.342,-2.4691,-2.5179,-2.6846,-2.8042,-2.8431,-2.8471,-2.851,-2.851,-2.851,-2.9184,-3.0707,-3.0857,-3.1649,-3.3157,-3.3255,-3.3677,-3.4448,-3.3889,-3.4391,-3.5784,-3.464,-3.4499,-3.5227,-3.4661,-3.4414,-3.4414,-3.4414,-3.4414,-3.4414,-3.4597,-3.5073,-3.5572,-3.4842,-3.4724,-3.4827,0.0,0.0,0.0,0.0,0.0,0.0,0.0,0.0,0.0,-0.9236,-0.9856,-1.0478,-1.1155,-1.2258,-1.3377,-1.4489,-1.6364,-1.8247,-2.0068,-2.2102,-2.3848,-2.5391,-2.6001,-2.6542,-2.7002,-2.7496,-2.7774,-2.7908,-2.8441,-2.8799,-2.8973,-2.8771,-2.873,-2.8953,-2.8495,-2.8291,-2.8237,-2.7647,-2.7377,-2.7269,-2.6063,-2.5436,-2.51,-2.3395,-2.1797,-2.0476,-2.0786,-2.0215,0.0,-1.8081,-1.7399,-1.6896,-1.6143,-1.4661,-1.2885,-1.1433,-1.0396,-0.96,-0.9138,-0.9158,-0.9509,-1.043,-1.1109,-1.1926,-1.3341,-1.4713,-1.6151,-1.7798,-1.9474,-2.0864,-2.1752,-2.2492,-2.2913,-2.2684,-2.3123,-2.3206,-2.2391,-2.208,-2.1874,-2.1683,-2.2448,-2.3521,-2.4946,-2.6318,-2.747,-2.8431,-2.851,-2.851,-2.851,-2.851,-2.925,-3.0857,-3.0895,-3.1686,-3.3276,-3.3431,-3.3797,-3.4512,-3.4098,-3.4616,-3.5971,-3.5198,-3.5076,-3.5363,-3.469,-3.4414,-3.4414,-3.4515,-3.4563,-3.4631,-3.5184,-3.5688,-3.6024,-3.5718,-3.5873,-3.626,0.0,0.0,0.0,0.0,0.0,0.0,0.0,0.0,0.0,0.0,-0.8327,-0.8939,-0.9562,-1.0735,-1.2048,-1.3472,-1.5235,-1.721,-1.9387,-2.1484,-2.3447,-2.5245,-2.5488,-2.582,-2.6377,-2.6562,-2.6689,-2.6738,-2.7549,-2.791,-2.7851,-2.8144,-2.8291,-2.8291,-2.8291,-2.8237,-2.8121,-2.7638,-2.7152,-2.669,-2.5208,-2.4216,-2.335,-2.1406,-1.9352,-1.7632,-1.7902,-1.7635,-1.6923,-1.588,-1.5442,-1.5297,-1.517,-1.4202,-1.2894,-1.1636,-1.1026,-1.0737,-1.0614,-1.0666,-1.0962,-1.1808,-1.2589,-1.3374,-1.4166,-1.5318,-1.6793,-1.8894,-2.0212,-2.1445,-2.2815,-2.3297,-2.3398,-2.3114,-2.3215,-2.3123,-2.2538,-2.2007,-2.1641,-2.1503,-2.1425,-2.2305,-2.4492,-2.5689,-2.692,-2.8379,-2.851,-2.851,-2.851,-2.851,-2.925,-3.0857,-3.0895,-3.1686,-3.3361,-3.3691,-3.4193,-3.4911,-3.4737,-3.5309,-3.6577,-3.6149,-3.5828,-3.5639,-3.514,-3.4869,-3.4729,-3.4879,-3.4978,-3.51,-3.5737,-3.629,-3.6707,-3.6753,-3.6951,-3.7221,0.0,0.0,0.0,0.0,0.0,0.0,0.0,0.0,0.0,0.0,0.0,0.0,0.0,-1.0591,-1.1571,-1.2478,-1.4195,-1.6212,-1.85,-2.0274,-2.2194,-2.4365,-2.4863,-2.5498,-2.6367,-2.5986,-2.6387,-2.7679,-2.7236,-2.7471,-2.8271,-2.8281,-2.8291,-2.8291,-2.8291,-2.8184,-2.7906,-2.753,-2.6591,-2.5206,-2.4585,-2.328,-2.1414,-1.9109,-1.7461,-1.6485,-1.7447,-1.5764,-1.3155,-1.3694,-1.3103,-1.2162,-1.2351,-1.2201,-1.1857,-1.1357,-1.0601,-0.9975,-1.0242,-1.1055,-1.2008,-1.2667,-1.39,-1.5015,-1.5375,-1.6642,-1.8242,-1.9978,-2.1155,-2.2203,-2.3278,-2.348,-2.3489,-2.348,-2.3169,-2.2922,-2.2895,-2.2199,-2.1531,-2.1145,-2.0611,-2.1165,-2.3501,-2.5076,-2.6645,-2.8383,-2.851,-2.851,-2.851,-2.851,-2.925,-3.0857,-3.0895,-3.1759,-3.357,-3.4172,-3.4982,-3.5935,-3.5957,-3.6714,-3.813,-3.752,-3.6896,-3.6272,-3.6257,-3.6,-3.5575,-3.5575,-3.57,-3.5896,-3.6101,-3.6905,-3.7975,-3.8149,-3.7879,-3.7488,0.0,0.0,0.0,0.0,0.0,0.0,0.0,0.0,0.0,0.0,0.0,0.0,0.0,0.0,0.0,0.0,-1.3009,-1.4639,-1.6292,-1.889,-2.0937,-2.2204,-2.3535,-2.4492,-2.5068,-2.546,-2.5703,-2.5692,-2.6398,-2.6654,-2.6509,-2.6943,-2.7172,-2.7191,-2.7692,-2.7703,-2.7367,-2.6347,-2.5424,-2.4367,-2.1994,-2.0457,-1.9277,-1.6675,-1.5006,-1.387,0.0,-1.2414,-1.1605,-1.1407,-1.1233,-1.1077,-1.1155,-1.0975,-1.0615,-1.0029,-1.0367,-1.0956,-1.1281,-1.2181,-1.3313,-1.4542,-1.5372,-1.6056,-1.6733,-1.7295,-1.7963,-1.9121,-1.9277,-1.9619,-2.0737,-2.1266,-2.1577,-2.1842,-2.2465,-2.2904,-2.2904,-2.2862,-2.2746,-2.2443,-2.2271,-2.2773,-2.4462,-2.4703,-2.5645,-2.7828,-2.8318,-2.851,-2.851,-2.9,-2.9781,-3.0857,-3.1563,-3.264,-3.4186,-3.4668,-3.5274,-3.6014,-3.6606,-3.7113,-3.7607,-3.7404,-3.7186,-3.6954,-3.6611,-3.6698,-3.6952,-3.6718,-3.6941,-3.7437,-3.7557,-3.7835,-3.8327,-3.9313,-3.9565,-3.936,0.0,0.0,0.0,0.0,0.0,0.0,0.0,0.0,0.0,0.0,0.0,0.0,0.0,0.0,0.0,0.0,0.0,-1.286,-1.4146,-1.663,-1.8579,-1.964,-2.1159,-2.2148,-2.2578,-2.3091,-2.3183,-2.2905,-2.395,-2.4478,-2.4431,-2.5091,-2.5535,-2.5847,-2.6392,-2.6485,-2.6111,-2.5223,-2.4025,-2.2493,-1.9927,-1.805,-1.6423,-1.422,-1.2746,0.0,-1.0533,-1.014,-1.0154,-0.9773,-0.978,-0.9963,-0.9963,-0.9873,-0.9754,-0.9587,-1.0489,-1.1764,-1.2592,-1.3601,-1.4659,-1.5804,-1.6446,-1.6911,-1.7373,-1.7348,-1.7429,-1.8041,-1.7963,-1.8089,-1.9016,-1.9439,-1.9842,-2.0467,-2.0811,-2.1298,-2.2033,-2.2433,-2.2712,-2.2951,-2.3177,-2.3781,-2.5063,-2.4963,-2.5592,-2.7565,-2.8472,-2.8803,-2.851,-2.9561,-3.0405,-3.0994,-3.1915,-3.3145,-3.4697,-3.5174,-3.5863,-3.6801,-3.7345,-3.7622,-3.7622,-3.7622,-3.7791,-3.8112,-3.7792,-3.8032,-3.8576,-3.831,-3.8529,-3.8985,-3.8769,-3.8999,-3.9502,-4.0155,-4.0531,-4.0647,0.0,0.0,0.0,0.0,0.0,0.0,0.0,0.0,0.0,0.0,0.0,0.0,0.0,0.0,0.0,0.0,0.0,0.0,-1.2076,-1.3711,-1.5272,-1.6701,-1.7856,-1.8669,-1.9143,-1.9064,-1.9221,-1.9551,-2.0195,-2.1039,-2.2003,-2.2633,-2.3326,-2.4095,-2.4376,-2.4344,-2.3975,-2.3928,-2.2212,-1.9469,-1.8274,-1.6001,-1.3162,-1.1866,-1.0823,-1.001,-0.9424,-0.9024,-0.8811,-0.8824,-0.8858,-0.8891,-0.8825,-0.905,-0.9449,-1.0044,-1.1088,-1.2415,-1.4115,-1.5231,-1.6032,-1.6607,-1.7168,-1.7554,-1.7246,-1.6881,-1.6694,-1.6875,-1.7133,-1.7538,-1.8012,-1.8056,-1.834,-1.9372,-1.8601,-1.8601,-2.0689,-2.1241,-2.1797,-2.2892,-2.3509,-2.4266,-2.5374,-2.5843,-2.6546,-2.7717,-2.9029,-2.9417,-2.8702,-3.0126,-3.1121,-3.1294,-3.2087,-3.3338,-3.5142,-3.5769,-3.6815,-3.8202,-3.8202,-3.824,-3.8277,-3.8277,-3.8789,-3.9647,-3.9682,-3.9929,-4.0305,-4.029,-4.0418,-4.0521,-3.982,-4.034,-4.1399,-4.0823,-4.1006,-4.1443,0.0,0.0,0.0,0.0,0.0,0.0,0.0,0.0,0.0,0.0,0.0,0.0,0.0,0.0,0.0,0.0,0.0,0.0,-1.0019,-1.167,-1.2945,-1.3614,-1.5549,-1.6755,-1.7129,-1.7785,-1.7921,-1.7445,-1.793,-1.8065,-1.7847,-1.8807,-1.9364,-1.9611,-2.0453,-2.0485,-1.9793,-1.8961,-1.7697,-1.6093,-1.4455,-1.3188,-1.2177,-1.1176,-1.0508,-1.001,-0.9424,-0.9024,-0.8838,-0.9031,-0.9566,-1.0013,-0.9254,-1.002,-1.1262,-1.164,-1.2743,-1.4088,-1.519,-1.6139,-1.6951,-1.7268,-1.7475,-1.7448,-1.6934,-1.642,-1.5927,-1.5539,-1.482,-1.4442,-1.5105,-1.6069,-1.7138,-1.8284,-1.9461,-2.0904,-2.2902,-2.3735,-2.4499,-2.5515,-2.6594,-2.7066,-2.6593,-2.7668,-2.8638,-2.9207,-2.9966,-3.0455,-3.0627,-3.1796,-3.2553,-3.2762,-3.3246,-3.4242,-3.5755,-3.7011,-3.7846,-3.8202,-3.8202,-3.8472,-3.903,-3.916,-3.9682,-4.0435,-4.0675,-4.1152,-4.1725,-4.1323,-4.1478,-4.1964,-4.1683,-4.1772,-4.2153,-4.2943,-4.3356,-4.345,0.0,0.0,0.0,0.0,0.0,0.0,0.0,0.0,0.0,0.0,0.0,0.0,0.0,0.0,0.0,0.0,0.0,0.0,0.0,-0.9776,-1.0673,-1.0996,-1.2528,-1.3476,-1.3729,-1.4188,-1.4226,-1.3805,-1.4279,-1.4441,-1.4393,-1.5204,-1.5761,-1.6127,-1.7035,-1.7134,-1.6588,-1.6163,-1.514,0.0,0.0,-1.1344,-1.0562,-1.001,-0.9686,-0.9499,-0.9144,-0.9279,-0.959,-0.9549,-1.0086,-1.0691,-1.0274,-1.1128,-1.2412,-1.2942,-1.393,-1.5124,-1.6132,-1.6867,-1.7434,-1.7542,-1.7388,-1.7007,-1.6293,-1.5625,-1.4869,-1.3956,-1.3396,-1.3138,-1.3333,-1.44,-1.5588,-1.6692,-1.8101,-1.9955,-2.2433,-2.3701,-2.4954,-2.6517,-2.7981,-2.8619,-2.8029,-2.8979,-3.0004,-3.0783,-3.1502,-3.2049,-3.2382,-3.374,-3.4288,-3.3849,-3.4214,-3.4965,-3.6108,-3.7229,-3.7941,-3.8202,-3.8509,-3.8972,-3.9448,-3.9894,-4.0572,-4.1395,-4.1592,-4.2126,-4.2863,-4.2832,-4.3036,-4.3361,-4.3202,-4.3338,-4.3672,-4.4053,-4.4397,-4.4691,0.0,0.0,0.0,0.0,0.0,0.0,0.0,0.0,0.0,0.0,0.0,0.0,0.0,0.0,0.0,0.0,0.0,0.0,0.0,0.0,0.0,-0.8913,-0.9561,-0.9993,-1.0151,-1.0063,-1.0015,-1.0001,-1.0388,-1.0889,-1.1464,-1.1921,-1.2493,-1.32,-1.383,-1.3993,-1.3796,-1.4079,-1.325,-1.1697,-1.1022,-0.9997,-0.8892,0.0,0.0,-0.8717,-0.8738,-0.9434,-1.0292,-1.0252,-1.0757,-1.1433,-1.1632,-1.2396,-1.3373,-1.4141,-1.4956,-1.5812,-1.6958,-1.744,-1.7569,-1.7535,-1.7114,-1.6446,-1.5451,-1.4666,-1.3761,-1.2428,-1.2514,-1.274,-1.2371,-1.3234,-1.4355,-1.538,-1.6286,-1.7945,-2.1189,-2.278,-2.4469,-2.6775,-2.8374,-2.9268,-2.9208,-2.9797,-3.079,-3.2234,-3.3234,-3.3895,-3.4124,-3.5502,-3.5756,-3.4622,-3.5003,-3.5652,-3.6446,-3.7099,-3.7717,-3.8337,-3.8994,-3.952,-3.9929,-4.0572,-4.1461,-4.2443,-4.2553,-4.3003,-4.3759,-4.426,-4.4512,-4.4584,-4.4397,-4.4759,-4.5364,-4.4792,-4.4965,-4.5528,0.0,0.0,0.0,0.0,0.0,0.0,0.0,0.0,0.0,0.0,-0.5291,0.0,0.0,0.0,0.0,0.0,0.0,0.0,0.0,0.0,0.0,0.0,-0.8586,-0.9066,-0.9313,-0.9498,-0.9553,-0.9445,-0.9081,-0.8981,-0.9098,-0.9457,-0.9684,-0.9859,-1.0302,-1.0261,-0.9889,-0.9931,-0.9579,-0.8959,-0.8504,-0.8357,-0.8356,0.0,0.0,0.0,-0.8407,-0.861,-0.9058,-1.0943,-1.2457,-1.3452,-1.2924,-1.3897,-1.5345,-1.5797,-1.6197,-1.6627,-1.7321,-1.7542,-1.7522,-1.7333,-1.6961,-1.6286,-1.4683,-1.3757,-1.2865,-1.157,-1.1376,-1.1611,-1.2192,-1.3532,-1.5037,-1.655,-1.7775,-1.9822,-2.3404,-2.4145,-2.5297,-2.7912,-2.8846,-2.9124,-2.8691,-2.9917,-3.1371,-3.283,-3.4372,-3.5552,-3.6321,-3.584,-3.5392,-3.5025,-3.5697,-3.6425,-3.7128,-3.7738,-3.8406,-3.9103,-3.9247,-4.0034,-4.1444,-4.169,-4.2316,-4.3235,-4.3856,-4.4202,-4.4339,-4.4226,-4.4568,-4.5128,-4.4948,-4.5338,-4.6077,-4.6389,-4.6607,-4.6708,0.0,0.0,0.0,0.0,0.0,0.0,0.0,0.0,0.0,0.0,-0.5121,-0.5314,0.0,0.0,0.0,0.0,0.0,0.0,0.0,0.0,0.0,0.0,0.0,0.0,-0.8275,-0.8456,-0.8535,-0.8479,0.0,-0.7925,-0.7933,-0.7956,-0.7967,-0.7974,-0.8231,-0.8309,-0.8202,-0.7914,-0.7738,-0.758,-0.718,-0.7108,0.0,0.0,0.0,0.0,0.0,-0.8735,-0.9349,-1.0734,-1.2378,-1.3931,-1.452,-1.5575,-1.6573,-1.6867,-1.7168,-1.7462,-1.7749,-1.7822,-1.7749,-1.7501,-1.6693,-1.5611,-1.3925,-1.2978,-1.2081,-1.0798,-1.0884,-1.1368,-1.1885,-1.3296,-1.4734,-1.5772,-1.7181,-1.9508,-2.3506,-2.4037,-2.52,-2.8514,-2.9388,-2.9799,-3.0007,-3.1314,-3.2815,-3.4498,-3.5467,-3.6497,-3.765,-3.675,-3.6034,-3.5724,-3.5787,-3.6127,-3.678,-3.7776,-3.8631,-3.932,-4.0174,-4.1062,-4.1917,-4.2087,-4.281,-4.3972,-4.3957,-4.4279,-4.493,-4.5122,-4.5403,-4.574,-4.5517,-4.5923,-4.6584,-4.6425,-4.6373,-4.6427,0.0,0.0,0.0,0.0,0.0,0.0,0.0,-0.4901,-0.4821,-0.5291,-0.5106,-0.5009,-0.5208,-0.5192,-0.5407,0.0,0.0,0.0,0.0,0.0,0.0,0.0,0.0,0.0,0.0,0.0,0.0,-0.767,-0.7482,0.0,0.0,0.0,0.0,0.0,-0.6846,-0.7042,-0.7271,-0.6858,-0.6724,0.0,0.0,-0.6225,0.0,0.0,0.0,0.0,0.0,-0.874,-0.9437,-1.0241,-1.1583,-1.328,-1.4977,-1.61,-1.6777,-1.7005,-1.7328,-1.7642,-1.7769,-1.7896,-1.7889,-1.7502,-1.6386,-1.4961,-1.3243,-1.23,-1.1424,-1.0102,-1.0583,-1.1331,-1.1685,-1.2994,-1.4308,-1.5156,-1.6531,-1.888,-2.2995,-2.3657,-2.5081,-2.8787,-2.9644,-3.035,-3.1402,-3.2472,-3.3874,-3.5705,-3.6344,-3.7105,-3.8125,-3.7437,-3.6844,-3.6533,-3.604,-3.6175,-3.6944,-3.8204,-3.9234,-4.0016,-4.1539,-4.2412,-4.2719,-4.3056,-4.3668,-4.4468,-4.433,-4.461,-4.5286,-4.5874,-4.611,-4.6087,-4.5681,-4.5927,-4.6409,-4.5784,-4.5552,-4.5641,0.0,0.0,0.0,0.0,0.0,0.0,0.0,-0.5491,-0.5689,-0.5277,-0.5292,-0.518,-0.4728,-0.5083,-0.521,0.0,0.0,0.0,0.0,0.0,0.0,0.0,0.0,0.0,0.0,0.0,0.0,-0.7523,-0.7433,0.0,0.0,0.0,0.0,0.0,0.0,-0.6085,-0.6321,-0.6284,0.0,0.0,0.0,0.0,0.0,0.0,0.0,0.0,0.0,-0.7722,-0.8048,-0.9628,-1.0461,-1.1142,-1.2636,-1.4077,-1.5216,-1.5243,-1.5839,-1.6603,-1.7139,-1.7629,-1.7789,-1.6994,-1.6086,-1.4863,-1.2851,-1.188,-1.1027,-0.9567,-1.0169,-1.114,-1.1765,-1.2949,-1.4434,-1.6236,-1.7357,-1.9201,-2.2594,-2.3881,-2.5587,-2.8574,-2.9218,-2.9979,-3.1591,-3.2254,-3.3318,-3.513,-3.6795,-3.7586,-3.7158,-3.7213,-3.7237,-3.7215,-3.7157,-3.7733,-3.9017,-3.9835,-4.0939,-4.2304,-4.326,-4.415,-4.5014,-4.5774,-4.5483,-4.4502,-4.6204,-4.621,-4.5067,-4.562,-4.5842,-4.5753,-4.5013,-4.4745,-4.4799,-4.4728,-4.471,-4.471,0.0,0.0,0.0,0.0,0.0,0.0,0.0,-0.5789,-0.5754,-0.5746,-0.5826,-0.5529,-0.4635,-0.5065,-0.5283,0.0,0.0,0.0,0.0,0.0,0.0,0.0,0.0,0.0,0.0,0.0,-0.73,-0.6895,-0.6955,0.0,0.0,0.0,0.0,0.0,0.0,-0.5717,-0.6044,-0.5647,0.0,0.0,0.0,0.0,0.0,0.0,0.0,0.0,0.0,0.0,-0.8135,-0.8889,-0.9663,-1.0301,-1.0354,-1.1303,-1.2703,-1.4486,-1.5458,-1.6213,-1.7206,-1.7722,-1.7822,-1.7154,-1.5778,-1.4244,-1.2855,-1.1551,-1.0401,-0.9594,-1.0267,-1.1116,-1.143,-1.2849,-1.4389,-1.5591,-1.6873,-1.8818,-2.2121,-2.2918,-2.4713,-2.8925,-2.965,-3.0839,-3.3586,-3.4551,-3.554,-3.6916,-3.735,-3.7786,-3.8307,-3.802,-3.7886,-3.7967,-3.8301,-3.9009,-4.008,-4.1179,-4.2278,-4.3373,-4.4297,-4.5194,-4.601,-4.5993,-4.6294,-4.6862,-4.6702,-4.6998,-4.7571,-4.7339,-4.7252,-4.7181,-4.6463,-4.5877,-4.5448,-4.553,-4.5269,-4.5032,0.0,0.0,0.0,0.0,0.0,0.0,-0.5951,-0.5948,-0.5855,-0.5866,-0.5999,-0.5654,-0.4561,-0.4865,-0.5075,-0.4937,0.0,0.0,0.0,0.0,0.0,0.0,0.0,0.0,0.0,0.0,-0.6831,-0.6358,-0.6483,-0.6205,0.0,0.0,-0.5464,-0.5334,0.0,0.0,0.0,0.0,0.0,0.0,0.0,0.0,0.0,0.0,0.0,0.0,0.0,0.0,0.0,0.0,0.0,-0.9492,-0.8871,-0.9333,-1.0553,-1.2991,-1.4382,-1.5424,-1.6513,-1.7288,-1.7635,-1.7092,-1.5457,-1.3763,-1.275,-1.1298,-1.0038,-0.9621,-1.037,-1.115,-1.1379,-1.2884,-1.4454,-1.5497,-1.7036,-1.9038,-2.1729,-2.2754,-2.4536,-2.8145,-2.9336,-3.1037,-3.409,-3.6045,-3.7395,-3.8081,-3.7887,-3.8283,-3.9399,-3.9065,-3.8966,-3.9266,-3.9721,-4.0446,-4.1495,-4.2701,-4.3729,-4.4563,-4.5718,-4.6566,-4.7117,-4.7118,-4.763,-4.8441,-4.7756,-4.8043,-4.8942,-4.8413,-4.8056,-4.777,-4.7098,-4.6568,-4.6179,-4.6341,-4.625,-4.6279,0.0,0.0,0.0,0.0,0.0,0.0,0.0,-0.593,-0.6135,-0.5403,-0.5587,-0.5433,-0.4405,-0.4435,-0.4453,-0.4317,0.0,0.0,0.0,0.0,0.0,0.0,0.0,0.0,0.0,0.0,-0.6012,-0.6012,-0.613,-0.5836,-0.5096,-0.5096,-0.4888,-0.4504,0.0,0.0,0.0,0.0,0.0,0.0,0.0,0.0,-0.4578,0.0,0.0,0.0,0.0,0.0,0.0,0.0,0.0,0.0,0.0,-0.8584,-0.9058,-1.0291,-1.2058,-1.382,-1.475,-1.61,-1.7072,-1.6482,-1.504,-1.3526,-1.2356,-1.117,-1.0144,-0.9515,-1.0318,-1.126,-1.1799,-1.3109,-1.4685,-1.649,-1.8479,-2.0209,-2.1442,-2.3874,-2.5594,-2.5742,-2.7808,-3.006,-3.2213,-3.5993,-3.8168,-3.7911,-3.8505,-3.9222,-4.0062,-4.0211,-4.0621,-4.1355,-4.1427,-4.2179,-4.3664,-4.4554,-4.5369,-4.6092,-4.7778,-4.857,-4.8649,-5.0079,-4.9898,-4.8486,-4.9856,-4.9603,-4.8216,-4.8199,-4.7734,-4.6949,-4.6275,-4.6263,-4.662,-4.6736,-4.7536,-4.8494,0.0,0.0,0.0,0.0,0.0,0.0,0.0,-0.5723,-0.5728,-0.5157,-0.5476,-0.5311,-0.4213,-0.4326,-0.437,-0.4062,0.0,0.0,0.0,0.0,0.0,0.0,0.0,0.0,0.0,0.0,-0.5789,-0.5651,-0.5614,-0.5402,-0.5033,-0.4802,-0.4631,-0.4504,-0.4504,-0.4543,0.0,0.0,0.0,0.0,0.0,-0.47,-0.4722,0.0,0.0,0.0,0.0,0.0,0.0,0.0,0.0,0.0,0.0,0.0,0.0,-0.9363,-1.0739,-1.2281,-1.3246,-1.4088,-1.4609,-1.4147,-1.3187,-1.2209,-1.1622,-1.0662,-0.9811,-0.9578,-1.032,-1.1099,-1.1353,-1.2706,-1.4314,-1.6055,-1.7777,-1.9552,-2.1403,-2.3906,-2.6386,-2.8725,-3.2525,-3.5311,-3.6279,-3.7902,-3.8913,-3.8848,-3.9483,-4.0189,-4.0942,-4.1086,-4.1697,-4.2934,-4.2954,-4.3712,-4.5317,-4.5611,-4.6253,-4.7193,-4.8172,-4.8897,-4.9453,-5.0384,-5.0753,-5.0637,-5.0546,-5.053,-5.0548,-4.9995,-4.9299,-4.865,-4.9436,-4.887,-4.7763,-4.9288,-4.9767,-4.9764,0.0,0.0,0.0,0.0,0.0,0.0,0.0,-0.5388,-0.531,-0.4964,-0.5184,-0.5058,-0.4268,-0.4372,-0.4347,-0.3965,0.0,0.0,0.0,0.0,0.0,0.0,0.0,0.0,0.0,-0.527,-0.5266,-0.5201,-0.5084,-0.4981,-0.4874,-0.4626,-0.4478,-0.4434,-0.4434,-0.4478,0.0,0.0,0.0,0.0,-0.4823,-0.4777,-0.4768,0.0,0.0,0.0,0.0,0.0,0.0,0.0,0.0,0.0,0.0,0.0,0.0,0.0,-0.9711,-1.0815,-1.1881,-1.2712,-1.317,-1.2882,-1.2127,-1.1362,-1.0996,-1.0257,-0.9623,-0.9781,-1.0499,-1.1158,-1.1485,-1.3086,-1.4679,-1.5661,-1.788,-1.9914,-2.1234,-2.4109,-2.7391,-3.0776,-3.4142,-3.6771,-3.8172,-3.9272,-3.9994,-4.0121,-4.0746,-4.1346,-4.1829,-4.1637,-4.2433,-4.4423,-4.4213,-4.4727,-4.6092,-4.6435,-4.7111,-4.8048,-4.8728,-4.947,-5.0209,-5.0839,-5.1323,-5.1672,-5.1173,-5.1244,0.0,-5.0834,-5.0234,-4.9907,-5.0725,-5.0456,-4.98,-5.1396,-5.1937,-5.2019,0.0,0.0,0.0,0.0,0.0,0.0,0.0,0.0,0.0,0.0,-0.4691,-0.46,-0.4396,-0.4374,-0.4235,0.0,0.0,0.0,0.0,0.0,0.0,0.0,0.0,0.0,0.0,-0.4425,-0.4558,-0.4724,-0.4652,-0.466,-0.4741,-0.461,-0.4463,-0.4336,-0.4336,-0.4438,0.0,0.0,0.0,0.0,-0.4871,-0.4777,0.0,0.0,0.0,0.0,0.0,0.0,0.0,0.0,0.0,0.0,0.0,0.0,0.0,0.0,0.0,0.0,0.0,-1.1737,-1.2416,-1.2267,-1.1579,-1.0832,-1.0527,-0.9959,0.0,-1.0174,-1.0787,-1.1435,-1.2029,-1.4035,-1.5569,-1.549,-1.8642,-2.1119,-2.1143,-2.486,-2.8764,-3.2019,-3.3492,-3.5346,-3.8133,-4.0068,-4.1264,-4.1564,-4.2155,-4.2567,-4.2683,-4.1987,-4.2777,-4.5435,-4.5015,-4.5194,-4.6206,-4.6978,-4.7802,-4.8635,-4.9401,-5.0129,-5.0803,-5.1418,-5.1672,-5.1619,-5.1672,-5.1637,-5.1501,-5.0852,-5.061,-5.0623,-5.0515,-5.1228,-5.2382,-5.2978,-5.3921,-5.4856,0.0,0.0,0.0,0.0,0.0,0.0,0.0,0.0,0.0,0.0,-0.3654,-0.3503,-0.3082,-0.3049,-0.2932,0.0,0.0,0.0,0.0,0.0,0.0,0.0,0.0,0.0,0.0,-0.425,-0.4534,-0.4927,-0.4762,-0.4859,-0.5227,-0.4994,-0.4779,-0.4613,-0.4613,-0.4668,-0.4757,0.0,0.0,0.0,-0.4963,-0.4935,0.0,0.0,0.0,0.0,-0.4803,-0.5003,0.0,0.0,0.0,0.0,0.0,0.0,0.0,0.0,-0.8847,-0.8811,-0.9191,0.0,-1.0112,-0.9813,-0.9939,-1.0155,0.0,-1.0271,-1.0484,-1.0904,-1.1334,-1.1847,-1.2436,-1.4237,-1.5762,-1.624,-1.9016,-2.1708,-2.3417,-2.8474,-3.2367,-3.3403,-3.5919,-3.7564,-3.7501,-3.9809,-4.1597,-4.2297,-4.2438,-4.2792,-4.3411,-4.2735,-4.2459,-4.2725,-4.3683,-4.5147,-4.7158,-4.6677,-4.723,-4.8852,-4.9377,-5.0054,-5.0803,-5.1418,-5.1351,-5.0816,-5.1422,-5.1062,-5.0098,-5.116,-5.0928,-5.0093,-5.1661,-5.23,-5.2438,-5.3598,-5.4396,-5.4886,0.0,0.0,0.0,0.0,0.0,0.0,0.0,0.0,0.0,0.0,0.0,0.0,0.0,0.0,0.0,0.0,0.0,0.0,0.0,0.0,0.0,0.0,0.0,0.0,-0.3757,-0.4118,-0.4509,-0.4904,-0.4652,-0.4773,-0.5244,-0.4871,-0.465,-0.4606,-0.4633,-0.4674,-0.4709,-0.4849,-0.4941,-0.5011,-0.5011,0.0,0.0,0.0,0.0,0.0,-0.4879,-0.5047,0.0,-0.6321,-0.6895,-0.737,0.0,0.0,0.0,0.0,-0.8795,-0.8724,-0.889,-0.9152,-0.9311,-0.8987,-0.9478,-1.0046,-1.0064,-1.049,-1.0957,-1.1402,-1.1876,-1.248,-1.3326,-1.5185,-1.6824,-1.7417,-2.0488,-2.3804,-2.6666,-3.0367,-3.3201,-3.4249,-3.6803,-3.8657,-3.8993,-4.1128,-4.2658,-4.3066,-4.3371,-4.3456,-4.3217,-4.2568,-4.2239,-4.2313,-4.2521,-4.3591,-4.56,-4.6029,-4.7123,-4.8856,-4.9353,-4.9969,-5.0671,-5.1012,-5.0709,-4.9971,-5.0798,-5.0508,-4.9609,-5.0844,-5.0946,-5.0479,-5.1836,-5.2475,-5.2745,-5.3453,-5.4094,-5.4607,0.0,0.0,0.0,0.0,0.0,0.0,0.0,0.0,0.0,0.0,0.0,0.0,0.0,0.0,0.0,0.0,0.0,0.0,0.0,0.0,0.0,0.0,0.0,-0.3285,-0.3564,-0.405,-0.4457,-0.4763,-0.4539,-0.4641,-0.5057,-0.462,-0.4473,-0.4536,-0.4572,-0.4596,-0.4618,-0.4849,-0.4941,-0.4963,-0.4963,0.0,0.0,0.0,0.0,0.0,0.0,0.0,0.0,-0.6343,-0.6913,-0.7449,-0.828,0.0,0.0,0.0,0.0,0.0,-0.9089,-0.9485,-0.9697,-0.9223,-0.9769,-1.0446,-1.0523,-1.098,-1.1549,-1.2054,-1.2617,-1.3378,-1.452,-1.6637,-1.8371,-1.8821,-2.2701,-2.687,-3.0317,-3.211,-3.3545,-3.4857,-3.721,-3.9308,-4.0801,-4.2498,-4.3577,-4.367,-4.4172,-4.3929,-4.2699,-4.2107,-4.2004,-4.2456,-4.1619,-4.1758,-4.3039,-4.5014,-4.689,-4.8557,-4.9126,-4.9708,-5.0334,-5.0334,-4.9888,-4.9168,-4.9977,-4.9889,-4.9238,-5.0175,-5.0664,-5.0828,-5.1285,-5.198,-5.2741,-5.2678,-5.32,-5.3896,0.0,0.0,0.0,0.0,0.0,0.0,0.0,0.0,0.0,0.0,0.0,0.0,0.0,0.0,0.0,0.0,0.0,0.0,0.0,0.0,0.0,0.0,-0.251,-0.3248,-0.3905,-0.4161,-0.4378,-0.4538,-0.4836,-0.4943,-0.4849,-0.4947,-0.4857,-0.4667,-0.4558,-0.4539,-0.4596,-0.4639,-0.4731,-0.4823,-0.4823,0.0,0.0,0.0,0.0,0.0,0.0,0.0,0.0,-0.5434,-0.6413,-0.7752,-0.7522,0.0,0.0,0.0,0.0,0.0,-0.8894,-1.0325,-1.1499,-1.0291,-1.0787,-1.1643,-1.1969,-1.2658,-1.329,-1.3662,-1.4228,-1.4956,-1.5996,-1.8379,-2.0192,-2.0292,-2.5501,-3.0566,-3.3561,-3.6316,-3.7384,-3.5676,-3.8626,-4.0471,-3.9754,-4.1566,-4.3025,-4.3638,-4.3217,-4.2892,-4.2854,-4.2185,-4.1393,-4.0557,-4.1389,-4.1718,-4.1476,-4.3394,-4.5389,-4.7447,-4.8094,-4.88,-4.9471,-4.9471,-4.9085,-4.8431,-4.9269,-4.8885,-4.7765,-4.9347,-4.9694,-4.9303,-5.0065,-5.0636,-5.1081,-5.1053,-5.1583,-5.2296,0.0,0.0,0.0,0.0,0.0,0.0,0.0,0.0,0.0,0.0,0.0,0.0,0.0,0.0,0.0,0.0,0.0,0.0,0.0,0.0,0.0,-0.2063,-0.2719,-0.3216,-0.3564,-0.4123,-0.4484,-0.4662,-0.4849,-0.4987,-0.507,-0.4983,-0.4714,-0.4317,-0.4341,-0.4363,-0.4379,-0.4468,-0.4568,-0.4709,0.0,0.0,0.0,0.0,0.0,0.0,0.0,0.0,0.0,0.0,-0.6611,-0.7494,-0.7344,0.0,0.0,0.0,0.0,0.0,-0.9488,-1.067,-1.1862,-1.2254,-1.3034,-1.3714,-1.3777,-1.4508,-1.5333,-1.598,-1.6748,-1.7698,-1.8915,-2.1069,-2.3555,-2.6323,-3.0021,-3.3253,-3.5281,-3.6729,-3.728,-3.647,-3.8999,-4.0547,-3.9897,-4.1501,-4.2586,-4.2569,-4.2245,-4.1951,-4.1713,-4.1102,-4.0688,-4.0523,-4.0781,-4.1053,-4.1309,-4.2632,-4.444,-4.667,-4.7264,-4.7966,-4.871,-4.871,-4.8329,-4.7701,-4.8499,-4.8057,-4.6884,-4.8572,-4.8858,-4.8312,-4.9148,-4.9821,-5.0477,-5.1351,-5.1469,-5.1393,0.0,0.0,0.0,0.0,0.0,0.0,0.0,0.0,0.0,0.0,0.0,0.0,0.0,0.0,0.0,0.0,0.0,0.0,0.0,0.0,-0.2107,-0.2573,-0.3052,-0.3383,-0.3503,-0.4155,-0.4626,-0.4869,-0.4869,-0.4945,-0.5104,-0.4848,-0.446,-0.3995,-0.4115,-0.4127,-0.4089,-0.4242,-0.4383,-0.4513,0.0,0.0,0.0,0.0,0.0,0.0,0.0,0.0,0.0,0.0,0.0,0.0,0.0,0.0,0.0,-0.8816,-0.9004,-0.9387,-1.0072,-1.1204,-1.2487,-1.3681,-1.4596,-1.5249,-1.5654,-1.6456,-1.7394,-1.8382,-1.9505,-2.0629,-2.1716,-2.3798,-2.6863,-3.1619,-3.3749,-3.5328,-3.677,-3.7137,-3.7339,-3.7477,-3.928,-4.045,-4.0293,-4.1372,-4.1905,-4.1385,-4.1353,-4.1089,-4.0551,-4.0238,-4.0243,-4.0692,-4.0484,-4.072,-4.1494,-4.2242,-4.3613,-4.5587,-4.6333,-4.7033,-4.7663,-4.7865,-4.7701,-4.7214,-4.7855,-4.7535,-4.6681,-4.7948,-4.8157,-4.7751,-4.8366,-4.9003,-4.9713,-5.1118,-5.1051,-5.0469,0.0,0.0,0.0,0.0,0.0,0.0,0.0,0.0,0.0,0.0,0.0,0.0,0.0,0.0,0.0,0.0,0.0,0.0,0.0,0.0,-0.2195,-0.2839,-0.3385,-0.3891,-0.4395,-0.4458,-0.469,-0.5086,-0.5086,-0.4905,-0.4558,-0.4534,-0.4325,-0.3995,-0.4016,-0.3919,-0.3749,-0.3943,-0.4103,-0.4243,-0.4504,0.0,0.0,0.0,0.0,0.0,0.0,0.0,0.0,0.0,0.0,0.0,0.0,0.0,-0.8808,-0.9221,-0.9373,-0.9543,-1.019,-1.248,-1.4429,-1.3571,-1.4052,-1.5317,-1.7488,-1.8495,-1.9367,-2.0684,-2.2146,-2.3253,-2.3492,-2.5994,-2.9216,-3.2893,-3.501,-3.6786,-3.8639,-3.9631,-3.9907,-3.9062,-3.9871,-4.0483,-4.0471,-4.058,-4.0626,-4.0577,-4.0577,-4.0401,-3.9989,-4.0337,-4.04,-4.0079,-4.0943,-4.1428,-4.1494,-4.2055,-4.2798,-4.3704,-4.5173,-4.5927,-4.5998,-4.6861,-4.725,-4.7219,-4.7435,-4.7508,-4.7439,-4.7672,-4.7732,-4.7717,-4.7751,-4.7826,-4.7988,-4.8844,-4.91,-4.9158,0.0,0.0,0.0,0.0,0.0,0.0,0.0,0.0,0.0,0.0,0.0,0.0,0.0,0.0,0.0,0.0,0.0,0.0,0.0,0.0,-0.2624,-0.3133,-0.3619,-0.4148,-0.4745,-0.4706,-0.4943,-0.5462,-0.5111,-0.4784,-0.4501,-0.4501,-0.4312,-0.3995,-0.4094,-0.4033,-0.3894,-0.4065,-0.4177,-0.4286,-0.45,-0.4639,0.0,0.0,0.0,0.0,0.0,0.0,0.0,0.0,-0.6542,-0.7351,-0.7188,-0.8059,-0.9143,-0.9148,-0.934,-0.9718,-1.0643,-1.2522,-1.4282,-1.4535,-1.5871,-1.7552,-1.9187,-2.0751,-2.2201,-2.3369,-2.5743,-2.7615,-2.7607,-3.047,-3.3227,-3.4475,-3.6692,-3.8683,-3.9807,-3.993,-3.9761,-3.9372,-4.0043,-4.0335,-3.9927,-3.9894,-3.9894,-3.9894,-3.9853,-3.9792,-3.9717,-4.0281,-4.0705,-4.0949,-4.1316,-4.1666,-4.2002,-4.2187,-4.2448,-4.2769,-4.3857,-4.4874,-4.582,-4.6168,-4.6673,-4.7272,-4.7341,-4.7331,-4.7262,-4.7565,-4.7557,-4.7358,-4.7604,-4.7759,-4.7979,-4.9249,-4.9413,-4.9206,0.0,0.0,0.0,0.0,0.0,0.0,0.0,0.0,0.0,0.0,0.0,0.0,0.0,0.0,0.0,0.0,0.0,0.0,0.0,-0.2484,-0.2938,-0.3337,-0.3907,-0.4513,-0.51,-0.4922,-0.5081,-0.5611,-0.5033,-0.4624,-0.4337,-0.4412,-0.4311,-0.4093,-0.4177,-0.4152,-0.4074,-0.4152,-0.4244,-0.4345,-0.4531,-0.4618,0.0,0.0,0.0,0.0,0.0,0.0,0.0,0.0,-0.6777,-0.7387,-0.7501,-0.8294,-0.917,-0.9174,-0.9497,-1.0053,-1.0947,-1.2564,-1.4248,-1.5356,-1.7179,-1.923,-2.1083,-2.3055,-2.4804,-2.602,-2.8113,-2.9941,-3.0606,-3.2854,-3.4786,-3.5306,-3.7482,-3.9371,-4.0078,-3.9603,-3.9136,-3.9136,-3.9541,-3.9654,-3.9185,-3.9136,-3.9136,-3.9136,-3.9298,-3.9463,-3.9594,-4.0383,-4.1024,-4.149,-4.1912,-4.2186,-4.2287,-4.2537,-4.2537,-4.2308,-4.29,-4.3968,-4.5427,-4.5761,-4.643,-4.7302,-4.7518,-4.7545,-4.7517,-4.7893,-4.7823,-4.7479,-4.7647,-4.7845,-4.8204,-4.9394,-4.9601,-4.9446,0.0,0.0,0.0,0.0,0.0,0.0,0.0,0.0,0.0,0.0,0.0,0.0,0.0,0.0,0.0,0.0,0.0,0.0,-0.2258,-0.2667,-0.3072,-0.3475,-0.4256,-0.4968,-0.5573,-0.5139,-0.5065,-0.5379,-0.4922,-0.4469,-0.4,-0.4212,-0.4294,-0.4308,-0.4236,-0.4213,-0.4213,-0.4213,-0.4279,-0.4425,-0.4543,-0.4688,-0.4823,0.0,0.0,0.0,0.0,0.0,0.0,0.0,-0.6571,-0.7036,-0.7768,-0.8325,-0.8816,-0.9431,-0.9984,-1.0523,-1.1057,-1.2779,-1.4692,-1.5838,-1.7595,-1.9899,-2.3164,-2.5303,-2.7021,-2.8554,-2.8917,-2.964,-3.1883,-3.2429,-3.32,-3.5273,-3.7121,-3.8594,-3.9389,-3.8861,-3.8408,-3.8391,-3.8408,-3.8408,-3.8391,-3.8391,-3.8391,-3.8391,-3.9044,-3.9463,-3.9594,-4.0685,-4.1366,-4.1494,-4.28,-4.3108,-4.2325,-4.3108,-4.3108,-4.2325,-4.2461,-4.3248,-4.4642,-4.5703,-4.6582,-4.7327,-4.7995,-4.8288,-4.8326,-4.8658,-4.8586,-4.8267,-4.7847,-4.7994,-4.8458,-4.8863,-4.9299,-4.9762,0.0,0.0,0.0,0.0,0.0,0.0,0.0,0.0,0.0,0.0,0.0,0.0,0.0,0.0,0.0,0.0,0.0,0.0,-0.215,-0.2529,-0.2931,-0.3333,-0.3866,-0.4429,-0.5024,-0.5081,-0.4933,-0.4563,-0.4613,-0.447,-0.4135,-0.4401,-0.4508,-0.4535,-0.4839,-0.4794,-0.45,-0.479,-0.4772,-0.4539,-0.4596,-0.4688,-0.4823,0.0,0.0,0.0,0.0,0.0,0.0,0.0,0.0,0.0,-0.8338,-0.8743,-0.9134,-0.9497,-0.9984,-1.0605,-1.1559,-1.3547,-1.5644,-1.6953,-1.9851,-2.2888,-2.4791,-2.5856,-2.7597,-3.1705,-3.2156,-3.2074,-3.2799,-3.4085,-3.5309,-3.6168,-3.7462,-3.8792,-4.0014,-3.959,-3.8974,-3.8456,-3.8845,-3.8958,-3.844,-3.8391,-3.842,-3.8532,-3.9473,-4.0102,-4.0285,-4.1366,-4.2023,-4.2065,-4.2457,-4.2804,-4.3144,-4.3393,-4.3622,-4.3929,-4.4052,-4.4041,-4.3927,-4.492,-4.551,-4.5812,-4.6804,-4.7132,-4.7011,-4.7687,-4.7736,-4.7423,-4.7931,-4.8249,-4.8477,-4.9115,-4.9476,-4.9684,0.0,0.0,0.0,0.0,0.0,0.0,0.0,0.0,0.0,0.0,-0.1722,0.0,0.0,0.0,0.0,0.0,0.0,0.0,0.0,0.0,-0.3073,-0.3295,-0.3919,-0.4434,-0.4798,-0.5142,-0.506,-0.4516,-0.4535,-0.4556,-0.4521,-0.4824,-0.5012,-0.512,-0.5531,-0.5381,-0.4855,-0.501,-0.4934,-0.4688,-0.4618,-0.4748,-0.4954,0.0,0.0,0.0,0.0,0.0,0.0,0.0,0.0,0.0,-0.8546,-0.8848,-0.9161,-0.9962,-1.049,-1.1124,-1.2543,-1.4264,-1.6209,-1.846,-2.1399,-2.4365,-2.6864,-2.8227,-3.0041,-3.3894,-3.3768,-3.3209,-3.3951,-3.4634,-3.546,-3.6754,-3.7561,-3.8476,-3.99,-3.9493,-3.8893,-3.844,-3.878,-3.8877,-3.844,-3.856,-3.8644,-3.8588,-3.9834,-4.0583,-4.0601,-4.1666,-4.2308,-4.2308,-4.2608,-4.3019,-4.3497,-4.3782,-4.4157,-4.4603,-4.4793,-4.4465,-4.3712,-4.4661,-4.533,-4.5825,-4.6526,-4.6928,-4.7151,-4.7618,-4.7862,-4.7991,-4.8366,-4.8641,-4.8883,-4.9343,-4.9631,-4.9833,0.0,0.0,0.0,0.0,0.0,0.0,0.0,0.0,0.0,0.0,-0.2004,-0.2053,0.0,0.0,0.0,0.0,0.0,0.0,0.0,0.0,-0.3379,-0.3355,-0.4299,-0.4845,-0.4888,-0.5296,-0.5387,-0.5117,-0.482,-0.481,-0.5091,-0.5445,-0.5764,-0.6012,-0.6253,-0.5966,-0.5298,-0.5103,-0.4956,-0.4823,-0.477,-0.4927,-0.5171,-0.5094,0.0,0.0,0.0,0.0,0.0,0.0,0.0,0.0,-0.848,-0.867,-0.8974,-1.0577,-1.1181,-1.1749,-1.3667,-1.4988,-1.6655,-2.0159,-2.2648,-2.5249,-2.9183,-3.1559,-3.342,-3.509,-3.4181,-3.355,-3.5102,-3.444,-3.4482,-3.7075,-3.7388,-3.7828,-3.9305,-3.891,-3.8472,-3.8408,-3.8456,-3.8472,-3.8408,-3.8738,-3.8849,-3.8644,-4.0078,-4.0855,-4.0625,-4.1705,-4.2308,-4.2308,-4.3019,-4.3447,-4.3497,-4.4157,-4.4531,-4.4585,-4.4928,-4.4677,-4.3982,-4.4861,-4.5774,-4.669,-4.664,-4.7076,-4.7849,-4.7856,-4.8371,-4.9112,-4.8839,-4.9062,-4.9499,-4.9529,-4.9778,-5.0082,0.0,0.0,0.0,0.0,0.0,0.0,0.0,0.0,0.0,0.0,0.0,0.0,0.0,0.0,0.0,0.0,0.0,0.0,0.0,0.0,-0.3365,-0.384,-0.4568,-0.5137,-0.5507,-0.5599,-0.576,-0.5949,-0.5922,-0.5834,-0.5717,-0.6277,-0.6615,-0.6757,-0.6821,-0.6556,-0.606,-0.601,-0.5589,-0.5007,-0.562,-0.5539,-0.5094,-0.5474,-0.5318,0.0,0.0,0.0,0.0,0.0,0.0,0.0,-0.848,-0.8516,-0.8609,-1.0113,-1.0739,-1.1402,-1.3605,-1.5682,-1.8054,-2.1413,-2.5704,-2.9467,-3.0906,-3.2825,-3.4237,-3.3996,-3.4694,-3.5339,-3.5395,-3.5045,-3.5362,-3.7196,-3.6996,-3.7284,-3.9224,-3.9376,-3.9039,-3.8472,-3.891,-3.9052,-3.8456,-3.8476,-3.86,-3.8766,-3.9817,-4.0535,-4.0754,-4.1749,-4.2308,-4.2308,-4.2486,-4.2858,-4.3479,-4.3658,-4.4014,-4.4603,-4.5398,-4.557,-4.5158,-4.5494,-4.575,-4.5808,-4.4929,-4.4804,-4.528,-4.5871,-4.651,-4.7127,-4.7935,-4.8734,-4.9442,-4.9726,-4.9866,-4.9933,0.0,0.0,0.0,0.0,0.0,0.0,0.0,0.0,0.0,0.0,0.0,0.0,0.0,0.0,0.0,0.0,0.0,0.0,0.0,0.0,0.0,-0.4827,-0.517,-0.5518,-0.5933,-0.6151,-0.6359,-0.6535,-0.6831,-0.6909,-0.6769,-0.7154,-0.7393,-0.7474,-0.7647,-0.723,-0.6396,-0.6394,-0.6078,-0.5609,-0.6034,-0.6013,-0.5734,-0.5959,-0.5858,-0.568,-0.6104,0.0,0.0,0.0,0.0,0.0,0.0,0.0,-0.858,-1.0545,-1.1006,-1.147,-1.4179,-1.6366,-1.8994,-2.3641,-2.7816,-3.0894,-3.1405,-3.272,-3.3639,-3.2936,-3.4097,-3.5181,-3.4965,-3.4591,-3.47,-3.5819,-3.623,-3.6782,-3.787,-3.8588,-3.8699,-3.797,-3.8521,-3.8683,-3.7954,-3.8416,-3.8898,-3.9152,-3.9797,-4.0302,-4.0572,-4.0954,-4.1145,-4.1145,-4.1145,-4.1716,-4.2912,-4.2929,-4.35,-4.4603,-4.5161,-4.5373,-4.5277,-4.5571,-4.5372,-4.4771,-4.4505,-4.4838,-4.5637,-4.6228,-4.7104,-4.8134,-4.8729,-4.9239,-4.9669,-4.9824,-4.9912,-4.9912,0.0,0.0,0.0,0.0,0.0,0.0,0.0,0.0,0.0,0.0,0.0,0.0,0.0,0.0,0.0,0.0,0.0,0.0,0.0,0.0,0.0,0.0,-0.5658,-0.5809,-0.62,-0.6592,-0.686,-0.7014,-0.7468,-0.7817,-0.8093,-0.8074,-0.8127,-0.8207,-0.8504,-0.7905,-0.6713,-0.6738,-0.656,-0.6221,-0.6392,-0.6456,-0.6456,-0.6465,-0.6471,-0.6547,-0.6847,-0.6866,-0.6802,-0.7426,0.0,0.0,0.0,0.0,-0.8625,-1.1007,-1.1338,-1.1556,-1.4606,-1.7067,-2.0028,-2.5434,-2.8719,-3.0663,-3.0907,-3.1823,-3.2521,-3.1971,-3.3038,-3.408,-3.408,-3.3558,-3.3396,-3.414,-3.5171,-3.5979,-3.6187,-3.7279,-3.7809,-3.7198,-3.7679,-3.7897,-3.7503,-3.8294,-3.9042,-3.9521,-3.9725,-3.994,-4.0178,-4.0015,-3.9895,-3.9895,-3.9895,-4.0556,-4.1859,-4.2022,-4.2662,-4.3782,-4.4139,-4.4448,-4.4788,-4.5342,-4.5042,-4.4095,-4.453,-4.5389,-4.6496,-4.6766,-4.7861,-4.9389,-4.9449,-4.9646,-4.9912,-4.9912,-4.9912,-4.9912,0.0,0.0,0.0,0.0,0.0,0.0,0.0,0.0,0.0,0.0,-0.2112,-0.2147,0.0,0.0,0.0,0.0,0.0,0.0,0.0,0.0,0.0,-0.5361,-0.5301,-0.5593,-0.6273,-0.6352,-0.6713,-0.7419,-0.76,-0.8341,-0.9586,-0.9026,-0.8843,-0.8957,-0.9066,-0.8528,-0.7565,-0.7736,-0.7205,-0.6359,-0.7175,-0.7027,-0.638,-0.6886,-0.6844,-0.6529,-0.6758,-0.7128,-0.7528,-0.7395,-0.7674,0.0,0.0,0.0,-0.8332,-1.0364,-1.076,-1.1125,-1.3636,-1.7747,-2.1904,-2.4474,-2.7324,-2.9418,-2.9117,-3.0435,-3.1606,-3.1361,-3.2074,-3.2742,-3.2742,-3.2222,-3.2165,-3.3423,-3.371,-3.4195,-3.5366,-3.6128,-3.6546,-3.6448,-3.6529,-3.6998,-3.8055,-3.7684,-3.7944,-3.9334,-3.923,-3.9202,-3.935,-3.9693,-3.9895,-3.9895,-3.9895,-3.9984,-4.0235,-4.0913,-4.102,-4.0556,-4.1722,-4.2808,-4.3818,-4.5114,-4.5353,-4.4751,-4.426,-4.43,-4.4735,-4.4777,-4.5787,-4.732,-4.7608,-4.8623,-4.9912,-4.9912,-4.9912,-4.9912,0.0,0.0,0.0,0.0,0.0,0.0,0.0,0.0,0.0,0.0,0.0,-0.2184,0.0,0.0,0.0,0.0,0.0,0.0,0.0,0.0,0.0,-0.5577,-0.5793,-0.6179,-0.6677,-0.6958,-0.7259,-0.7621,-0.793,-0.8565,-0.9454,-0.968,-0.9989,-1.0321,-1.0049,-0.955,-0.8917,-0.8778,-0.8403,-0.7919,-0.8401,-0.8261,-0.7771,-0.7939,-0.7917,-0.7925,-0.8543,-0.8512,-0.8261,-0.8708,-0.8491,-0.8062,-0.8246,0.0,0.0,0.0,-1.032,-1.0867,-1.4286,-1.7442,-2.0457,-2.3252,-2.5686,-2.7443,-2.7613,-2.896,-3.0122,-3.0044,-3.0472,-3.1205,-3.2292,-3.1944,-3.1784,-3.2721,-3.3482,-3.4151,-3.4707,-3.5663,-3.6157,-3.572,-3.606,-3.6486,-3.7012,-3.7145,-3.7752,-3.9081,-3.831,-3.7935,-3.827,-3.8071,-3.7951,-3.7951,-3.838,-3.8826,-3.927,-3.9646,-3.9843,-3.9914,-4.1085,-4.2066,-4.2987,-4.4671,-4.5223,-4.4921,-4.5092,-4.5157,-4.5129,-4.5129,-4.612,-4.7638,-4.7787,-4.8696,-4.9912,-4.9912,-4.9912,-4.9912,0.0,0.0,0.0,0.0,0.0,0.0,0.0,0.0,0.0,0.0,0.0,0.0,0.0,0.0,0.0,0.0,0.0,0.0,0.0,0.0,0.0,-0.5642,-0.5986,-0.6365,-0.6803,-0.7196,-0.7524,-0.7753,-0.8185,-0.8716,-0.9353,-1.0134,-1.0932,-1.1672,-1.1123,-1.0467,-0.9747,-0.9676,-0.9439,-0.9121,-0.9391,-0.9298,-0.902,-0.909,-0.9108,-0.9198,-1.0237,-1.0077,-0.9439,-1.0029,-0.9517,-0.8611,-0.8543,-0.8332,0.0,0.0,0.0,-1.1121,-1.4482,-1.6629,-1.8578,-2.138,-2.3616,-2.5318,-2.5855,-2.7426,-2.8768,-2.8875,-2.9403,-3.0306,-3.1758,-3.1482,-3.1095,-3.1427,-3.2696,-3.363,-3.3571,-3.483,-3.5542,-3.5001,-3.5516,-3.6013,-3.6305,-3.6771,-3.7593,-3.8853,-3.775,-3.7098,-3.7291,-3.672,-3.631,-3.6096,-3.6684,-3.7273,-3.7898,-3.8094,-3.8683,-3.9667,-4.0429,-4.1178,-4.1924,-4.3955,-4.4776,-4.4655,-4.5551,-4.5678,-4.524,-4.5148,-4.6068,-4.7586,-4.7792,-4.8584,-4.9627,-4.9817,-4.9912,-4.9912,0.0,0.0,0.0,0.0,0.0,0.0,0.0,0.0,0.0,0.0,0.0,0.0,0.0,0.0,-0.3342,-0.3598,-0.4122,-0.4723,-0.5411,-0.5366,-0.5285,-0.5236,-0.5258,0.0,-0.6316,-0.6492,-0.7006,-0.7899,-0.8228,-0.8929,-0.9971,-1.0321,-1.128,-1.27,-1.2144,-1.0962,-0.9392,-1.0261,-1.0025,-0.9167,-0.9796,-0.975,-0.936,-1.0266,-1.0117,-0.9661,-1.1028,-1.1444,-1.1271,-1.0754,-1.0569,-1.0366,-0.9229,-0.8784,-0.8852,0.0,0.0,0.0,-1.319,-1.5229,-1.7342,-1.8464,-2.0961,-2.3276,-2.3654,-2.5839,-2.7868,-2.8269,-2.9506,-3.0583,-3.0685,-3.0147,-2.9523,-2.8984,-3.04,-3.157,-3.155,-3.3079,-3.4198,-3.4165,-3.4521,-3.5357,-3.6808,-3.6646,-3.7097,-3.8676,-3.8021,-3.7237,-3.6506,-3.6417,-3.6042,-3.5276,-3.5293,-3.5329,-3.5383,-3.6149,-3.7345,-3.8957,-3.9121,-3.9595,-4.0403,-4.2924,-4.3947,-4.3829,-4.4807,-4.4758,-4.3968,-4.3664,-4.444,-4.5914,-4.6669,-4.7702,-4.885,-4.9627,-4.9912,-4.9912,0.0,0.0,0.0,0.0,0.0,0.0,0.0,0.0,0.0,0.0,0.0,0.0,0.0,-0.3323,-0.3482,-0.3811,-0.444,-0.4971,-0.5345,-0.541,-0.5366,-0.5215,-0.5523,-0.5949,-0.6407,-0.6859,-0.7349,-0.7899,-0.8372,-0.8926,-0.9565,-1.03,-1.093,-1.1473,-1.1831,-1.1823,-1.1558,-1.1637,-1.1196,-1.0482,-1.0906,-1.0781,-1.0417,-1.0613,-1.0564,-1.0467,-1.1485,-1.184,-1.1773,-1.1306,-1.1679,-1.1938,-0.9762,-0.95,-0.9966,-0.9908,-1.0804,-1.1963,-1.2561,-1.3758,-1.5238,-1.7046,-1.8967,-2.0714,-2.176,-2.4123,-2.6203,-2.6616,-2.7791,-2.8753,-2.8753,-2.9566,-3.0163,-2.9903,-3.1104,-3.2021,-3.1982,-3.2821,-3.3615,-3.4052,-3.4039,-3.4599,-3.6132,-3.5897,-3.6092,-3.7183,-3.6078,-3.5221,-3.4936,-3.4918,-3.4793,-3.4508,-3.4937,-3.5186,-3.5186,-3.6077,-3.6826,-3.7435,-3.86,-3.9534,-4.0273,-4.2259,-4.2936,-4.2586,-4.3289,-4.3723,-4.3881,-4.354,-4.4054,-4.5113,-4.5618,-4.6862,-4.8452,-4.8935,-4.9457,-4.9912,0.0,0.0,0.0,0.0,0.0,0.0,0.0,0.0,0.0,0.0,0.0,0.0,0.0,0.0,-0.407,-0.4404,-0.4979,-0.5399,-0.5528,-0.5717,-0.5766,-0.5647,-0.6013,-0.6419,-0.6795,-0.7202,-0.76,-0.8002,-0.8471,-0.8923,-0.9352,-1.0083,-1.0593,-1.0904,-1.1598,-1.2055,-1.2255,-1.2275,-1.1899,-1.1336,-1.1796,-1.1956,-1.1921,-1.2315,-1.2448,-1.2565,-1.3355,-1.3445,-1.3089,-1.2415,-1.2642,-1.2803,-1.0512,-1.014,-1.0498,-1.0077,-1.0771,-1.1704,-1.2081,-1.2979,-1.4208,-1.5707,-1.7508,-1.9166,-2.0146,-2.2394,-2.4417,-2.4844,-2.6121,-2.72,-2.7376,-2.8797,-2.9813,-2.9339,-3.0479,-3.1475,-3.1632,-3.2494,-3.3259,-3.3712,-3.3552,-3.3851,-3.5006,-3.5068,-3.5316,-3.5936,-3.5061,-3.4365,-3.4099,-3.4115,-3.399,-3.3705,-3.4169,-3.4578,-3.4863,-3.5484,-3.609,-3.6679,-3.7842,-3.8875,-3.9839,-4.1256,-4.182,-4.1688,-4.2099,-4.2699,-4.3301,-4.2968,-4.3393,-4.432,-4.4951,-4.6249,-4.7841,-4.8459,-4.921,-4.9912,0.0,0.0,0.0,0.0,0.0,0.0,0.0,0.0,0.0,0.0,0.0,0.0,0.0,0.0,0.0,-0.5496,-0.5812,-0.6006,-0.6014,-0.6325,-0.652,-0.6511,-0.6641,-0.6915,-0.7391,-0.7419,-0.767,-0.8196,-0.8543,-0.8945,-0.9406,-0.9731,-1.0354,-1.121,-1.1621,-1.1597,-1.1293,-1.2151,-1.2155,-1.1656,-1.2467,-1.3149,-1.3808,-1.5358,-1.5807,-1.5756,-1.6557,-1.6322,-1.5454,-1.3993,-1.3447,-1.3125,-1.1604,-1.0734,-1.0356,-1.0482,-1.1025,-1.1564,0.0,0.0,0.0,-1.448,-1.6586,-1.8659,-1.8799,-2.0695,-2.255,-2.301,-2.4651,-2.613,-2.6611,-2.7692,-2.8113,-2.6866,-2.8283,-2.9701,-3.0258,-3.1872,-3.3,-3.304,-3.2987,-3.314,-3.3564,-3.4225,-3.4799,-3.5151,-3.515,-3.4812,-3.4115,-3.4062,-3.3705,-3.2918,-3.29,-3.3307,-3.4159,-3.4176,-3.5081,-3.6812,-3.6794,-3.7596,-3.9036,-3.9877,-4.0581,-4.1154,-4.1361,-4.1709,-4.2162,-4.1832,-4.2377,-4.3496,-4.4712,-4.5879,-4.7037,-4.8237,-4.9197,-4.9912,0.0,0.0,0.0,0.0,0.0,0.0,0.0,0.0,0.0,0.0,0.0,0.0,0.0,0.0,-0.5436,-0.5964,-0.6129,-0.6329,-0.6571,-0.6747,-0.6824,-0.6719,-0.6846,-0.7084,-0.7461,-0.7565,-0.7801,-0.8196,-0.8637,-0.9042,-0.9406,-0.9731,-1.0168,-1.0715,-1.1315,-1.1794,-1.2168,-1.2668,-1.3088,-1.3436,-1.3286,-1.3635,-1.4289,-1.4518,-1.4614,-1.4659,-1.5082,-1.6064,-1.6754,-1.4379,-1.55,-1.7423,-1.4738,-1.2431,-1.0804,-1.1139,-1.1868,-1.2599,-1.2628,0.0,0.0,0.0,0.0,0.0,-1.7467,-1.8907,-2.0261,-2.1019,-2.2329,-2.3477,-2.3898,-2.392,-2.3876,-2.3969,-2.7003,-2.9227,-2.8929,-2.9974,-3.0989,-3.1577,-3.1841,-3.2437,-3.3624,-3.3661,-3.3828,-3.435,-3.3865,-3.3453,-3.3239,-3.3239,-3.3132,-3.29,-3.29,-3.3039,-3.3335,-3.3954,-3.5128,-3.6793,-3.6895,-3.7861,-3.958,-3.9429,-3.9584,-3.9969,-4.0033,-4.0659,-4.1625,-4.1685,-4.2231,-4.3142,-4.4305,-4.5492,-4.6682,-4.7849,-4.8961,-4.9912,0.0,0.0,0.0,0.0,0.0,0.0,0.0,0.0,0.0,0.0,0.0,0.0,0.0,0.0,-0.6237,-0.6699,-0.6875,-0.7012,-0.7084,-0.7298,-0.7404,-0.7377,-0.7461,-0.7614,-0.7863,-0.7904,-0.8036,-0.8278,-0.8559,-0.8929,-0.9398,-0.9659,-1.0157,-1.0878,-1.1641,-1.2317,-1.2866,-1.3303,-1.3951,-1.4643,-1.4142,-1.4639,-1.5671,-1.5778,-1.5987,-1.6256,-1.6422,-1.7268,-1.7929,-1.5416,-1.6247,-1.7868,-1.5227,-1.388,-1.3167,-1.2491,-1.3042,-1.3858,-1.3739,-1.4342,-1.5039,-1.5399,0.0,0.0,-1.6816,-1.7686,-1.8524,-1.8962,-2.0081,-2.1102,-2.1487,-2.1875,-2.223,-2.2589,-2.481,-2.6741,-2.7419,-2.8653,-2.9654,-3.0098,-3.0239,-3.0664,-3.1528,-3.1991,-3.2407,-3.2851,-3.2891,-3.29,-3.29,-3.29,-3.2916,-3.2932,-3.2932,-3.2995,-3.3122,-3.3635,-3.456,-3.5901,-3.6417,-3.7497,-3.901,-3.9156,-3.9377,-3.9658,-3.9551,-4.03,-4.1599,-4.1611,-4.2121,-4.3011,-4.4144,-4.5254,-4.6342,-4.7474,-4.8549,-4.9465,0.0,0.0,0.0,0.0,0.0,0.0,0.0,0.0,0.0,0.0,0.0,0.0,0.0,0.0,0.0,0.0,-0.7865,-0.7914,-0.768,-0.7976,-0.8186,-0.8266,-0.8253,-0.8314,-0.847,-0.8314,-0.8314,-0.8499,-0.8531,-0.8891,-0.95,-0.9726,-1.0373,-1.1438,-1.2351,-1.3031,-1.3506,-1.4101,-1.4861,-1.5685,-1.5225,-1.5978,-1.7462,-1.8123,-1.8652,-1.9001,-1.9073,-1.9237,-1.9101,-1.7086,-1.6412,-1.6128,-1.4524,-1.5185,-1.6155,-1.4202,-1.4406,-1.5174,-1.4867,-1.5376,0.0,-1.5786,-1.6756,0.0,-1.6755,-1.7027,-1.7413,-1.7232,-1.8096,-1.9017,-1.9402,-2.0773,-2.1809,-2.1868,-2.2126,-2.3179,-2.5694,-2.7434,-2.848,-2.8475,-2.8464,-2.8481,-2.8617,-2.9865,-3.0818,-3.1175,-3.2261,-3.2864,-3.2775,-3.2846,-3.2932,-3.2995,-3.3013,-3.3106,-3.331,-3.331,-3.3774,-3.4751,-3.5733,-3.686,-3.814,-3.9076,-3.9679,-3.997,-3.9672,-4.0447,-4.1884,-4.1637,-4.2104,-4.3067,-4.4272,-4.5204,-4.6048,-4.7234,-4.8151,-4.885,0.0,0.0,0.0,0.0,0.0,0.0,0.0,0.0,0.0,0.0,0.0,0.0,0.0,0.0,0.0,0.0,-0.8612,-0.8678,-0.8623,-0.8901,-0.8974,-0.8759,-0.8558,-0.8604,-0.8966,-0.8612,-0.8666,-0.9116,-0.939,-0.9721,-1.0139,-1.0802,-1.1419,-1.1974,-1.2824,-1.3708,-1.4612,-1.5013,-1.6115,-1.7616,-1.7251,-1.7482,-1.813,-1.9122,-1.9062,-1.8515,-1.889,-1.9758,-2.0605,-1.9862,-1.8173,-1.6443,-1.6669,-1.6458,-1.5984,-1.5302,-1.555,-1.5951,-1.5416,-1.5886,-1.6548,-1.6616,-1.7424,0.0,-1.7114,-1.7415,-1.7739,-1.7295,-1.7403,-1.7695,-1.8098,-1.8453,-1.8804,-1.9192,-2.0004,-2.1352,-2.3509,-2.4936,-2.5949,-2.6406,-2.7443,-2.829,-2.8783,-2.9118,-2.9833,-3.1107,-3.2261,-3.2614,-3.1972,-3.2608,-3.2997,-3.2995,-3.3057,-3.315,-3.331,-3.331,-3.4045,-3.5584,-3.6007,-3.7353,-3.9522,-3.949,-3.9877,-4.0521,-4.0042,-4.0613,-4.1897,-4.1844,-4.2411,-4.3448,-4.4967,-4.57,-4.6085,-4.761,-4.8439,-4.8816,0.0,0.0,0.0,0.0,0.0,0.0,0.0,0.0,0.0,0.0,0.0,0.0,-0.8665,-0.8966,0.0,0.0,0.0,0.0,0.0,-1.0378,-1.0441,-0.9675,-0.951,-0.9629,-1.0038,-0.9653,-0.9569,-0.985,-0.9812,-1.0203,-1.0968,-1.1414,-1.2067,-1.2854,-1.3774,-1.5054,-1.649,-1.6571,-1.8508,-2.1301,-1.8537,-1.7923,-1.8663,-1.9212,-1.9098,-1.8704,-1.9219,-1.9708,-2.0182,-2.032,-1.9507,-1.8337,-1.7783,-1.8072,-1.8366,-1.6903,-1.7075,-1.7603,-1.6983,-1.7146,-1.7488,-1.7458,-1.7808,0.0,0.0,-1.7555,-1.7666,-1.7418,-1.7393,-1.7516,-1.772,-1.7767,-1.7868,-1.8108,-1.9052,-2.0068,-2.0978,-2.2659,-2.3988,-2.4497,-2.5275,-2.6069,-2.6833,-2.7484,-2.8613,-3.0458,-3.1286,-3.1561,-3.1216,-3.1959,-3.245,-3.2544,-3.2967,-3.3244,-3.3352,-3.3352,-3.3839,-3.4812,-3.592,-3.7155,-3.8478,-3.932,-3.992,-4.029,-4.0026,-4.1006,-4.2756,-4.2322,-4.3108,-4.4618,-4.5204,-4.5622,-4.6012,-4.7223,-4.792,-4.827,-0.5148,0.0,0.0,0.0,0.0,0.0,0.0,0.0,0.0,-0.856,-0.9042,-0.9732,-1.0736,-1.1053,-1.1366,-1.1851,0.0,0.0,-1.1439,-1.1984,-1.1929,-1.0941,-1.0519,-1.0555,-1.1057,-1.0572,-1.0413,-1.0571,-1.025,-1.0658,-1.1766,-1.2034,-1.2745,-1.3844,-1.4824,-1.6546,-1.8645,-1.8119,-2.0529,-2.4272,-1.9722,-1.8894,-2.0394,-2.0281,-2.002,-1.9758,-1.9898,-1.9737,-1.9582,-2.0371,-2.0588,-2.0305,-1.8967,-1.9711,-2.0656,-1.8425,-1.8362,-1.8877,-1.8309,-1.8257,-1.8365,-1.8442,-1.8491,-1.8466,0.0,0.0,0.0,-1.7396,-1.7404,-1.7484,-1.7525,-1.745,-1.749,-1.7711,-1.8402,-1.8838,-1.8609,-2.0481,-2.2129,-2.2819,-2.3141,-2.3658,-2.454,-2.595,-2.7413,-2.8909,-2.9882,-3.0371,-3.0241,-3.1123,-3.1771,-3.2101,-3.2747,-3.3174,-3.3393,-3.3393,-3.3506,-3.3744,-3.5747,-3.6883,-3.7244,-3.9071,-3.9995,-4.0146,-3.9976,-4.115,-4.3189,-4.281,-4.3712,-4.5317,-4.5229,-4.5382,-4.5772,-4.6654,-4.7229,-4.7627,-0.6506,-0.7467,0.0,0.0,0.0,0.0,0.0,0.0,0.0,-0.9897,-1.0742,-1.1744,-1.2672,-1.3472,-1.4366,-1.5421,-1.5481,-1.5247,-1.4764,-1.3383,-1.2605,-1.2691,-1.0991,-1.043,-1.1259,-1.0464,-1.043,-1.1208,-1.1151,-1.1558,-1.2408,-1.3144,-1.3994,-1.4939,-1.5531,-1.7659,-2.064,-1.8953,-2.0446,-2.3712,-2.1278,-2.2394,-2.5421,-2.4885,-2.3715,-2.2184,-2.0901,-2.0397,-2.0549,-2.1793,-2.1534,-2.0789,-2.1421,-2.1,-2.0144,-1.912,-1.8582,-1.8261,-1.8077,-1.8297,-1.8824,-1.9872,-2.0246,-2.0323,-2.0049,0.0,-1.8501,-1.701,0.0,-1.673,-1.6801,0.0,0.0,-1.7376,-1.7339,-1.716,-1.7064,-1.8298,-1.9875,-2.1575,-2.2274,-2.2885,-2.3595,-2.5564,-2.6429,-2.5537,-2.839,-2.9692,-2.8627,-3.011,-3.1347,-3.2083,-3.2246,-3.2669,-3.3393,-3.3393,-3.3408,-3.347,-3.5655,-3.7093,-3.7852,-3.9267,-4.0317,-4.0999,-4.0241,-4.0506,-4.1598,-4.2981,-4.3708,-4.4026,-4.512,-4.5397,-4.5325,-4.6562,-4.7019,-4.7144,-0.7571,-0.8129,-0.8781,0.0,0.0,0.0,0.0,0.0,-1.2059,-1.1971,-1.2714,-1.383,-1.5311,-1.6162,-1.6744,-1.7101,-1.8276,-1.808,-1.5843,-1.5716,-1.5584,-1.5221,-1.3654,-1.3072,-1.3668,-1.2519,-1.1912,-1.1945,-1.2088,-1.2586,-1.3374,-1.4304,-1.5266,-1.6224,-1.6713,-1.8598,-2.1361,-2.0652,-2.3289,-2.7669,-2.5494,-2.649,-2.882,-2.4751,-2.2733,-2.2034,-2.1492,-2.1323,-2.1399,-2.2056,-2.2148,-2.1983,-2.1996,-2.2097,-2.2101,-2.1446,-2.1377,-2.1502,-2.1544,-2.1579,-2.1617,-2.1666,-2.1305,-2.0792,-2.0198,-1.944,-1.8677,-1.7957,0.0,0.0,0.0,0.0,0.0,0.0,-1.706,-1.6889,-1.6659,-1.7847,-1.9018,-1.9767,-2.0848,-2.196,-2.3063,-2.4558,-2.5244,-2.4705,-2.6819,-2.7915,-2.7455,-2.9184,-3.0595,-3.145,-3.193,-3.2596,-3.3393,-3.3393,-3.3549,-3.3892,-3.6263,-3.7736,-3.8425,-3.9936,-4.0847,-4.115,-4.0279,-4.0942,-4.2678,-4.2867,-4.3815,-4.5148,-4.5173,-4.5284,-4.5521,-4.6555,-4.7115,-4.7442,-0.8852,-0.9024,-0.9252,-0.975,-1.0676,0.0,0.0,-1.2877,-1.3741,-1.4492,-1.5159,-1.6479,-1.8855,-1.9488,-1.9744,-1.976,-2.0917,-2.0548,-1.7999,-1.7983,-1.7938,-1.7517,-1.6182,-1.5604,-1.588,-1.4533,-1.3672,-1.3328,-1.3173,-1.3552,-1.4422,-1.5267,-1.6282,-1.7438,-1.78,-1.9582,-2.2273,-2.2034,-2.4847,-2.9286,-2.7236,-2.7535,-2.8754,-2.419,-2.2048,-2.1562,-2.2069,-2.2255,-2.2363,-2.3124,-2.3356,-2.328,-2.3241,-2.353,-2.3781,-2.3354,-2.3463,-2.384,-2.4388,-2.4206,-2.3786,-2.3487,-2.2548,-2.1453,-2.0474,-1.9755,-1.9139,-1.8555,-1.8584,0.0,0.0,0.0,-1.7222,-1.6964,0.0,-1.6542,-1.5875,-1.7107,-1.8225,-1.862,-1.9849,-2.1034,-2.2037,-2.3221,-2.3867,-2.3742,-2.5409,-2.6458,-2.6464,-2.8246,-2.9814,-3.0948,-3.1564,-3.2361,-3.3393,-3.3393,-3.3629,-3.4123,-3.6361,-3.7829,-3.8642,-4.0314,-4.1113,-4.115,-4.0525,-4.1135,-4.2545,-4.2609,-4.3573,-4.5054,-4.5098,-4.5253,-4.5519,-4.6538,-4.7127,-4.7539,-1.058,-1.0401,-1.0148,-1.0424,-1.1049,-1.1768,-1.2536,-1.3187,-1.4627,-1.7489,-1.8193,-1.9877,-2.3574,-2.3753,-2.385,-2.4423,-2.3124,-2.2299,-2.2369,-1.987,-1.8682,-1.9297,-1.7912,-1.7131,-1.7125,-1.589,-1.5404,-1.5688,-1.4457,-1.4397,-1.5444,-1.5894,-1.6933,-1.847,-1.8589,-2.067,-2.3934,-2.2565,-2.3564,-2.5923,-2.4293,-2.3724,-2.3913,-2.4397,-2.323,-2.1446,-2.2636,-2.3095,-2.3516,-2.5868,-2.5596,-2.453,-2.6144,-2.5568,-2.4237,-2.4085,-2.3698,-2.3645,-2.5211,-2.4894,-2.4295,-2.5204,-2.4297,-2.2877,-2.1471,-2.0973,-2.0234,-1.8158,-1.8313,-1.8617,-1.8035,-1.7475,-1.7024,-1.675,-1.6433,0.0,0.0,-1.5418,-1.707,-1.8701,-1.9687,-2.0206,-2.02,-2.1562,-2.2295,-2.1832,-2.4303,-2.5767,-2.5657,-2.7242,-2.9022,-3.0948,-3.1034,-3.1799,-3.3375,-3.3393,-3.3534,-3.3839,-3.5468,-3.6991,-3.8378,-3.9971,-4.0884,-4.1188,-4.1169,-4.0571,-3.9827,-4.22,-4.2758,-4.237,-4.4744,-4.5364,-4.5073,-4.6417,-4.6922,-4.7106,-1.2024,-1.1935,-1.163,-1.1217,-1.1974,-1.3308,-1.5368,-1.7409,-1.9262,-2.0846,-2.1811,-2.373,-2.7329,-2.7593,-2.7499,-2.7477,-2.6315,-2.5093,-2.387,-2.2615,-2.1796,-2.1534,-2.1284,-2.0644,-1.9546,-1.8277,-1.7762,-1.8053,-1.6205,-1.5906,-1.7087,-1.6956,-1.7594,-1.8846,-1.926,-2.0501,-2.2359,-2.3137,-2.4444,-2.5946,-2.5765,-2.493,-2.3817,-2.4024,-2.3853,-2.3548,-2.4014,-2.4418,-2.4922,-2.5823,-2.6059,-2.5986,-2.6195,-2.6479,-2.6732,-2.6638,-2.681,-2.7203,-2.8153,-2.8164,-2.7791,-2.7491,-2.6735,-2.5785,-2.4683,-2.4022,-2.3036,-2.1039,-2.1763,-2.1953,-1.9321,-1.9283,-1.9209,-1.7734,-1.6623,-1.6023,0.0,-1.6994,-1.7989,-1.9284,-1.9483,-1.9816,-2.055,-2.1247,-2.1615,-2.1509,-2.3268,-2.4637,-2.53,-2.6632,-2.8492,-3.0912,-3.0998,-3.1763,-3.3375,-3.3393,-3.3534,-3.3825,-3.5478,-3.7142,-3.8798,-3.9552,-4.044,-4.136,-4.0453,-4.0372,-4.0933,-4.2313,-4.3342,-4.4211,-4.5854,-4.6036,-4.5517,-4.6758,-4.7232,-4.754,-1.3463,-1.3179,-1.2725,-1.2117,-1.384,-1.6038,-1.8206,-2.0819,-2.3153,-2.4867,-2.5738,-2.7414,-3.0661,-3.0767,-3.0406,-2.9856,-2.871,-2.7438,-2.6091,-2.5147,-2.4474,-2.4008,-2.4129,-2.3446,-2.1814,-2.107,-2.0592,-2.044,-1.8254,-1.7856,-1.9054,-1.8034,-1.8301,-1.9648,-2.0177,-2.0829,-2.1704,-2.3387,-2.4394,-2.4893,-2.5803,-2.5573,-2.4683,-2.4626,-2.4704,-2.4868,-2.5342,-2.5775,-2.6167,-2.6494,-2.6901,-2.7276,-2.7103,-2.7657,-2.8417,-2.8544,-2.8869,-2.9412,-3.0211,-3.012,-2.9637,-2.8939,-2.8278,-2.7472,-2.613,-2.5791,-2.5231,-2.3441,-2.4229,-2.4265,-2.1031,-2.0999,-2.0722,-1.8478,-1.7265,-1.6793,0.0,-1.7745,-1.8325,-1.9238,-1.9197,-1.9468,-2.0368,-2.1016,-2.1327,-2.123,-2.2984,-2.4396,-2.5191,-2.6515,-2.8389,-3.093,-3.0998,-3.1908,-3.381,-3.3538,-3.368,-3.4234,-3.5516,-3.6992,-3.8632,-3.9303,-4.0146,-4.1047,-4.0461,-4.0626,-4.141,-4.2488,-4.3726,-4.5051,-4.6243,-4.6255,-4.5787,-4.7292,-4.8041,-4.8515,-1.4898,-1.4273,-1.3618,-1.3295,-1.6565,-1.9663,-2.0926,-2.3272,-2.6078,-2.9331,-2.9723,-3.0763,-3.3608,-3.332,-3.2566,-3.1728,-3.0261,-2.9254,-2.9015,-2.7414,-2.6526,-2.6513,-2.626,-2.5398,-2.3828,-2.4027,-2.3745,-2.2907,-2.0596,-2.0109,-2.1263,-1.9144,-1.9039,-2.0706,-2.1222,-2.1648,-2.2001,-2.3425,-2.3587,-2.3012,-2.4455,-2.549,-2.6149,-2.6145,-2.5816,-2.5494,-2.6604,-2.707,-2.724,-2.784,-2.8128,-2.8317,-2.8787,-2.9028,-2.9234,-2.9705,-2.9815,-3.0093,-3.1274,-3.0729,-2.9805,-2.9558,-2.8997,-2.8028,-2.6038,-2.6479,-2.6876,-2.5306,-2.5704,-2.5576,-2.3111,-2.2596,-2.1735,-1.9141,-1.8449,-1.8025,-1.7405,-1.7665,-1.8115,-1.874,-1.8869,-1.9127,-1.9651,-2.0783,-2.1363,-2.1005,-2.3403,-2.5027,-2.5337,-2.6879,-2.8749,-3.0917,-3.1053,-3.218,-3.4519,-3.3791,-3.3938,-3.4995,-3.5505,-3.6504,-3.7973,-3.9172,-3.9921,-4.0313,-4.1115,-4.1308,-4.1172,-4.2769,-4.3941,-4.4801,-4.5993,-4.6134,-4.5927,-4.7916,-4.9159,-4.9885,-1.6307,-1.6646,-1.7116,-1.795,-1.9811,-2.1603,-2.2871,-2.502,-2.7777,-3.1352,-3.1215,-3.2052,-3.543,-3.4835,-3.4152,-3.4039,-3.1936,-3.0493,-3.0099,-2.8857,-2.7625,-2.6556,-2.7312,-2.6919,-2.5072,-2.4998,-2.5234,-2.5758,-2.238,-2.145,-2.2786,-2.014,-1.9379,-2.0219,-2.0789,-2.1355,-2.1928,-2.3593,-2.4684,-2.5334,-2.572,-2.6242,-2.6773,-2.6898,-2.7135,-2.7397,-2.7159,-2.736,-2.7865,-2.847,-2.8685,-2.8811,-2.9393,-2.9595,-2.9705,-3.0166,-3.033,-3.0447,-3.1113,-3.1086,-3.0808,-3.076,-3.0613,-3.0346,-2.9797,-2.9925,-2.9639,-2.7783,-2.8662,-2.8708,-2.529,-2.5696,-2.5515,-2.2422,-2.0903,-1.9881,-1.9231,-1.9217,-1.953,-2.0169,-1.9679,-1.9433,-1.9877,-2.0832,-2.1567,-2.1905,-2.368,-2.5146,-2.6076,-2.7683,-2.9331,-3.0953,-3.1582,-3.2488,-3.3701,-3.3502,-3.3854,-3.4694,-3.4836,-3.6041,-3.8125,-3.8666,-3.9163,-3.9692,-4.0687,-4.1286,-4.1651,-4.3249,-4.4739,-4.607,-4.6691,-4.6975,-4.7151,-4.7569,-4.8512,-4.9612,-1.8213,-1.8339,-1.8844,-2.0024,-2.2088,-2.409,-2.5645,-2.7597,-3.0117,-3.3587,-3.2791,-3.314,-3.6461,-3.6153,-3.5554,-3.5247,-3.3833,-3.262,-3.1779,-3.0763,-2.9739,-2.8767,-2.8713,-2.8097,-2.6795,-2.6412,-2.6279,-2.6455,-2.3553,-2.2494,-2.3203,-2.0676,-1.9811,-2.041,-2.0978,-2.1687,-2.2538,-2.4403,-2.5781,-2.6719,-2.6818,-2.7152,0.0,-2.7686,-2.7957,-2.8273,-2.805,-2.8198,-2.8518,-2.8881,-2.912,-2.9393,-2.9946,-3.0118,-3.0204,-3.0679,-3.0818,-3.0858,-3.1131,-3.119,-3.119,-3.119,-3.119,-3.119,-3.119,-3.119,-3.0878,-2.973,-3.0348,-3.0213,-2.7382,-2.7556,-2.7128,-2.4074,-2.2533,-2.1605,-2.1209,-2.1022,-2.1134,-2.1652,-2.1146,-2.0904,-2.1319,-2.1703,-2.2337,-2.3321,-2.4848,-2.6252,-2.7417,-2.8699,-3.0026,-3.1478,-3.2995,-3.3991,-3.4428,-3.515,-3.5548,-3.5639,-3.5639,-3.6345,-3.7701,-3.8554,-3.9102,-3.9459,-4.0809,-4.1939,-4.2939,-4.4229,-4.57,-4.7114,-4.7071,-4.7278,-4.7582,-4.7518,-4.819,-4.9228,-2.0438,-1.9971,-2.0039,-2.0922,-2.4082,-2.7052,-2.8761,-3.0353,-3.2514,-3.558,-3.4236,-3.4041,-3.6789,-3.6856,-3.6362,-3.5556,-3.5284,-3.462,-3.3337,-3.2529,-3.1931,-3.1617,-3.0067,-2.9012,-2.8549,-2.7911,-2.7248,-2.6593,-2.4629,-2.3639,-2.3593,-2.1199,-2.0398,-2.0964,-2.1583,-2.2574,-2.387,-2.5689,-2.6956,-2.7782,-2.7941,-2.8248,-2.8597,-2.8597,-2.8643,-2.8769,-2.9209,-2.9222,-2.912,-2.9234,-2.955,-2.9968,-3.0435,-3.058,-3.0679,-3.1075,-3.119,-3.119,-3.119,-3.119,-3.119,-3.119,-3.119,-3.119,-3.119,-3.119,-3.1171,-3.1055,-3.1095,-3.0743,-2.9292,-2.8651,-2.7588,-2.5195,-2.3993,-2.3341,-2.3323,-2.307,-2.2977,-2.3167,-2.304,0.0,-2.3463,-2.3154,-2.3504,-2.4869,-2.6455,-2.78,-2.8829,-2.9788,-3.0878,-3.2166,-3.4443,-3.5786,-3.6112,-3.7395,-3.7846,-3.7466,-3.7249,-3.7267,-3.752,-3.8898,-3.9532,-3.964,-4.1433,-4.2995,-4.4377,-4.5346,-4.6527,-4.7686,-4.705,-4.7077,-4.747,-4.7454,-4.7973,-4.8711,-2.2744,-2.3054,-2.3256,-2.3123,-2.7231,-3.0716,-3.1177,-3.193,-3.3427,-3.6114,-3.5002,-3.4592,-3.6344,-3.558,-3.4911,-3.4868,-3.4293,-3.3659,-3.308,-3.2348,-3.1814,-3.162,-3.0422,-2.9613,-2.9305,-2.8704,-2.8838,-2.9791,-2.6928,-2.5885,-2.6504,-2.3211,-2.1486,-2.1196,-2.2295,-2.4187,-2.6627,-2.7487,-2.8531,-2.9616,-2.9659,-2.9653,-2.9635,-2.9635,-2.9984,-3.047,-3.0561,-2.9941,-2.9212,-2.9995,-3.0293,-3.0456,-3.0918,-3.1092,-3.1095,-3.1171,-3.119,-3.119,-3.119,-3.119,-3.119,-3.119,-3.119,-3.119,-3.119,-3.119,-3.119,-3.1171,-3.1092,-3.0988,-3.0794,-2.9637,-2.8531,-2.8013,-2.667,-2.5686,-2.563,-2.5567,-2.5337,-2.4773,-2.5014,-2.534,-2.5628,-2.5102,-2.5059,-2.5832,-2.7657,-2.8768,-2.8817,-3.0789,-3.198,-3.2184,-3.39,-3.5765,-3.7774,-3.7393,-3.8118,-3.9876,-3.859,-3.8645,-3.9912,-4.0166,-4.0311,-4.0437,-4.2831,-4.405,-4.4414,-4.5966,-4.671,-4.683,-4.6071,-4.6145,-4.669,-4.669,-4.7199,-4.7951,-2.4714,-2.4544,-2.4651,-2.5552,-2.8981,-3.2154,-3.3786,-3.5187,-3.6332,-3.7083,-3.5574,-3.5012,-3.6587,-3.6447,-3.5878,-3.4932,-3.4951,-3.4514,-3.3337,-3.299,-3.2743,-3.2499,-3.1062,-3.0373,-3.0583,-2.9013,-2.8638,-2.9555,-2.7629,-2.6337,-2.5671,-2.4455,-2.3231,-2.2231,-2.4374,-2.6473,-2.8478,-2.9124,-2.9673,-3.0117,-3.0239,-3.041,-3.0588,-3.05,-3.0929,-3.1603,-3.1767,-3.1465,-3.0971,-3.1066,-3.1245,-3.1422,-3.1249,-3.1464,-3.1701,-3.1309,-3.1461,-3.1769,-3.1769,-3.1478,-3.1275,-3.1684,-3.1481,-3.119,-3.119,-3.119,-3.119,-3.119,-3.1151,-3.1131,-3.119,-3.0562,-2.9996,-2.9858,-2.886,-2.8067,-2.7879,-2.723,-2.6634,-2.6287,-2.6445,-2.6625,-2.6804,-2.7224,-2.7468,-2.7459,-2.8724,-2.9593,-2.9743,-3.1374,-3.2359,-3.2511,-3.509,-3.6816,-3.7575,-3.8808,-3.9804,-4.0492,-3.9749,-3.9786,-4.051,-4.0999,-4.1452,-4.1942,-4.3688,-4.4929,-4.5769,-4.6573,-4.6627,-4.6223,-4.6183,-4.6361,-4.6702,-4.712,-4.7518,-4.7842,-2.7491,-2.7037,-2.7081,-2.8553,-3.1187,-3.3822,-3.5971,-3.8005,-3.9017,-3.8217,-3.6409,-3.5669,-3.6933,-3.7282,-3.6726,-3.4952,-3.5583,-3.5375,-3.3728,-3.372,-3.3694,-3.3477,-3.1832,-3.1191,-3.1774,-2.9523,-2.8661,-2.9368,-2.8358,-2.6996,-2.5282,-2.5655,-2.516,-2.4062,-2.6757,-2.8723,-3.0071,-3.0431,-3.073,-3.0958,-3.099,-3.1333,-3.1762,-3.1627,-3.2061,-3.2766,-3.299,-3.3178,-3.3195,-3.2457,-3.224,-3.2226,-3.1799,-3.1952,-3.2226,-3.1782,-3.207,-3.2513,-3.2344,-3.1887,-3.1582,-3.2158,-3.1752,-3.1241,-3.1393,-3.1309,-3.119,-3.119,-3.119,-3.119,-3.119,-3.1193,-3.1154,-3.0952,-3.0563,-3.0151,-2.9766,-2.8899,-2.8101,-2.7618,-2.7852,-2.7956,-2.764,-2.8998,-2.9607,-2.8963,-2.9662,-3.0268,-3.0558,-3.1847,-3.2858,-3.3544,-3.6579,-3.8299,-3.8517,-4.0474,-4.1469,-4.1506,-4.0999,-4.1017,-4.1542,-4.2105,-4.2723,-4.3432,-4.4564,-4.5919,-4.7275,-4.7072,-4.6743,-4.6358,-4.6701,-4.6936,-4.7135,-4.7773,-4.7968,-4.7982,-3.2324,-3.3085,-3.3322,-3.2563,-3.5473,-3.7736,-3.7095,-3.8444,-3.9532,-3.9437,-3.8077,-3.7086,-3.6931,-3.6303,-3.5437,-3.4267,-3.4868,-3.4949,-3.4104,-3.4057,-3.405,-3.4025,-3.2636,-3.2043,-3.2413,-3.0871,-3.0653,-3.1867,-3.0425,-2.9427,-2.8797,-2.7482,-2.6951,-2.7149,-2.8624,-3.0255,-3.1812,-3.116,-3.1964,-3.3665,-3.296,-3.3073,-3.3621,-3.3499,-3.3875,-3.4452,-3.4366,-3.4761,-3.5217,-3.4474,-3.3368,-3.2412,-3.3017,-3.278,-3.2429,-3.3017,-3.3237,-3.3152,-3.2479,-3.2242,-3.2209,-3.2276,-3.1752,-3.1376,-3.2039,-3.1684,-3.119,-3.119,-3.119,-3.119,-3.119,-3.121,-3.1151,-3.1015,-3.1483,-3.1631,-3.0875,-3.1223,-3.076,-2.8641,-2.9671,-2.9975,-2.8448,-2.9861,-3.0516,-2.9663,-3.0398,-3.0789,-3.0521,-3.2336,-3.4217,-3.6023,-3.7444,-3.9894,-4.3389,-4.156,-4.2049,-4.482,-4.2628,-4.2718,-4.4838,-4.4187,-4.401,-4.4268,-4.5893,-4.7197,-4.8122,-4.7387,-4.7441,-4.7913,-4.7235,-4.7341,-4.7901,-4.7955,-4.7992,-4.8101,-3.4743,-3.4679,-3.4715,-3.5202,-3.6868,-3.8252,-3.8656,-3.9656,-4.0212,-3.9774,-3.9143,-3.8522,-3.7978,-3.7994,-3.7442,-3.5898,-3.643,-3.6218,-3.4839,-3.4748,-3.4554,-3.4117,-3.3363,-3.3013,-3.3152,-3.2398,-3.2176,-3.2563,-3.2452,-3.163,-3.0132,-3.0157,-3.0407,-3.0811,-3.0983,-3.2144,-3.3915,-3.3143,-3.3313,-3.4079,-3.3751,-3.4056,-3.4651,-3.4504,-3.4861,-3.5445,-3.5232,-3.5346,-3.5549,-3.5267,-3.4472,-3.3575,-3.3457,-3.3508,-3.3575,-3.344,-3.3711,-3.3998,-3.3715,-3.297,-3.2513,-3.341,-3.2412,-3.1512,-3.2679,-3.2374,-3.2005,-3.2425,-3.2527,-3.2391,-3.1955,-3.2639,-3.3228,-3.3022,-3.33,-3.3229,-3.2332,-3.2077,-3.1323,-2.9507,-3.0252,-3.0473,-2.9396,-3.0331,-3.1066,-3.1257,-3.1179,-3.1058,-3.0925,-3.2559,-3.4058,-3.5278,-3.7198,-3.9188,-4.1252,-4.1723,-4.2828,-4.4566,-4.4095,-4.4367,-4.5273,-4.4554,-4.4324,-4.4564,-4.6247,-4.6946,-4.6874,-4.7021,-4.7277,-4.7551,-4.7716,-4.7935,-4.8245,-4.8757,-4.859,-4.8238,-3.6904,-3.646,-3.6529,-3.7569,-3.8118,-3.8712,-3.9657,-4.0434,-4.071,-4.0195,-4.0045,-3.9674,-3.8865,-3.9169,-3.8765,-3.7067,-3.7501,-3.7173,-3.5456,-3.5349,-3.5074,-3.4464,-3.4006,-3.3773,-3.3766,-3.3421,-3.3105,-3.2872,-3.3712,-3.315,-3.1328,-3.2385,-3.2946,-3.3076,-3.3021,-3.3823,-3.5145,-3.4424,-3.4355,-3.4734,-3.451,-3.4869,-3.5504,-3.5355,-3.5617,-3.6019,-3.5756,-3.5667,-3.5644,-3.5622,-3.5245,-3.4726,-3.4218,-3.4252,-3.4438,-3.415,-3.4421,-3.4776,-3.4556,-3.3749,-3.3207,-3.4235,-3.3152,-3.2171,-3.344,-3.3152,-3.2763,-3.3288,-3.3406,-3.3237,-3.2713,-3.3558,-3.427,-3.4081,-3.431,-3.4192,-3.3311,-3.2752,-3.1946,-3.0663,-3.115,-3.1221,-3.0286,-3.1096,-3.1726,-3.1911,-3.1783,-3.1776,-3.2017,-3.3185,-3.4463,-3.5789,-3.7612,-3.9169,-4.0419,-4.1832,-4.319,-4.4458,-4.4784,-4.5182,-4.5617,-4.4721,-4.4545,-4.4967,-4.6195,-4.6562,-4.6324,-4.7113,-4.759,-4.7902,-4.8453,-4.8838,-4.9077,-4.9463,-4.9166,-4.8648,-3.9241,-3.9486,-3.9902,-3.9775,-3.9775,-3.9792,-3.9808,-4.0434,-4.0912,-4.0888,-4.0888,-4.0435,-3.9323,-3.9125,-3.8527,-3.7042,-3.7501,-3.7261,-3.5803,-3.5704,-3.5546,-3.5211,-3.4544,-3.4158,-3.4108,-3.3761,-3.3397,-3.3002,-3.3936,-3.3816,-3.2707,-3.3755,-3.3874,-3.3254,-3.4559,-3.518,-3.5145,-3.4424,-3.4938,-3.6215,-3.5473,-3.5628,-3.6284,-3.6212,-3.6187,-3.6161,-3.5883,-3.5795,-3.5773,-3.5644,-3.5583,-3.5583,-3.5583,-3.5081,-3.4641,-3.5346,-3.5583,-3.543,-3.4692,-3.4472,-3.4472,-3.4489,-3.3931,-3.3575,-3.432,-3.3914,-3.3389,-3.3406,-3.3406,-3.3406,-3.3389,-3.3406,-3.3423,-3.3423,-3.4015,-3.4235,-3.3508,-3.3406,-3.3077,-3.2268,-3.282,-3.2622,-3.1046,-3.2337,-3.2648,-3.113,-3.2171,-3.3201,-3.3923,-3.4416,-3.5933,-3.865,-3.9157,-4.0492,-4.2829,-4.2103,-4.2918,-4.5273,-4.4476,-4.4947,-4.6432,-4.5033,-4.4818,-4.5604,-4.5828,-4.6361,-4.7149,-4.7957,-4.8783,-4.9574,-4.9574,-5.0068,-5.0674,-4.9904,-4.9555,-4.9479,-4.0401,-4.0467,-4.0597,-4.0549,-4.0549,-4.0385,-3.9885,-4.0434,-4.071,-4.022,-4.0597,-4.0761,-4.0401,-4.0343,-4.0048,-3.9277,-3.9554,-3.9208,-3.7959,-3.8046,-3.7638,-3.6475,-3.6481,-3.6251,-3.5673,-3.5841,-3.5521,-3.4702,-3.5539,-3.5438,-3.4413,-3.4757,-3.4799,-3.4576,-3.5015,-3.5473,-3.5921,-3.5697,-3.587,-3.6284,-3.6042,-3.6094,-3.6301,-3.6229,-3.6204,-3.6182,-3.6014,-3.5949,-3.5932,-3.5888,-3.5866,-3.5866,-3.5866,-3.5586,-3.5295,-3.5532,-3.56,-3.5549,-3.5295,-3.4878,-3.4624,-3.5131,-3.432,-3.3728,-3.4979,-3.5059,-3.4754,-3.4252,-3.4556,-3.4737,-3.4235,-3.4573,-3.489,-3.489,-3.5115,-3.4996,-3.4252,-3.415,-3.3858,-3.3111,-3.3246,-3.3174,-3.2643,-3.3073,-3.3579,-3.4103,-3.4336,-3.4325,-3.4029,-3.5167,-3.6738,-3.8667,-4.0184,-4.1596,-4.2901,-4.3733,-4.4548,-4.5291,-4.5037,-4.4892,-4.4838,-4.4524,-4.4235,-4.4035,-4.5352,-4.6049,-4.6397,-4.7755,-4.8802,-4.9647,-5.0196,-5.0233,-5.0013,-5.0208,-4.9565,-4.8593,-4.0912,-4.0686,-4.05,-4.05,-4.05,-4.0336,-3.9859,-4.049,-4.086,-4.04,-4.0795,-4.1175,-4.1175,-4.1175,-4.0942,-4.0337,-4.0483,-4.0196,-3.9204,-3.9356,-3.8997,-3.7906,-3.7822,-3.7499,-3.6866,-3.6951,-3.6606,-3.5838,-3.642,-3.638,-3.5751,-3.5652,-3.5611,-3.5611,-3.5611,-3.587,-3.6301,-3.6301,-3.6301,-3.6301,-3.6301,-3.6301,-3.6301,-3.6255,-3.6251,-3.6212,-3.6122,-3.6079,-3.6079,-3.6019,-3.5997,-3.5997,-3.5997,-3.5888,-3.5756,-3.5756,-3.5711,-3.5684,-3.5684,-3.535,-3.5096,-3.5548,-3.4972,-3.4532,-3.5402,-3.56,-3.5464,-3.5013,-3.5278,-3.5447,-3.5013,-3.5301,-3.56,-3.56,-3.56,-3.543,-3.4979,-3.4675,-3.4443,-3.4333,-3.4432,-3.4417,-3.4148,-3.4349,-3.4652,-3.4985,-3.5552,-3.5518,-3.4714,-3.6359,-3.7936,-3.9336,-4.0889,-4.2103,-4.2901,-4.4186,-4.4838,-4.4838,-4.4838,-4.4584,-4.4115,-4.4286,-4.4253,-4.4143,-4.5644,-4.6488,-4.6873,-4.8213,-4.9462,-5.0528,-5.0729,-5.0674,-5.0472,-5.024,-4.9504,-4.8588,-4.0912,-4.036,-3.9885,-3.9885,-3.9885,-3.9885,-3.9885,-4.0642,-4.1209,-4.1232,-4.1453,-4.1604,-4.1604,-4.1604,-4.1272,-4.0461,-4.0563,-4.0403,-3.9715,-3.9875,-3.9813,-3.9437,-3.8696,-3.8096,-3.7683,-3.7309,-3.6906,-3.6457,-3.6647,-3.6722,-3.6722,-3.6464,-3.6343,-3.6343,-3.6343,-3.6343,-3.6343,-3.6343,-3.6322,-3.6322,-3.6301,-3.6301,-3.6301,-3.6301,-3.6301,-3.6301,-3.6229,-3.6225,-3.6187,-3.6062,-3.6019,-3.6019,-3.6019,-3.6019,-3.6019,-3.5997,-3.5927,-3.58,-3.5749,-3.5783,-3.58,-3.5681,-3.5676,-3.5688,-3.5577,-3.5566,-3.56,-3.56,-3.56,-3.56,-3.56,-3.56,-3.56,-3.56,-3.56,-3.56,-3.56,-3.5013,-3.4854,-3.5642,-3.6152,-3.6149,-3.5362,-3.5945,-3.5835,-3.4535,-3.6079,-3.6856,-3.6274,-3.8108,-3.9606,-4.0546,-4.1469,-4.2321,-4.3064,-4.3806,-4.415,-4.4095,-4.4095,-4.4132,-4.4186,-4.432,-4.4795,-4.5559,-4.6555,-4.74,-4.8169,-4.9184,-5.0508,-5.183,-5.1151,-5.1298,-5.1699,-5.0055,-4.9411,-4.917,-4.0912,-4.0776,-4.0638,-4.0638,-4.0638,-4.0693,-4.0849,-4.1053,-4.1277,-4.1475,-4.156,-4.1604,-4.1604,-4.1604,-4.1515,-4.1295,-4.148,-4.1508,-4.1332,-4.157,-4.1402,-4.0702,-4.0488,-3.9809,-3.8541,-3.8404,-3.7956,-3.7087,-3.6987,-3.6928,-3.6928,-3.6851,-3.6831,-3.6831,-3.6831,-3.6831,-3.6831,-3.6667,-3.6602,-3.6602,-3.6381,-3.6301,-3.6301,-3.6301,-3.6301,-3.6301,-3.628,-3.6276,-3.6259,-3.6237,-3.6237,-3.6237,-3.6237,-3.6237,-3.6195,-3.6041,-3.5975,-3.5834,-3.5271,-3.5527,-3.5659,-3.4499,-3.4585,-3.4941,-3.4919,-3.5277,-3.56,-3.56,-3.56,-3.56,-3.56,-3.56,-3.56,-3.56,-3.56,-3.56,-3.56,-3.5537,-3.5365,-3.5013,-3.6124,-3.6517,-3.5426,-3.5689,-3.6771,-3.8737,-3.8292,-3.874,-4.0595,-4.2068,-4.2408,-4.1451,-4.3389,-4.4548,-4.4729,-4.491,-4.4711,-4.4095,-4.4095,-4.4421,-4.5019,-4.5155,-4.5323,-4.5559,-4.6459,-4.6954,-4.7247,-4.8808,-5.0039,-5.0993,-5.1516,-5.1385,-5.0881,-5.0336,-4.9339,-4.8198,-4.1221,-4.1221,-4.1221,-4.1221,-4.1221,-4.1267,-4.1363,-4.1458,-4.1569,-4.1719,-4.1827,-4.1931,-4.1931,-4.1931,-4.1931,-4.1931,-4.1913,-4.1895,-4.1895,-4.2145,-4.2111,-4.1663,-4.1306,-4.0538,-3.9324,-3.8967,-3.8359,-3.7447,-3.7239,-3.7143,-3.7143,-3.7046,-3.7007,-3.7007,-3.7007,-3.7007,-3.6987,-3.6869,-3.6846,-3.6809,-3.667,-3.6568,-3.6482,-3.6482,-3.6402,-3.6301,-3.6301,-3.6301,-3.6301,-3.6301,-3.6301,-3.6301,-3.6301,-3.6301,-3.6349,-3.662,-3.6401,-3.6015,-3.5604,-3.6032,-3.6392,-3.5548,-3.5882,-3.6295,-3.5883,-3.6033,-3.6231,-3.6231,-3.5898,-3.56,-3.56,-3.56,-3.56,-3.56,-3.5972,-3.6096,-3.574,-3.6106,-3.6351,-3.6224,-3.7092,-3.7641,-3.7551,-3.7985,-3.881,-4.0091,-4.0119,-4.0539,-4.1627,-4.3572,-4.3914,-4.2303,-4.4222,-4.5128,-4.4747,-4.4747,-4.4711,-4.4639,-4.4639,-4.5073,-4.5852,-4.5912,-4.615,-4.6531,-4.7088,-4.751,-4.7931,-4.8908,-5.0049,-5.1153,-5.1307,-5.1087,-5.0627,-5.006,-4.9026,-4.7907,-4.1604,-4.1604,-4.1604,-4.1604,-4.1604,-4.1604,-4.1648,-4.1784,-4.1917,-4.1956,-4.2145,-4.2308,-4.2308,-4.2308,-4.2308,-4.2308,-4.2082,-4.1977,-4.1977,-4.2166,-4.2308,-4.2308,-4.1645,-4.086,-3.9912,-3.9075,-3.8272,-3.7595,-3.7428,-3.7353,-3.7334,-3.7182,-3.7087,-3.7087,-3.7087,-3.7087,-3.7105,-3.7066,-3.7046,-3.7046,-3.7007,-3.6888,-3.6725,-3.6722,-3.6544,-3.636,-3.6322,-3.6301,-3.6301,-3.6301,-3.6387,-3.6473,-3.6473,-3.6559,-3.6784,-3.7478,-3.7154,-3.6535,-3.6414,-3.6672,-3.7033,-3.7274,-3.7681,-3.7916,-3.7267,-3.7155,-3.7206,-3.7206,-3.6548,-3.5949,-3.5847,-3.5791,-3.5825,-3.5966,-3.6424,-3.6667,-3.6225,-3.6728,-3.7274,-3.7752,-3.8425,-3.9224,-4.0146,-4.0896,-4.1139,-4.0727,-4.1709,-4.2192,-4.1928,-4.4063,-4.4621,-4.3118,-4.4639,-4.5091,-4.4277,-4.4277,-4.4747,-4.5653,-4.5653,-4.6087,-4.6866,-4.6866,-4.7174,-4.7717,-4.7819,-4.8263,-4.892,-4.9242,-5.0167,-5.135,-5.0929,-5.0753,-5.0593,-4.9567,-4.8849,-4.83,-4.1604,-4.1604,-4.1604,-4.1604,-4.1604,-4.167,-4.1827,-4.1892,-4.1977,-4.2225,-4.2267,-4.2308,-4.2308,-4.2308,-4.2308,-4.2308,-4.2267,-4.2246,-4.2246,-4.2287,-4.2308,-4.2308,-4.2183,-4.1413,-3.993,-3.8504,-3.7738,-3.7595,-3.7576,-3.754,-3.754,-3.7522,-3.7503,-3.7503,-3.7503,-3.7503,-3.7503,-3.7334,-3.7259,-3.7239,-3.7066,-3.6987,-3.6928,-3.6766,-3.6664,-3.6602,-3.6381,-3.6301,-3.6301,-3.6301,-3.6749,-3.7323,-3.7323,-3.7754,-3.8267,-3.8387,-3.8336,-3.8089,-3.7452,-3.6418,-3.5832,-3.7124,-3.699,-3.6668,-3.7161,-3.7701,-3.8088,-3.8088,-3.7876,-3.7511,-3.6899,-3.6695,-3.6852,-3.7596,-3.6661,-3.6305,-3.7706,-3.7439,-3.7067,-3.7001,-3.9329,-4.0771,-4.0326,-4.1217,-4.2534,-4.4339,-4.3182,-4.334,-4.5552,-4.5432,-4.4874,-4.3932,-4.5472,-4.5924,-4.5128,-4.511,-4.5852,-4.7337,-4.7337,-4.7753,-4.8529,-4.8529,-4.8203,-4.7717,-4.7717,-4.7811,-4.8028,-4.9516,-4.9889,-4.9658,-5.0946,-5.1043,-5.037,-4.9526,-4.9542,-4.9833,-4.2629,-4.2629,-4.2487,-4.2044,-4.1995,-4.2016,-4.2103,-4.2251,-4.2376,-4.2494,-4.2671,-4.2728,-4.2534,-4.2514,-4.2472,-4.2308,-4.2308,-4.2308,-4.2308,-4.2308,-4.2308,-4.2308,-4.2308,-4.1752,-4.0574,-3.904,-3.8255,-3.8255,-3.7809,-3.7595,-3.7595,-3.7595,-3.7595,-3.7595,-3.7595,-3.7595,-3.7595,-3.7503,-3.7466,-3.7466,-3.7354,-3.7184,-3.7007,-3.7025,-3.6788,-3.6502,-3.6502,-3.67,-3.696,-3.696,-3.7478,-3.8099,-3.8099,-3.8341,-3.8663,-3.9077,-3.8905,-3.8594,-3.8663,-3.8163,-3.7784,-3.8491,-3.871,-3.8699,-3.8613,-3.8797,-3.9003,-3.9003,-3.8578,-3.8069,-3.7659,-3.7393,-3.7477,-3.8231,-3.7633,-3.7505,-3.882,-3.8772,-3.8971,-3.9969,-4.1248,-4.2333,-4.3082,-4.3895,-4.4623,-4.5253,-4.4861,-4.5165,-4.6429,-4.5743,-4.5327,-4.5399,-4.5689,-4.5888,-4.5943,-4.6377,-4.7409,-4.8985,-4.8116,-4.8113,-4.8873,-4.8438,-4.804,-4.7717,-4.7717,-4.7717,-4.7772,-4.8557,-4.8986,-4.9213,-5.0466,-5.0769,-5.0522,-5.0576,-5.0558,-5.0391,-4.3319,-4.3381,-4.3245,-4.2618,-4.2512,-4.2512,-4.2512,-4.2691,-4.2807,-4.2807,-4.3032,-4.3105,-4.2845,-4.2912,-4.2902,-4.268,-4.2616,-4.2573,-4.2573,-4.2415,-4.2308,-4.2308,-4.2109,-4.1716,-4.1109,-3.9771,-3.9056,-3.9056,-3.8272,-3.788,-3.7862,-3.7702,-3.7595,-3.7595,-3.7595,-3.7702,-3.788,-3.788,-3.7988,-3.813,-3.813,-3.7961,-3.7692,-3.7789,-3.7516,-3.7071,-3.7186,-3.7502,-3.7858,-3.7858,-3.8343,-3.8965,-3.901,-3.9274,-3.9673,-4.0176,-4.0003,-3.9687,-3.9681,-3.9836,-4.0008,-4.0181,-4.0705,-4.105,-4.0595,-4.0479,-4.0449,-4.0449,-3.9729,-3.907,-3.8888,-3.8474,-3.8421,-3.9255,-3.8957,-3.9033,-4.0304,-4.0442,-4.1109,-4.2955,-4.3328,-4.4088,-4.5711,-4.6426,-4.6613,-4.6178,-4.654,-4.6939,-4.7319,-4.6395,-4.6142,-4.6757,-4.6178,-4.616,-4.6776,-4.7591,-4.8695,-5.0093,-4.8659,-4.8294,-4.8873,-4.8257,-4.788,-4.7717,-4.7717,-4.7717,-4.7696,-4.7916,-4.8394,-4.9135,-4.9983,-5.0547,-5.0871,-5.1331,-5.1352,-5.1135,-4.2782,-4.301,-4.3196,-4.3142,-4.3123,-4.3123,-4.3123,-4.3142,-4.316,-4.316,-4.3178,-4.3178,-4.3178,-4.3534,-4.3792,-4.3772,-4.3542,-4.3408,-4.3408,-4.2715,-4.2308,-4.2308,-4.1591,-4.1163,-4.1092,-4.0271,-3.9805,-3.9805,-3.9093,-3.8719,-3.8701,-3.7952,-3.7595,-3.7595,-3.7595,-3.8005,-3.8719,-3.8719,-3.9092,-3.9716,-3.9716,-3.9697,-3.9658,-3.9501,-3.9403,-3.9302,-3.8961,-3.8864,-3.8894,-3.8894,-3.9382,-4.003,-4.0267,-4.1336,-4.2449,-4.2265,-4.2497,-4.2396,-4.0267,-4.0233,-4.0981,-4.1671,-4.1895,-4.2102,-4.2792,-4.2948,-4.2948,-4.2948,-4.2186,-4.1454,-4.1202,-4.0441,-4.0259,-4.1531,-4.0496,-4.0362,-4.2769,-4.2445,-4.2447,-4.3843,-4.515,-4.6145,-4.6656,-4.7261,-4.7916,-4.8565,-4.8007,-4.8261,-4.9767,-4.8369,-4.7554,-4.7627,-4.7554,-4.7554,-4.7627,-4.8402,-4.9257,-5.0093,-4.922,-4.8837,-4.8891,-4.8837,-4.8384,-4.7717,-4.7717,-4.7717,-4.7772,-4.8493,-4.8858,-4.9003,-4.9804,-5.07,-5.1441,-5.0763,-5.1566,-5.2758,-4.5553,-4.5644,-4.5587,-4.5089,-4.4997,-4.4997,-4.4997,-4.4712,-4.4484,-4.4385,-4.4521,-4.4521,-4.4212,-4.4803,-4.5149,-4.4977,-4.4861,-4.4601,-4.4093,-4.3767,-4.3213,-4.2325,-4.2002,-4.1841,-4.1841,-4.1056,-4.0762,-4.0954,-3.966,-3.9283,-3.9768,-3.8977,-3.8743,-3.904,-3.904,-3.92,-3.9467,-3.9467,-3.9627,-3.9895,-3.9895,-3.9836,-3.972,-3.9759,-3.9759,-3.9702,-3.9458,-3.9717,-4.0143,-4.0003,-4.074,-4.1796,-4.1885,-4.2627,-4.3424,-4.3166,-4.3232,-4.3145,-4.2151,-4.2102,-4.2396,-4.2672,-4.2741,-4.2827,-4.3138,-4.3189,-4.3189,-4.3189,-4.2915,-4.2686,-4.2812,-4.2369,-4.2381,-4.3608,-4.2763,-4.2647,-4.4608,-4.4211,-4.425,-4.5712,-4.6741,-4.737,-4.747,-4.8508,-4.9112,-4.8909,-4.9075,-4.9456,-5.0075,-4.951,-4.8731,-4.7735,-4.8677,-4.8949,-4.8438,-4.8746,-4.9311,-5.0093,-4.9293,-4.9166,-4.9637,-4.9637,-4.9474,-4.9148,-4.8659,-4.8438,-4.8514,-4.9311,-4.9347,-4.9094,-5.0939,-5.1926,-5.2372,-5.2656,-5.3591,-5.4558,-4.7061,-4.7131,-4.7031,-4.6487,-4.6376,-4.6376,-4.6376,-4.6075,-4.5801,-4.5714,-4.5792,-4.5761,-4.5434,-4.5985,-4.6287,-4.6102,-4.6026,-4.5732,-4.5184,-4.4692,-4.3867,-4.2627,-4.2571,-4.2532,-4.2432,-4.1895,-4.1685,-4.182,-4.047,-4.0074,-4.0614,-3.9805,-3.9585,-3.9895,-3.9895,-4.0037,-4.0289,-4.0289,-4.0431,-4.0646,-4.0646,-4.0626,-4.0608,-4.0726,-4.0823,-4.0843,-4.067,-4.1092,-4.1729,-4.1534,-4.2286,-4.3291,-4.3341,-4.3898,-4.4557,-4.4746,-4.47,-4.4536,-4.4269,-4.4163,-4.4054,-4.3654,-4.3724,-4.3871,-4.3871,-4.3871,-4.3871,-4.3871,-4.3815,-4.3896,-4.4249,-4.4072,-4.416,-4.507,-4.4636,-4.4748,-4.6359,-4.614,-4.6415,-4.7949,-4.8488,-4.8714,-4.8629,-4.9521,-4.9963,-4.9691,-4.9927,-5.0112,-5.0112,-4.9854,-4.9329,-4.8478,-4.9021,-4.9202,-4.8891,-4.9166,-4.9546,-5.0093,-4.9546,-4.9564,-5.0112,-5.0112,-5.0112,-5.0075,-4.9528,-4.942,-4.9709,-5.0234,-5.0452,-5.0578,-5.2282,-5.3176,-5.3585,-5.4259,-5.496,-5.5507,-4.6538,-4.6783,-4.7022,-4.7022,-4.7022,-4.7022,-4.7022,-4.7022,-4.7022,-4.7022,-4.6836,-4.6725,-4.6707,-4.7027,-4.7224,-4.7224,-4.6963,-4.6827,-4.6809,-4.5294,-4.4053,-4.3251,-4.3214,-4.3032,-4.2711,-4.2711,-4.2573,-4.2308,-4.1484,-4.1109,-4.1092,-4.0289,-3.9895,-3.9912,-3.9912,-4.036,-4.1109,-4.1109,-4.1573,-4.2308,-4.2308,-4.2454,-4.2711,-4.2711,-4.292,-4.3178,-4.2921,-4.3159,-4.3617,-4.3617,-4.3921,-4.4356,-4.4555,-4.5207,-4.6133,-4.7271,-4.732,-4.691,-4.6436,-4.6249,-4.5912,-4.4629,-4.4872,-4.5397,-4.5397,-4.5397,-4.5397,-4.5414,-4.5202,-4.5159,-4.5619,-4.551,-4.5449,-4.5865,-4.592,-4.6489,-4.8104,-4.8324,-4.8891,-5.0421,-5.0498,-5.0353,-5.021,-5.0137,-5.0456,-5.123,-5.0583,-5.013,-5.013,-4.9365,-4.9293,-5.0093,-4.8568,-4.8094,-4.8891,-4.9691,-5.0093,-5.0093,-5.0112,-5.0112,-5.0112,-5.013,-5.013,-5.013,-5.0112,-5.0583,-5.1303,-5.1303,-5.2263,-5.3693,-5.3711,-5.4254,-5.5025,-5.5166,-5.5281,-5.5391,-4.8891,-4.8971,-4.9031,-4.9031,-4.9031,-4.9031,-4.9031,-4.8559,-4.8194,-4.8191,-4.8132,-4.8064,-4.7966,-4.8551,-4.8906,-4.8768,-4.8667,-4.8342,-4.7703,-4.6609,-4.5855,-4.5536,-4.4014,-4.3142,-4.305,-4.2807,-4.2769,-4.2938,-4.1878,-4.1674,-4.2215,-4.1405,-4.1217,-4.1573,-4.1573,-4.1716,-4.193,-4.193,-4.2073,-4.2328,-4.2494,-4.2634,-4.2785,-4.3593,-4.4072,-4.436,-4.4674,-4.4868,-4.497,-4.4732,-4.4961,-4.5508,-4.6352,-4.6976,-4.7402,-4.7557,-4.7467,-4.7216,-4.6887,-4.6501,-4.601,-4.526,-4.5225,-4.5397,-4.5397,-4.5397,-4.5552,-4.6148,-4.6499,-4.6797,-4.7239,-4.8029,-4.8374,-4.7679,-4.8581,-4.9315,-4.9205,-4.9701,-5.0153,-5.0425,-5.093,-5.0951,-5.0214,-5.1126,-5.1647,-5.1303,-5.1593,-5.1774,-5.1774,-5.1556,-5.1285,-5.0941,-5.047,-5.0071,-4.9745,-4.942,-4.9275,-4.9275,-5.0397,-5.0923,-5.0959,-5.152,-5.1774,-5.1737,-5.1176,-5.1393,-5.219,-5.2752,-5.3277,-5.3802,-5.4888,-5.5523,-5.5843,-5.5891,-5.6398,-5.7055,-4.9912,-4.9912,-4.9912,-4.9912,-4.9912,-4.9912,-4.9912,-4.9542,-4.9296,-4.9296,-4.9302,-4.9391,-4.9651,-4.9695,-4.9788,-5.0014,-4.9645,-4.9162,-4.8596,-4.771,-4.7018,-4.6589,-4.5244,-4.4304,-4.3832,-4.3634,-4.3415,-4.3214,-4.2504,-4.243,-4.2883,-4.2412,-4.2354,-4.265,-4.265,-4.2591,-4.2454,-4.2454,-4.2651,-4.2996,-4.3158,-4.3516,-4.407,-4.4766,-4.522,-4.5502,-4.5843,-4.6067,-4.6211,-4.6003,-4.647,-4.7291,-4.8097,-4.8506,-4.8666,-4.8611,-4.8256,-4.7781,-4.7452,-4.7057,-4.6607,-4.5887,-4.5563,-4.5483,-4.5793,-4.5862,-4.6086,-4.6889,-4.7596,-4.8172,-4.8443,-4.9482,-5.0073,-4.9404,-5.0141,-5.0747,-5.0583,-5.0908,-5.1227,-5.1329,-5.1723,-5.1762,-5.1108,-5.1919,-5.2299,-5.181,-5.1919,-5.2027,-5.2027,-5.1719,-5.1321,-5.0832,-5.0836,-5.0601,-5.0112,-4.9927,-4.9854,-4.9872,-5.1158,-5.1756,-5.1774,-5.2281,-5.2498,-5.248,-5.2317,-5.2715,-5.3512,-5.4291,-5.4798,-5.5178,-5.6102,-5.6514,-5.6587,-5.6679,-5.7085,-5.7625,-5.012,-5.012,-5.012,-5.012,-5.012,-5.012,-5.0147,-5.0304,-5.0441,-5.0458,-5.0466,-5.0769,-5.1576,-5.0666,-5.0301,-5.0988,-5.0063,-4.9464,-4.9536,-4.8684,-4.7769,-4.6953,-4.6813,-4.6207,-4.5084,-4.4884,-4.4322,-4.3342,-4.3251,-4.3214,-4.3214,-4.3214,-4.3214,-4.3214,-4.3214,-4.3086,-4.2858,-4.2858,-4.3347,-4.4164,-4.4165,-4.491,-4.6007,-4.6099,-4.6329,-4.6624,-4.668,-4.6975,-4.7298,-4.7279,-4.8157,-4.9299,-4.9614,-4.9766,-4.9897,-5.0138,-4.9564,-4.8735,-4.8317,-4.8036,-4.7641,-4.6755,-4.6122,-4.5839,-4.6458,-4.6665,-4.6924,-4.7638,-4.8607,-4.9317,-4.9317,-5.0246,-5.0967,-5.082,-5.093,-5.1261,-5.1903,-5.1967,-5.2133,-5.2733,-5.2698,-5.2604,-5.2521,-5.2498,-5.2498,-5.2498,-5.181,-5.1393,-5.1393,-5.0705,-5.0311,-5.0311,-5.0311,-5.0311,-5.0311,-5.1031,-5.1357,-5.1303,-5.2118,-5.2498,-5.2498,-5.2498,-5.2498,-5.2534,-5.3349,-5.4164,-5.4961,-5.5703,-5.6464,-5.7188,-5.7188,-5.7188,-5.7213,-5.7356,-5.7406,-5.7388,-5.1883,-5.1869,-5.1869,-5.1869,-5.1869,-5.1906,-5.2075,-5.212,-5.2236,-5.2527,-5.2549,-5.2616,-5.2809,-5.2604,-5.2138,-5.137,-5.0375,-5.0005,-5.0549,-4.9788,-4.9126,-4.8688,-4.8639,-4.8133,-4.7078,-4.5595,-4.4684,-4.4448,-4.3596,-4.3214,-4.3214,-4.3214,-4.3214,-4.3214,-4.3214,-4.3506,-4.4015,-4.4015,-4.4507,-4.5273,-4.548,-4.5754,-4.6099,-4.6991,-4.7372,-4.7516,-4.8147,-4.827,-4.8107,-4.7896,-4.8594,-4.9614,-4.9672,-5.0323,-5.1046,-5.1101,-5.0898,-5.062,-5.0508,-5.016,-4.971,-4.9394,-4.8663,-4.7743,-4.6817,-4.7062,-4.7655,-4.8396,-4.9398,-5.0138,-5.0131,-5.1534,-5.227,-5.1004,-5.1867,-5.2527,-5.205,-5.2525,-5.2859,-5.2809,-5.2783,-5.269,-5.2521,-5.2498,-5.2498,-5.2498,-5.2335,-5.2226,-5.2226,-5.2063,-5.1973,-5.1973,-5.1973,-5.1973,-5.1973,-5.2154,-5.1919,-5.1303,-5.2118,-5.2498,-5.2498,-5.2498,-5.2498,-5.2534,-5.3349,-5.4164,-5.4961,-5.5703,-5.6464,-5.7188,-5.7188,-5.7188,-5.7188,-5.7213,-5.7307,-5.7388,-5.247,-5.2456,-5.2442,-5.2419,-5.2385,-5.247,-5.2673,-5.2773,-5.292,-5.3167,-5.3281,-5.35,-5.3925,-5.3513,-5.3068,-5.2755,-5.1527,-5.1028,-5.1711,-5.0529,-4.965,-4.9305,-4.9228,-4.8909,-4.8296,-4.6897,-4.5996,-4.5608,-4.5047,-4.4775,-4.4775,-4.4775,-4.4775,-4.4775,-4.4775,-4.4909,-4.5168,-4.5168,-4.5645,-4.6434,-4.6562,-4.6926,-4.7438,-4.804,-4.8277,-4.8333,-4.876,-4.9026,-4.9252,-4.9527,-5.0266,-5.1082,-5.1082,-5.1491,-5.1974,-5.1974,-5.1603,-5.1213,-5.1213,-5.0967,-5.0652,-5.0386,-4.9901,-4.9305,-4.8277,-4.8134,-4.843,-4.9189,-5.0224,-5.0976,-5.0952,-5.2205,-5.291,-5.2087,-5.2656,-5.3188,-5.3151,-5.3127,-5.3335,-5.3953,-5.3653,-5.3467,-5.366,-5.3697,-5.3691,-5.3639,-5.3365,-5.3311,-5.3621,-5.2915,-5.2679,-5.3059,-5.2697,-5.2498,-5.2498,-5.2878,-5.286,-5.2444,-5.286,-5.3277,-5.3639,-5.3639,-5.3639,-5.3693,-5.4454,-5.5033,-5.5486,-5.6247,-5.6808,-5.7188,-5.7188,-5.7188,-5.7188,-5.7188,-5.7239,-5.7289,-5.3014,-5.3014,-5.2987,-5.2916,-5.2916,-5.3011,-5.3193,-5.3368,-5.3524,-5.3658,-5.3816,-5.4194,-5.4929,-5.4061,-5.3705,-5.4402,-5.29,-5.2196,-5.2864,-5.1307,-5.0212,-4.9843,-4.972,-4.9558,-4.9336,-4.8537,-4.7646,-4.6717,-4.6568,-4.6494,-4.6494,-4.6494,-4.6494,-4.6494,-4.6494,-4.6414,-4.6299,-4.6299,-4.6797,-4.7572,-4.7572,-4.8104,-4.8909,-4.8909,-4.8909,-4.8927,-4.9057,-4.9633,-5.0432,-5.1156,-5.1936,-5.2605,-5.2605,-5.2698,-5.281,-5.281,-5.2252,-5.164,-5.164,-5.1602,-5.1468,-5.1073,-5.0935,-5.0736,-5.0191,-4.9525,-4.92,-4.9971,-5.091,-5.1644,-5.1719,-5.254,-5.3185,-5.3185,-5.3314,-5.3647,-5.4308,-5.3858,-5.3957,-5.5249,-5.4702,-5.4419,-5.4976,-5.5031,-5.5002,-5.4961,-5.4415,-5.4324,-5.4876,-5.3621,-5.3222,-5.3892,-5.3259,-5.2915,-5.2915,-5.3566,-5.3965,-5.4092,-5.4092,-5.4381,-5.4907,-5.4907,-5.4907,-5.4943,-5.5667,-5.5993,-5.6047,-5.6862,-5.7188,-5.7188,-5.7188,-5.7188,-5.7188,-5.7188,-5.7188,-5.7188,-5.5051,-5.5105,-5.5105,-5.4951,-5.5001,-5.5147,-5.5357,-5.5399,-5.547,-5.5601,-5.5627,-5.5722,-5.5818,-5.493,-5.466,-5.5516,-5.3879,-5.3077,-5.3703,-5.2857,-5.2085,-5.1571,-5.1539,-5.1376,-5.1063,-5.0228,-4.9039,-4.7534,-4.6828,-4.6494,-4.6494,-4.6494,-4.6494,-4.6494,-4.6494,-4.6867,-4.7465,-4.7465,-4.7947,-4.8671,-4.8671,-4.8763,-4.8909,-4.8909,-4.8909,-4.9002,-4.9689,-5.0488,-5.1249,-5.1361,-5.1936,-5.2605,-5.2605,-5.3088,-5.3645,-5.3645,-5.3552,-5.3459,-5.3459,-5.344,-5.3402,-5.3284,-5.2837,-5.2358,-5.2154,-5.0937,-4.9999,-5.0557,-5.1184,-5.1725,-5.2221,-5.2783,-5.3185,-5.3185,-5.3794,-5.4289,-5.4381,-5.5,-5.5419,-5.54,-5.519,-5.5085,-5.5171,-5.5171,-5.5166,-5.5166,-5.4963,-5.4875,-5.4984,-5.4719,-5.4635,-5.4744,-5.4635,-5.4581,-5.4581,-5.4689,-5.507,-5.5685,-5.5685,-5.5414,-5.4907,-5.4907,-5.4907,-5.4943,-5.5667,-5.5993,-5.6047,-5.6862,-5.7188,-5.7188,-5.7188,-5.7188,-5.7188,-5.7188,-5.7188,-5.7188,-5.6269,-5.601,-5.5671,-5.5504,-5.5919,-5.617,-5.5853,-5.6182,-5.6367,-5.6044,-5.6012,-5.6012,-5.6012,-5.5592,-5.5498,-5.5875,-5.4747,-5.4062,-5.4219,-5.3376,-5.2628,-5.2088,-5.1955,-5.1746,-5.1416,-5.1026,-5.0488,-4.9763,-4.8463,-4.785,-4.785,-4.785,-4.785,-4.785,-4.785,-4.8036,-4.837,-4.837,-4.8574,-4.8909,-4.8909,-4.9169,-4.9577,-4.9577,-4.9875,-5.0395,-5.1212,-5.1751,-5.2141,-5.2587,-5.2977,-5.3274,-5.3274,-5.3515,-5.3813,-5.3813,-5.3813,-5.3813,-5.3813,-5.3813,-5.3905,-5.433,-5.3884,-5.348,-5.3959,-5.3128,-5.2172,-5.1962,-5.2702,-5.3453,-5.3688,-5.4182,-5.4546,-5.4546,-5.484,-5.5225,-5.5684,-5.5775,-5.5929,-5.6261,-5.6521,-5.6661,-5.6661,-5.6661,-5.6614,-5.6543,-5.6077,-5.5951,-5.6316,-5.5432,-5.5088,-5.5504,-5.5106,-5.4907,-5.4907,-5.5305,-5.5667,-5.5993,-5.6446,-5.65,-5.6174,-5.6174,-5.6174,-5.6192,-5.6518,-5.6663,-5.6699,-5.7043,-5.7188,-5.7188,-5.7188,-5.7188,-5.7188,-5.7188,-5.7188,-5.7188]},{"header":{"parameterUnit":"m.s-1","parameterCategory":1,"la1":30.6,"la2":28.766,"lo1":-90.7593,"lo2":-88.6598,"dy":0.0162,"dx":0.0183,"nx":116,"ny":114,"refTime":"2023-11-19T18:00:00:Z","depth":0,"parameterNumber":3,"parameterNumberName":"V-component_of_WINDS"},"data":[0.0,0.0,0.0,0.0,0.0,0.0,0.0,0.0,0.0,0.0,0.0,0.0,0.0,0.0,0.0,0.0,0.0,0.0,0.0,0.0,0.0,0.0,0.0,0.0,0.0,0.0,0.0,0.0,0.0,0.0,0.0,0.0,0.0,0.0,0.0,0.0,0.0,0.0,0.0,0.0,0.0,0.0,0.0,0.0,0.0,0.0,0.0,0.0,0.0,0.0,0.0,0.0,0.0,0.0,0.0,0.0,0.0,0.0,0.0,0.0,0.0,0.0,0.0,0.0,0.0,0.0,0.0,0.0,0.0,0.0,0.0,0.0,0.0,0.0,0.0,0.0,0.0,0.0,0.0,0.0,0.0,0.0,0.0,0.0,0.0,0.0,0.0,0.0,0.0,0.0,0.0,0.0,0.0,0.0,0.0,0.0,0.0,0.0,0.0,0.0,0.0,0.0,0.0,0.0,0.0,0.0,0.0,0.0,0.0,0.0,0.0,0.0,0.0,0.0,0.0,0.0,0.0,0.0,0.0,0.0,0.0,0.0,0.0,0.0,0.0,0.0,0.0,0.0,0.0,0.0,0.0,0.0,0.0,0.0,0.0,0.0,0.0,0.0,0.0,0.0,0.0,0.0,0.0,0.0,0.0,0.0,0.0,0.0,0.0,0.0,0.0,0.0,0.0,0.0,0.0,0.0,0.0,0.0,0.0,0.0,0.0,0.0,0.0,0.0,0.0,0.0,0.0,0.0,0.0,0.0,0.0,0.0,0.0,0.0,0.0,0.0,0.0,0.0,0.0,0.0,0.0,0.0,0.0,0.0,0.0,0.0,0.0,0.0,0.0,0.0,0.0,0.0,0.0,0.0,0.0,0.0,0.0,0.0,0.0,0.0,0.0,0.0,0.0,0.0,0.0,0.0,0.0,0.0,0.0,0.0,0.0,0.0,0.0,0.0,0.0,0.0,0.0,0.0,0.0,0.0,0.0,0.0,0.0,0.0,0.0,0.0,0.0,0.0,0.0,0.0,0.0,0.0,0.0,0.0,0.0,0.0,0.0,0.0,0.0,0.0,0.0,0.0,0.0,0.0,0.0,0.0,0.0,0.0,0.0,0.0,0.0,0.0,0.0,0.0,0.0,0.0,0.0,0.0,0.0,0.0,0.0,0.0,0.0,0.0,0.0,0.0,0.0,0.0,0.0,0.0,0.0,0.0,0.0,0.0,0.0,0.0,0.0,0.0,0.0,0.0,0.0,0.0,0.0,0.0,0.0,0.0,0.0,0.0,0.0,0.0,0.0,0.0,0.0,0.0,0.0,0.0,0.0,0.0,0.0,0.0,0.0,0.0,0.0,0.0,0.0,0.0,0.0,0.0,0.0,0.0,0.0,0.0,0.0,0.0,0.0,0.0,0.0,0.0,0.0,0.0,0.0,0.0,0.0,0.0,0.0,0.0,0.0,0.0,0.0,0.0,0.0,0.0,0.0,0.0,0.0,0.0,0.0,0.0,0.0,0.0,0.0,0.0,0.0,0.0,0.0,0.0,0.0,0.0,0.0,0.0,0.0,0.0,0.0,0.0,0.0,0.0,0.0,0.0,0.0,0.0,0.0,0.0,0.0,0.0,0.0,0.0,0.0,0.0,0.0,0.0,0.0,0.0,0.0,0.0,0.0,0.0,0.0,0.0,0.0,0.0,0.0,0.0,0.0,0.0,0.0,0.0,0.0,0.0,0.0,0.0,0.0,0.0,0.0,0.0,0.0,0.0,0.0,0.0,0.0,0.0,0.0,0.0,0.0,0.0,0.0,0.0,0.0,0.0,0.0,0.0,0.0,0.0,0.0,0.0,0.0,0.0,0.0,0.0,0.0,0.0,0.0,0.0,0.0,0.0,0.0,0.0,0.0,0.0,0.0,0.0,0.0,0.0,0.0,0.0,0.0,0.0,0.0,0.0,0.0,0.0,0.0,0.0,0.0,0.0,0.0,0.0,0.0,0.0,0.0,0.0,0.0,0.0,0.0,0.0,0.0,0.0,0.0,0.0,0.0,0.0,0.0,0.0,0.0,0.0,0.0,0.0,0.0,0.0,0.0,0.0,0.0,0.0,0.0,0.0,0.0,0.0,0.0,0.0,0.0,0.0,0.0,0.0,0.0,0.0,0.0,0.0,0.0,0.0,0.0,0.0,0.0,0.0,0.0,0.0,0.0,0.0,0.0,0.0,0.0,0.0,0.0,0.0,0.0,0.0,0.0,0.0,0.0,0.0,0.0,0.0,0.0,0.0,0.0,0.0,0.0,0.0,0.0,0.0,0.0,0.0,0.0,0.0,0.0,0.0,0.0,0.0,0.0,0.0,0.0,0.0,0.0,0.0,0.0,0.0,0.0,0.0,0.0,0.0,0.0,0.0,0.0,0.0,0.0,0.0,0.0,0.0,0.0,0.0,0.0,0.0,0.0,0.0,0.0,0.0,0.0,0.0,0.0,0.0,0.0,0.0,0.0,0.0,0.0,0.0,0.0,0.0,0.0,0.0,0.0,0.0,0.0,0.0,0.0,0.0,0.0,0.0,0.0,0.0,0.0,0.0,0.0,0.0,0.0,0.0,0.0,0.0,0.0,0.0,0.0,0.0,0.0,0.0,0.0,0.0,0.0,0.0,0.0,0.0,0.0,0.0,0.0,0.0,0.0,0.0,0.0,0.0,0.0,0.0,0.0,0.0,0.0,0.0,0.0,0.0,0.0,0.0,0.0,0.0,0.0,0.0,0.0,0.0,0.0,0.0,0.0,0.0,0.0,0.0,0.0,0.0,0.0,0.0,0.0,0.0,0.0,0.0,0.0,0.0,0.0,0.0,0.0,0.0,0.0,0.0,0.0,0.0,0.0,0.0,0.0,0.0,0.0,0.0,0.0,0.0,0.0,0.0,0.0,0.0,0.0,0.0,0.0,0.0,0.0,0.0,0.0,0.0,0.0,0.0,0.0,0.0,0.0,0.0,0.0,0.0,0.0,0.0,0.0,0.0,0.0,0.0,0.0,0.0,0.0,0.0,0.0,0.0,0.0,0.0,0.0,0.0,0.0,0.0,0.0,0.0,0.0,0.0,0.0,0.0,0.0,0.0,0.0,0.0,0.0,0.0,0.0,0.0,0.0,0.0,0.0,0.0,0.0,0.0,0.0,0.0,0.0,0.0,0.0,0.0,0.0,0.0,0.0,0.0,0.0,0.0,0.0,0.0,0.0,0.0,0.0,0.0,0.0,0.0,0.0,0.0,0.0,0.0,0.0,0.0,0.0,0.0,0.0,0.0,0.0,0.0,0.0,0.0,0.0,0.0,0.0,0.0,0.0,0.0,0.0,0.0,0.0,0.0,0.0,0.0,0.0,0.0,0.0,0.0,0.0,0.0,0.0,0.0,0.0,0.0,0.0,0.0,0.0,0.0,0.0,0.0,0.0,0.0,0.0,0.0,0.0,0.0,0.0,0.0,0.0,0.0,0.0,0.0,0.0,0.0,0.0,0.0,0.0,0.0,0.0,0.0,0.0,0.0,0.0,0.0,0.0,0.0,0.0,0.0,0.0,0.0,0.0,0.0,0.0,0.0,0.0,0.0,0.0,0.0,0.0,0.0,0.0,0.0,0.0,0.0,0.0,0.0,0.0,0.0,0.0,0.0,0.0,0.0,0.0,0.0,0.0,0.0,0.0,0.0,0.0,0.0,0.0,0.0,0.0,0.0,0.0,0.0,0.0,0.0,0.0,0.0,0.0,0.0,0.0,0.0,0.0,0.0,0.0,0.0,0.0,0.0,0.0,0.0,0.0,0.0,0.0,0.0,0.0,0.0,0.0,0.0,0.0,0.0,0.0,0.0,0.0,0.0,0.0,0.0,0.0,0.0,0.0,0.0,0.0,0.0,0.0,0.0,0.0,0.0,0.0,0.0,0.0,0.0,0.0,0.0,0.0,0.0,0.0,0.0,0.0,0.0,0.0,0.0,0.0,0.0,0.0,0.0,0.0,0.0,0.0,0.0,0.0,0.0,0.0,0.0,0.0,0.0,0.0,0.0,0.0,0.0,0.0,0.0,0.0,0.0,0.0,0.0,0.0,0.0,0.0,0.0,0.0,0.0,0.0,0.0,0.0,0.0,0.0,0.0,0.0,0.0,0.0,0.0,0.0,0.0,0.0,0.0,0.0,0.0,0.0,0.0,0.0,0.0,0.0,0.0,0.0,0.0,0.0,0.0,0.0,0.0,0.0,0.0,0.0,0.0,0.0,0.0,0.0,0.0,0.0,0.0,0.0,0.0,0.0,0.0,0.0,0.0,0.0,0.0,0.0,0.0,0.0,0.0,0.0,0.0,0.0,0.0,0.0,0.0,0.0,0.0,0.0,0.0,0.0,0.0,0.0,0.0,0.0,0.0,0.0,0.0,0.0,0.0,0.0,0.0,0.0,0.0,0.0,0.0,0.0,0.0,0.0,0.0,0.0,0.0,0.0,0.0,0.0,0.0,0.0,0.0,0.0,0.0,0.0,0.0,0.0,0.0,0.0,0.0,0.0,0.0,0.0,0.0,0.0,0.0,0.0,0.0,0.0,0.0,0.0,0.0,0.0,0.0,0.0,0.0,0.0,0.0,0.0,0.0,0.0,0.0,0.0,0.0,0.0,0.0,0.0,0.0,0.0,0.0,0.0,0.0,0.0,0.0,0.0,0.0,0.0,0.0,0.0,0.0,0.0,0.0,0.0,0.0,0.0,0.0,0.0,0.0,0.0,0.0,0.0,0.0,0.0,0.0,0.0,0.0,0.0,0.0,0.0,0.0,0.0,0.0,0.0,0.0,0.0,0.0,0.0,0.0,0.0,0.0,0.0,0.0,0.0,0.0,0.0,0.0,0.0,0.0,0.0,0.0,0.0,0.0,0.0,0.0,0.0,0.0,0.0,0.0,0.0,0.0,0.0,0.0,0.0,0.0,0.0,0.0,0.0,0.0,0.0,0.0,0.0,0.0,0.0,0.0,0.0,0.0,0.0,0.0,0.0,0.0,0.0,0.0,0.0,0.0,0.0,0.0,0.0,0.0,0.0,0.0,0.0,0.0,0.0,0.0,0.0,0.0,0.0,0.0,0.0,0.0,0.0,0.0,0.0,0.0,0.0,0.0,0.0,0.0,0.0,0.0,0.0,0.0,0.0,0.0,0.0,0.0,0.0,0.0,0.0,0.0,0.0,0.0,0.0,0.0,0.0,0.0,0.0,0.0,0.0,0.0,0.0,0.0,0.0,0.0,0.0,0.0,0.0,0.0,0.0,0.0,0.0,0.0,0.0,0.0,0.0,0.0,0.0,0.0,0.0,0.0,0.0,0.0,0.0,0.0,0.0,0.0,0.0,0.0,0.0,0.0,0.0,0.0,0.0,0.0,0.0,0.0,0.0,0.0,0.0,0.0,0.0,0.0,0.0,0.0,0.0,0.0,0.0,0.0,0.0,0.0,0.0,0.0,0.0,0.0,0.0,0.0,0.0,0.0,0.0,0.0,0.0,0.0,0.0,0.0,0.0,0.0,0.0,0.0,0.0,0.0,0.0,0.0,0.0,0.0,0.0,0.0,0.0,0.0,0.0,0.0,0.0,0.0,0.0,0.0,0.0,0.0,0.0,0.0,0.0,0.0,0.0,0.0,0.0,0.0,0.0,0.0,0.0,0.0,0.0,0.0,0.0,0.0,0.0,0.0,0.0,0.0,0.0,0.0,0.0,0.0,0.0,0.0,0.0,0.0,0.0,0.0,0.0,0.0,0.0,0.0,0.0,0.0,0.0,0.0,0.0,0.0,0.0,0.0,0.0,0.0,0.0,0.0,0.0,0.0,0.0,0.0,0.0,0.0,0.0,0.0,0.0,0.0,0.0,0.0,0.0,0.0,0.0,0.0,0.0,0.0,0.0,0.0,0.0,0.0,0.0,0.0,0.0,0.0,0.0,0.0,0.0,0.0,0.0,0.0,0.0,0.0,0.0,0.0,0.0,0.0,0.0,0.0,0.0,0.0,0.0,0.0,0.0,0.0,0.0,0.0,0.0,0.0,0.0,0.0,0.0,0.0,0.0,0.0,0.0,0.0,0.0,0.0,0.0,0.0,0.0,0.0,0.0,0.0,1.8022,1.8441,0.0,0.0,0.0,0.0,0.0,0.0,0.0,0.0,0.0,0.0,0.0,0.0,0.0,0.0,0.0,0.0,0.0,0.0,0.0,0.0,0.0,0.0,0.0,0.0,0.0,0.0,0.0,0.0,0.0,0.0,0.0,0.0,0.0,0.0,0.0,0.0,0.0,0.0,1.7692,1.9051,2.0838,2.0222,1.9549,1.881,0.0,0.0,0.0,0.0,0.0,0.0,0.0,0.0,0.0,0.0,0.0,0.0,0.0,0.0,0.0,0.0,0.0,0.0,0.0,0.0,0.0,0.0,0.0,0.0,0.0,0.0,0.0,0.0,0.0,0.0,0.0,0.0,0.0,0.0,0.0,0.0,0.0,0.0,0.0,0.0,0.0,0.0,0.0,0.0,0.0,0.0,0.0,0.0,0.0,0.0,0.0,0.0,0.0,0.0,0.0,0.0,0.0,0.0,0.0,0.0,0.0,0.0,0.0,0.0,0.0,0.0,0.0,0.0,0.0,0.0,2.1411,2.0415,0.0,0.0,0.0,0.0,0.0,0.0,0.0,0.0,0.0,0.0,0.0,0.0,0.0,0.0,0.0,0.0,0.0,0.0,0.0,0.0,0.0,0.0,0.0,1.5322,1.5683,1.6629,1.6567,1.6611,0.0,0.0,0.0,0.0,0.0,0.0,0.0,1.6307,1.6849,1.707,1.8633,2.0668,2.3141,2.3924,2.3678,2.2444,1.9971,0.0,0.0,0.0,0.0,0.0,0.0,0.0,0.0,0.0,0.0,0.0,0.0,0.0,0.0,0.0,0.0,0.0,0.0,0.0,0.0,0.0,0.0,0.0,0.0,0.0,0.0,0.0,0.0,0.0,0.0,0.0,0.0,0.0,0.0,0.0,0.0,0.0,0.0,0.0,0.0,0.0,0.0,0.0,0.0,0.0,0.0,0.0,0.0,0.0,0.0,0.0,0.0,0.0,0.0,0.0,0.0,0.0,0.0,0.0,0.0,0.0,0.0,0.0,2.6829,2.8518,3.0511,3.0373,2.9943,2.9048,2.5494,2.3373,2.2397,2.2236,0.0,0.0,0.0,0.0,0.0,0.0,0.0,0.0,0.0,0.0,0.0,0.0,0.0,0.0,0.0,0.0,0.0,0.0,0.0,0.0,0.0,1.5747,1.6411,1.8141,1.7602,1.7833,1.9404,0.0,0.0,0.0,0.0,0.0,1.6683,1.7853,1.8109,1.735,2.1087,2.4646,2.7997,2.8745,2.9679,3.0492,2.4562,2.3689,2.6458,0.0,0.0,0.0,0.0,0.0,0.0,0.0,0.0,0.0,0.0,0.0,0.0,0.0,0.0,0.0,0.0,0.0,0.0,0.0,0.0,0.0,0.0,0.0,0.0,0.0,0.0,0.0,0.0,0.0,0.0,0.0,0.0,0.0,0.0,0.0,0.0,0.0,0.0,0.0,0.0,0.0,1.8341,1.8457,0.0,0.0,0.0,0.0,0.0,0.0,0.0,0.0,0.0,0.0,0.0,0.0,0.0,2.5183,2.4321,2.653,2.7887,2.8359,2.8413,2.9026,3.0145,2.9506,2.9144,2.9023,2.8683,0.0,2.5207,2.4611,0.0,0.0,0.0,0.0,0.0,0.0,0.0,0.0,0.0,0.0,0.0,0.0,0.0,0.0,0.0,0.0,0.0,0.0,0.0,0.0,0.0,1.7781,1.908,1.9975,2.2544,2.3189,2.1033,2.1347,2.0425,1.7726,1.786,1.7793,1.7304,1.9238,2.1154,2.295,2.5842,2.8517,3.0936,3.1779,3.258,3.3114,2.9852,2.8287,2.7919,2.5526,0.0,0.0,0.0,0.0,0.0,0.0,0.0,0.0,0.0,0.0,0.0,0.0,0.0,0.0,0.0,0.0,0.0,0.0,0.0,0.0,0.0,0.0,0.0,0.0,0.0,0.0,0.0,0.0,0.0,0.0,0.0,0.0,0.0,0.0,0.0,0.0,0.0,0.0,0.0,1.9957,2.1004,2.0044,2.1481,2.207,0.0,0.0,0.0,0.0,0.0,0.0,0.0,0.0,0.0,2.4123,2.6828,2.7785,2.6724,2.8973,3.024,3.0489,3.08,3.1655,3.2901,3.2577,3.2366,3.2273,3.2424,3.1072,2.8676,2.7312,2.6133,2.4993,0.0,0.0,0.0,0.0,2.2023,2.296,0.0,0.0,0.0,0.0,0.0,0.0,0.0,0.0,0.0,0.0,0.0,0.0,1.841,2.0381,2.2161,2.3444,2.6554,2.6908,2.3275,2.3702,2.228,1.8252,1.8546,1.866,1.8339,2.0899,2.4092,2.7918,2.9799,3.1911,3.4127,3.4832,3.5586,3.6233,3.539,3.335,3.035,2.8242,2.6593,2.5197,0.0,0.0,0.0,0.0,0.0,0.0,0.0,0.0,0.0,0.0,0.0,0.0,0.0,0.0,0.0,0.0,0.0,0.0,0.0,0.0,0.0,0.0,0.0,0.0,0.0,0.0,0.0,0.0,0.0,0.0,0.0,0.0,0.0,0.0,0.0,0.0,0.0,2.1931,2.2847,2.1295,2.3486,2.4605,0.0,0.0,0.0,0.0,0.0,0.0,2.4802,2.6449,2.7457,2.7664,2.9403,2.992,2.9011,3.0957,3.2013,3.223,3.2763,3.3723,3.4985,3.5044,3.4936,3.4734,3.4849,3.3819,3.1916,2.9943,2.8111,2.6468,2.5549,2.5182,2.5083,2.442,2.5152,2.645,0.0,0.0,0.0,0.0,0.0,0.0,0.0,0.0,0.0,0.0,0.0,2.0089,2.3034,2.3366,2.5143,2.955,2.7448,2.6176,2.6861,2.3581,2.1481,2.1271,1.9682,1.9294,2.0334,2.305,2.6133,2.9592,3.1514,3.4546,3.8492,3.8605,4.0005,4.2396,4.1082,3.9094,3.645,3.2061,3.082,3.1438,2.6966,0.0,0.0,0.0,0.0,0.0,0.0,0.0,0.0,0.0,0.0,0.0,0.0,0.0,0.0,0.0,0.0,0.0,0.0,0.0,0.0,0.0,0.0,0.0,0.0,0.0,0.0,0.0,0.0,0.0,0.0,0.0,0.0,0.0,0.0,0.0,0.0,0.0,0.0,2.2036,2.4476,0.0,0.0,0.0,0.0,2.5402,2.6602,2.7697,2.8576,2.9333,3.0072,3.0825,3.1821,3.2326,3.2271,3.3137,3.3601,3.3611,3.3644,3.3994,3.4633,3.4825,3.4796,3.4622,3.4809,3.4836,3.4532,3.2264,3.0075,2.8121,2.8567,2.8779,2.877,2.815,2.7953,2.7904,0.0,0.0,0.0,0.0,0.0,0.0,0.0,0.0,1.8745,1.8608,2.0839,2.2649,2.3194,2.7524,3.0921,3.2214,3.4024,3.382,3.0817,2.8459,2.6021,2.3338,2.1545,2.2231,2.5713,2.7493,3.0444,3.4659,3.5781,3.7512,3.9784,4.0013,4.0829,4.2122,4.1851,4.1212,4.0035,3.6201,3.3469,3.1425,2.8052,2.5222,0.0,0.0,0.0,0.0,0.0,0.0,0.0,0.0,0.0,0.0,0.0,0.0,0.0,0.0,0.0,0.0,0.0,0.0,0.0,0.0,0.0,0.0,0.0,0.0,0.0,0.0,0.0,0.0,0.0,0.0,0.0,0.0,0.0,0.0,0.0,0.0,0.0,2.7329,2.9619,0.0,2.9176,2.8417,2.8519,2.975,2.9816,3.017,3.0975,3.1362,3.1898,3.2624,3.3445,3.3636,3.3226,3.4012,3.3998,3.3198,3.3618,3.3927,3.4155,3.4173,3.4127,3.3925,3.3517,3.3303,3.3152,3.2309,3.1113,2.9797,2.9093,2.8576,2.8312,2.8757,2.9223,2.952,0.0,0.0,0.0,0.0,0.0,0.0,0.0,0.0,1.9643,1.9751,2.2689,2.5163,2.6127,3.1123,3.4842,3.5949,3.7753,3.716,3.3175,3.0957,2.823,2.4744,2.4113,2.5522,2.9116,3.1197,3.3805,3.7104,3.8216,3.9314,4.0362,4.0621,4.1331,4.2412,4.2734,4.2804,4.257,4.0336,3.7151,3.3404,3.0638,2.8814,2.739,0.0,0.0,0.0,0.0,0.0,0.0,0.0,0.0,0.0,0.0,0.0,0.0,0.0,0.0,0.0,0.0,0.0,0.0,0.0,0.0,0.0,0.0,0.0,0.0,0.0,0.0,0.0,0.0,0.0,0.0,0.0,0.0,0.0,0.0,2.7835,3.0312,3.0975,3.3348,3.4393,3.2965,3.2407,3.2317,3.2805,3.2686,3.2675,3.2883,3.2922,3.3116,3.3518,3.3835,3.3818,3.3371,3.3906,3.3835,3.3256,3.368,3.3851,3.3783,3.3984,3.3847,3.349,3.3223,3.3035,3.284,3.2381,3.1757,3.1057,3.0207,2.9552,2.9189,2.9923,3.0499,3.0744,0.0,0.0,0.0,0.0,0.0,0.0,0.0,1.9883,2.0726,2.1624,2.4149,2.7584,3.2155,3.4064,3.6721,4.0905,3.8107,3.5447,3.3947,3.0552,2.7658,2.5547,2.728,2.8951,3.0355,3.3839,3.5967,3.6615,3.8585,3.9858,4.0482,4.0562,4.1749,4.3814,4.41,4.4207,4.4207,4.4303,4.2007,3.7994,3.501,3.4189,3.4078,0.0,0.0,0.0,0.0,0.0,0.0,0.0,0.0,0.0,0.0,0.0,0.0,0.0,0.0,0.0,0.0,0.0,0.0,0.0,0.0,0.0,0.0,0.0,0.0,0.0,0.0,0.0,0.0,0.0,0.0,0.0,0.0,0.0,2.6987,2.9745,3.1993,3.2645,3.529,3.6141,3.3749,3.5235,3.5763,3.4329,3.5061,3.5194,3.4298,3.3941,3.3707,3.3604,3.3145,3.2901,3.2905,3.2889,3.3216,3.3846,3.3889,3.38,3.3607,3.4268,3.4095,3.3314,3.3936,3.4095,3.3848,3.2609,3.1944,3.1813,3.2046,3.1904,3.1659,3.1836,3.1803,3.1429,0.0,0.0,0.0,0.0,0.0,0.0,0.0,1.9847,2.0926,2.258,2.6387,3.0202,3.3477,3.7659,4.0942,4.2699,3.9997,3.7878,3.7237,3.1759,2.7968,2.6755,2.9093,3.1606,3.406,3.5997,3.7786,3.9382,3.9936,4.0315,4.0489,4.0658,4.1866,4.3894,4.42,4.516,4.6533,4.6146,4.5286,4.3761,3.8168,3.508,3.343,0.0,0.0,0.0,0.0,0.0,0.0,0.0,0.0,0.0,0.0,0.0,0.0,0.0,0.0,0.0,0.0,0.0,0.0,0.0,0.0,0.0,0.0,0.0,0.0,0.0,0.0,0.0,0.0,0.0,0.0,0.0,2.7608,2.9622,2.9849,3.2842,3.5687,3.7502,3.8452,3.876,3.8201,3.7676,3.7263,3.6941,3.5803,3.5207,3.5491,3.4005,3.33,3.3662,3.3033,3.2862,3.3259,3.2791,3.2601,3.2743,3.3772,3.3963,3.3399,3.3944,3.3753,3.3009,3.255,3.2322,3.2237,3.1698,3.1499,3.1378,3.073,3.0133,2.972,3.0106,2.9848,2.9275,0.0,0.0,0.0,0.0,0.0,0.0,0.0,2.0371,2.1663,2.4059,2.777,3.1416,3.4617,3.8559,4.1134,4.1587,3.9234,3.7014,3.5425,3.1262,2.8988,2.9312,3.2012,3.4627,3.7046,3.8196,3.9339,4.0489,4.0489,4.0489,4.0489,4.0904,4.207,4.386,4.4704,4.5941,4.7392,4.7412,4.73,4.67,4.2573,4.0241,3.8857,3.5029,3.3632,3.3335,3.0396,3.0365,3.1091,2.6888,0.0,0.0,0.0,0.0,0.0,0.0,0.0,0.0,0.0,0.0,0.0,0.0,0.0,0.0,0.0,0.0,0.0,0.0,0.0,0.0,0.0,0.0,0.0,0.0,3.0646,3.2998,3.4029,3.5973,3.7907,3.9617,4.0131,4.0133,3.9723,3.9108,3.8528,3.7949,3.6529,3.5706,3.5764,3.4408,3.3758,3.4032,3.3317,3.3091,3.3394,3.2715,3.2493,3.2738,3.3551,3.3696,3.3273,3.3445,3.3143,3.2439,3.1877,3.1559,3.1485,3.136,3.1235,3.1132,0.0,0.0,0.0,0.0,2.921,2.842,0.0,0.0,0.0,0.0,0.0,0.0,0.0,2.1061,2.2556,2.5696,2.8339,3.1429,3.5333,3.7591,3.8844,3.8871,3.6874,3.4322,3.1213,3.0351,3.0808,3.2695,3.538,3.7607,3.931,4.0089,4.0489,4.0489,4.0489,4.0536,4.0647,4.1301,4.2443,4.4009,4.5471,4.6602,4.7477,4.8266,4.8323,4.7879,4.7138,4.6977,4.6569,4.0946,4.0185,4.1417,3.6087,3.3887,3.3209,3.1139,0.0,0.0,0.0,0.0,0.0,0.0,0.0,0.0,0.0,0.0,0.0,0.0,0.0,0.0,0.0,0.0,0.0,0.0,0.0,0.0,0.0,0.0,0.0,0.0,3.3842,3.6523,3.8565,3.8853,3.9192,4.0119,4.0714,4.0591,3.9425,3.9655,3.9259,3.7817,3.7065,3.6326,3.5466,3.4953,0.0,0.0,0.0,3.3376,3.337,3.2652,3.2573,3.3173,3.3239,3.3191,3.3052,3.2946,3.2511,3.1817,3.1633,3.1434,3.1272,3.1272,3.1161,3.1024,3.1132,3.1029,3.0725,3.0113,2.9278,2.8464,0.0,0.0,0.0,0.0,0.0,0.0,0.0,2.0453,2.2317,2.623,2.7725,3.0048,3.4307,3.6262,3.7482,3.8051,3.5515,3.3261,3.1805,3.3134,3.4478,3.5642,3.7607,3.9179,4.0245,4.0422,4.0489,4.0489,4.0489,4.0782,4.1386,4.214,4.3515,4.5454,4.6447,4.7614,4.8783,4.8682,4.8867,4.9268,4.8643,4.7341,4.5589,4.3781,4.2498,4.1402,3.9611,4.012,4.101,3.6993,3.637,3.6578,3.2692,2.8946,0.0,0.0,0.0,0.0,0.0,0.0,0.0,0.0,0.0,0.0,0.0,0.0,0.0,0.0,0.0,0.0,0.0,0.0,0.0,3.4818,3.7271,3.9221,4.0308,4.0463,4.0744,4.1525,4.0805,4.0135,3.9963,3.9047,3.811,3.7229,3.6383,3.5831,3.5632,3.4959,3.4483,3.4405,3.3755,3.3368,3.3226,3.2574,3.2283,3.2409,3.2954,0.0,3.2155,3.2561,3.2273,3.1384,3.1211,3.1099,3.1061,3.1061,3.1061,3.0947,3.0514,3.0056,2.9572,2.8935,2.8777,2.8776,0.0,0.0,0.0,0.0,0.0,0.0,0.0,2.0365,2.1743,2.4485,2.5726,2.7555,3.0784,3.2568,3.3482,3.344,3.1914,3.1348,3.2343,3.4464,3.6546,3.8438,3.9992,4.1186,4.2001,4.2076,4.1906,4.1492,4.227,4.2667,4.2683,4.3733,4.4984,4.6372,4.7172,4.8135,4.9195,4.9078,4.9306,4.9674,4.9476,4.8706,4.7631,4.6855,4.5754,4.4523,4.3814,4.3663,4.3394,4.0854,4.009,3.9619,3.6253,3.3146,3.0049,0.0,0.0,0.0,0.0,0.0,0.0,0.0,0.0,0.0,0.0,0.0,0.0,0.0,0.0,3.0223,3.1255,0.0,3.5232,3.7129,3.9043,4.0446,4.0843,4.0912,4.092,4.0996,4.0163,3.9481,3.9135,3.8165,3.7359,3.6892,3.6383,3.6106,3.6106,3.5721,3.5309,3.4906,3.4226,3.3626,3.3213,3.2527,3.2352,3.2653,3.2568,3.2486,3.2357,3.2108,3.174,3.1272,3.1099,3.0986,3.0986,3.0986,3.0986,3.096,3.0673,3.0129,2.9509,2.921,2.9048,2.8925,0.0,0.0,0.0,0.0,0.0,0.0,0.0,2.0416,2.1158,2.2663,2.3708,2.5048,2.6995,2.8471,2.9097,2.8604,2.8975,3.043,3.3238,3.5676,3.8238,4.0953,4.2069,4.2969,4.3727,4.3562,4.3281,4.2941,4.4042,4.4432,4.4156,4.5415,4.6391,4.7103,4.7813,4.8504,4.9168,4.9381,4.956,4.9679,4.9906,5.0011,4.9907,4.9227,4.8477,4.7738,4.7019,4.5276,4.3288,4.3232,4.192,4.0076,3.8775,3.673,3.3944,2.954,2.8614,0.0,0.0,0.0,0.0,0.0,0.0,0.0,0.0,2.8093,2.8856,3.1474,3.2262,3.2993,3.4671,3.6301,3.7801,3.9065,4.0549,4.1464,4.117,4.1119,4.0882,4.0237,3.961,3.8947,3.8282,3.7478,3.6908,3.6693,3.6554,3.6492,3.6492,3.6492,3.6116,3.5222,3.4614,3.3871,3.3017,3.248,3.2467,3.3,3.2246,3.2216,3.2798,3.1777,3.1338,3.1393,3.1114,3.0986,3.0986,3.0986,3.0986,3.0986,3.0949,3.0425,2.9651,2.9572,2.9415,2.9119,0.0,0.0,0.0,0.0,0.0,0.0,0.0,0.0,2.1004,2.2834,2.298,2.3478,2.4981,2.572,2.6336,2.6911,2.9971,3.2857,3.5149,3.8036,4.0687,4.2983,4.3272,4.3761,4.4539,4.3286,4.3265,4.4545,4.4075,4.4415,4.5583,4.6386,4.7137,4.7834,4.857,4.8934,4.9032,4.935,4.9518,4.9547,4.9877,5.0011,4.9965,4.9637,4.9021,4.8164,4.7011,4.4565,4.2088,4.3775,4.2371,4.0288,4.2259,4.0357,3.6719,3.3322,2.9979,2.6743,2.3915,2.3913,2.5344,2.8034,2.9266,3.1142,0.0,3.6279,3.5733,3.7417,3.7777,3.781,3.8065,3.9894,4.1429,4.1602,4.2913,4.3448,4.2085,4.1895,4.1612,4.0885,3.9859,3.9038,3.8679,3.7637,3.6877,3.6554,3.6523,3.6492,3.6492,3.6492,3.5879,3.448,3.4346,3.3644,3.23,3.2255,3.238,3.2761,3.2159,3.2281,3.2934,3.1812,3.1474,3.1718,3.1209,3.0986,3.0986,3.0986,3.0986,3.0986,3.0811,3.0088,2.9128,2.8786,2.9202,2.9745,0.0,0.0,0.0,0.0,0.0,0.0,0.0,0.0,0.0,2.0624,2.0898,2.1248,2.1717,2.2636,2.3826,2.5351,2.8486,3.1684,3.4759,3.8186,4.1305,4.3978,4.4142,4.4502,4.5274,4.509,4.5103,4.5319,4.6298,4.688,4.7048,4.7766,4.8291,4.8545,4.8861,4.9001,4.9032,4.9367,4.9518,4.9577,5.02,5.0192,4.9662,4.8911,4.7417,4.5722,4.5217,4.335,0.0,4.1336,4.0864,4.0292,4.0852,3.9475,3.6897,3.3204,3.0957,2.9328,2.7815,2.7273,2.7814,3.0616,3.2262,3.4149,3.7937,3.8453,3.8635,4.0329,4.0828,4.1058,4.1235,4.2413,4.3207,4.2775,4.3603,4.3759,4.2223,4.1636,4.0817,3.932,3.8685,3.8478,3.869,3.7937,3.7208,3.6554,3.6492,3.6492,3.6492,3.6492,3.58,3.4346,3.4312,3.361,3.2205,3.2073,3.2283,3.2751,3.1937,3.2069,3.2961,3.2041,3.1652,3.1771,3.1235,3.0986,3.0986,3.0874,3.0849,3.0773,3.005,2.9419,2.8912,2.8731,2.8663,2.8457,0.0,0.0,0.0,0.0,0.0,0.0,0.0,0.0,0.0,0.0,1.9381,1.9729,1.9935,2.09,2.2306,2.4242,2.6859,2.9959,3.3664,3.7212,4.0612,4.3836,4.4147,4.4722,4.5686,4.6007,4.6227,4.6312,4.7716,4.8342,4.824,4.8748,4.9001,4.9001,4.9001,4.9032,4.9077,4.935,4.9619,4.9803,5.0285,4.9925,4.8955,4.7381,4.5042,4.2567,4.2433,4.0678,3.8346,3.7753,3.7512,3.7508,3.7665,3.6997,3.5546,3.2408,3.1029,3.0427,3.0077,3.0017,3.0637,3.3114,3.5427,3.7636,3.9593,4.0564,4.1433,4.2813,4.3222,4.3366,4.3479,4.3931,4.4121,4.3586,4.3776,4.3603,4.2499,4.1498,4.0277,3.8594,3.7965,3.7773,3.8077,3.7729,3.7223,3.6569,3.6492,3.6492,3.6492,3.6492,3.58,3.4346,3.4312,3.361,3.2146,3.2112,3.2377,3.2841,3.211,3.2354,3.337,3.262,3.2189,3.2019,3.164,3.1327,3.1133,3.0994,3.0675,3.0177,2.9328,2.8609,2.8039,2.8011,2.7718,2.7354,0.0,0.0,0.0,0.0,0.0,0.0,0.0,0.0,0.0,0.0,0.0,0.0,0.0,2.1301,2.2227,2.378,2.574,2.8438,3.2124,3.5204,3.8539,4.2202,4.3064,4.4164,4.5669,4.501,4.5703,4.7821,4.7175,4.7581,4.8968,4.8984,4.9001,4.9001,4.9001,4.9063,4.9199,4.9411,4.9878,5.0417,4.9853,4.8945,4.7677,4.5018,4.2025,3.9194,3.8732,3.5932,3.256,3.3163,3.1928,3.058,3.3145,3.3408,3.2577,3.174,2.9833,2.8169,2.8924,3.079,3.3104,3.5648,3.9252,4.24,4.3267,4.4364,4.5292,4.5537,4.5239,4.4778,4.4361,4.4276,4.4294,4.4276,4.369,4.3224,4.3172,4.1861,4.0601,3.9767,3.8258,3.7125,3.6624,3.6658,3.6674,3.6492,3.6492,3.6492,3.6492,3.6492,3.58,3.4346,3.4312,3.3541,3.1927,3.2428,3.2764,3.3001,3.2948,3.3422,3.4332,3.3783,3.3221,3.2659,3.2646,3.2202,3.1474,3.1474,3.0558,2.9133,2.891,2.7747,2.616,2.5975,2.64,2.6987,0.0,0.0,0.0,0.0,0.0,0.0,0.0,0.0,0.0,0.0,0.0,0.0,0.0,0.0,0.0,0.0,2.4339,2.6409,2.8505,3.2801,3.6265,3.8556,4.0764,4.2422,4.342,4.4209,4.4744,4.5066,4.6304,4.699,4.7094,4.75,4.7662,4.7696,4.8084,4.8348,4.8494,4.9034,4.9101,4.8872,4.8401,4.7331,4.569,4.2468,3.9219,3.6015,0.0,3.1615,3.0733,2.991,2.9454,2.943,3.0338,3.0051,2.9163,2.7838,2.8775,3.0411,3.1207,3.3582,3.6703,4.0226,4.2522,4.4413,4.6287,4.7038,4.7101,4.6305,4.4202,4.2314,4.1821,4.1071,4.0687,4.1188,4.2361,4.3189,4.3189,4.1458,3.9596,3.81,3.6792,3.549,3.4059,3.5444,3.6286,3.5859,3.6245,3.6492,3.6492,3.6053,3.5335,3.4346,3.3699,3.307,3.2441,3.2328,3.2536,3.3001,3.3251,3.3564,3.3862,3.3679,3.3483,3.3273,3.2749,3.1972,3.1075,3.0471,2.9516,2.8339,2.7224,2.6431,2.5852,2.553,2.5571,2.5744,0.0,0.0,0.0,0.0,0.0,0.0,0.0,0.0,0.0,0.0,0.0,0.0,0.0,0.0,0.0,0.0,0.0,2.4573,2.6189,2.9772,3.2754,3.4891,3.6926,3.8362,3.9106,4.0096,4.0561,4.0382,4.2439,4.3486,4.3625,4.4575,4.5133,4.5337,4.606,4.6457,4.6624,4.7066,4.6899,4.6246,4.5154,4.3577,4.156,3.8159,3.5018,0.0,2.884,2.786,2.7897,2.6851,2.6869,2.7281,2.7281,2.7126,2.6982,2.7167,2.9416,3.232,3.4596,3.7367,4.0412,4.357,4.5186,4.6305,4.7571,4.7664,4.6927,4.5078,4.2577,4.0392,3.9314,3.7947,3.7318,3.8291,3.9037,3.9951,4.133,3.9549,3.7986,3.7636,3.6205,3.4846,3.3717,3.4997,3.5796,3.552,3.5875,3.6211,3.6492,3.5544,3.4747,3.4197,3.3339,3.2786,3.2497,3.2443,3.279,3.3501,3.3773,3.3875,3.3875,3.3875,3.3656,3.3203,3.2708,3.1701,3.0411,2.9863,2.8902,2.768,2.6521,2.5936,2.5776,2.5336,2.5326,2.5399,0.0,0.0,0.0,0.0,0.0,0.0,0.0,0.0,0.0,0.0,0.0,0.0,0.0,0.0,0.0,0.0,0.0,0.0,2.4967,2.6199,2.8201,3.1246,3.1884,3.25,3.3241,3.3354,3.3714,3.4381,3.5968,3.7376,3.8693,4.0311,4.1333,4.1839,4.2758,4.3248,4.3476,4.3502,4.3242,4.2598,4.0331,3.8041,3.5677,3.2491,2.9836,2.7596,2.598,2.4879,2.4208,2.4245,2.4337,2.4428,2.4411,2.5035,2.6407,2.9695,3.1752,3.3995,3.8781,4.1846,4.4048,4.5626,4.7168,4.8067,4.7223,4.6379,4.4949,4.2032,4.0362,3.882,3.6827,3.5057,3.4401,3.5864,3.4438,3.4438,3.8105,3.6698,3.6097,3.8288,3.6549,3.5224,3.5328,3.5326,3.5388,3.5476,3.5451,3.5765,3.649,3.5118,3.4187,3.4002,3.3227,3.2618,3.2131,3.2777,3.3514,3.4397,3.4397,3.4356,3.4314,3.4314,3.3645,3.2537,3.2494,3.1407,2.9688,2.9609,2.8631,2.7139,2.6607,2.6135,2.5743,2.5262,2.5375,2.5708,0.0,0.0,0.0,0.0,0.0,0.0,0.0,0.0,0.0,0.0,0.0,0.0,0.0,0.0,0.0,0.0,0.0,0.0,2.1123,2.347,2.5474,2.6864,2.8939,3.0462,3.1303,3.1677,3.1757,3.1553,3.2513,3.2929,3.287,3.4281,3.5023,3.5198,3.6428,3.7148,3.7521,3.7927,3.7844,3.7344,3.589,3.4582,3.323,3.0601,2.887,2.7596,2.598,2.4879,2.4281,2.4897,2.6282,2.7699,2.7261,2.8795,3.1048,3.2531,3.5372,3.8707,4.1735,4.4342,4.6415,4.7443,4.8012,4.7939,4.6526,4.5112,4.3171,3.983,3.5889,3.2822,3.2027,3.1708,3.2231,3.4298,3.6504,3.85,4.0069,3.8828,3.7816,3.7917,3.6856,3.5755,3.4814,3.6057,3.6491,3.5431,3.5791,3.6375,3.7071,3.5236,3.408,3.3852,3.26,3.2212,3.2763,3.3618,3.4151,3.4397,3.4397,3.4037,3.3335,3.3152,3.2494,3.1521,3.1211,3.0382,2.9216,2.8667,2.778,2.6606,2.5356,2.479,2.4644,2.4049,2.3909,2.4023,0.0,0.0,0.0,0.0,0.0,0.0,0.0,0.0,0.0,0.0,0.0,0.0,0.0,0.0,0.0,0.0,0.0,0.0,0.0,2.1452,2.2629,2.3448,2.4787,2.5749,2.6234,2.6544,2.6545,2.6238,2.7357,2.7889,2.787,2.9363,3.0197,3.049,3.1954,3.274,3.2999,3.3231,3.2937,0.0,0.0,2.9746,2.8725,2.7409,2.6612,2.6098,2.5209,2.5493,2.6439,2.7345,2.8482,2.9676,3.0483,3.209,3.41,3.6421,3.8931,4.1552,4.4323,4.6342,4.7736,4.8196,4.7774,4.6728,4.4764,4.2783,4.0168,3.6003,3.2441,2.9683,2.8349,2.8415,2.9317,3.1229,3.3864,3.628,3.8083,3.7654,3.7259,3.7607,3.7217,3.663,3.5876,3.7092,3.7552,3.6686,3.664,3.6787,3.7169,3.5323,3.4213,3.4071,3.261,3.218,3.287,3.3668,3.4162,3.4397,3.3995,3.3433,3.2809,3.2234,3.1344,3.0283,3.0011,2.9292,2.8236,2.7352,2.6697,2.6054,2.4505,2.4023,2.4145,2.3609,2.3544,2.37,0.0,0.0,0.0,0.0,0.0,0.0,0.0,0.0,0.0,0.0,0.0,0.0,0.0,0.0,0.0,0.0,0.0,0.0,0.0,0.0,0.0,2.1063,2.0798,2.0659,2.0756,2.069,2.0648,2.0677,2.1964,2.2894,2.3506,2.5063,2.6045,2.6548,2.8045,2.877,2.8843,2.8706,2.8173,2.7307,2.6045,2.482,2.3783,0.0,0.0,2.3868,2.4006,2.5831,2.847,3.0202,3.102,3.1734,3.4023,3.5371,3.6868,4.0637,4.2235,4.3442,4.6434,4.7755,4.8269,4.8177,4.7021,4.5186,4.2451,3.9889,3.6683,3.1651,2.957,2.7956,2.5649,2.5765,2.6786,2.8475,3.0073,3.2125,3.5004,3.5416,3.5937,3.7279,3.7483,3.7461,3.7384,3.8138,3.8449,3.7992,3.7565,3.7234,3.7077,3.5347,3.4304,3.4098,3.2856,3.2384,3.2816,3.3404,3.3886,3.4217,3.3377,3.2722,3.219,3.1344,3.0192,2.8899,2.8702,2.806,2.7013,2.5876,2.5441,2.5353,2.3793,2.3486,2.3804,2.3255,2.3345,2.3701,0.0,0.0,0.0,0.0,0.0,0.0,0.0,0.0,0.0,0.0,2.0278,0.0,0.0,0.0,0.0,0.0,0.0,0.0,0.0,0.0,0.0,0.0,2.0289,2.0422,2.1103,2.0311,1.9917,1.9969,1.9643,1.9538,1.9678,2.0631,2.1128,2.1263,2.2156,2.2647,2.2812,2.2772,2.2774,2.2816,2.3364,2.296,2.2127,0.0,0.0,0.0,2.2942,2.3575,2.4887,3.0374,3.4458,3.7338,3.7937,3.9936,4.2303,4.3697,4.4653,4.5681,4.759,4.8196,4.8141,4.7461,4.6599,4.4745,4.0341,3.7414,3.4182,2.9092,2.6637,2.5187,2.4388,2.572,2.7839,3.064,3.2909,3.4946,3.6825,3.7091,3.698,3.6706,3.7171,3.7277,3.6722,3.8292,3.8482,3.6381,3.7592,3.8125,3.7447,3.5143,3.344,3.2518,3.2567,3.2869,3.343,3.3979,3.3904,3.325,3.3079,3.2059,3.0249,2.9875,2.9015,2.7809,2.6744,2.6167,2.5858,2.4515,2.4135,2.4248,2.2779,2.2481,2.266,2.1693,2.1363,2.1471,0.0,0.0,0.0,0.0,0.0,0.0,0.0,0.0,0.0,0.0,2.1227,2.1018,0.0,0.0,0.0,0.0,0.0,0.0,0.0,0.0,0.0,0.0,0.0,0.0,2.0102,1.9623,1.9397,1.9442,0.0,1.8957,1.8975,1.9388,1.9595,1.9613,2.0436,2.0826,2.0889,2.0958,2.1044,2.1185,2.1694,2.1636,0.0,0.0,0.0,0.0,0.0,2.3757,2.5426,2.939,3.4009,3.8536,4.1146,4.3528,4.5535,4.6342,4.7168,4.7976,4.8765,4.8967,4.8765,4.792,4.5865,4.2746,3.7873,3.4828,3.1576,2.6476,2.4956,2.4309,2.358,2.5138,2.7137,2.8973,3.1075,3.3368,3.5852,3.5805,3.5906,3.6909,3.7615,3.7715,3.6973,3.8326,3.8421,3.6354,3.6968,3.7221,3.6757,3.4875,3.3383,3.245,3.2293,3.2529,3.3117,3.3202,3.314,3.2993,3.1884,3.0732,2.9555,2.8589,2.7603,2.6552,2.5699,2.5179,2.4777,2.3551,2.3134,2.3117,2.171,2.1353,2.1599,2.0913,2.0647,2.067,0.0,0.0,0.0,0.0,0.0,0.0,0.0,1.9934,2.0275,2.1024,2.1792,2.1915,2.0985,2.0445,2.0005,0.0,0.0,0.0,0.0,0.0,0.0,0.0,0.0,0.0,0.0,0.0,0.0,1.9104,1.9178,0.0,0.0,0.0,0.0,0.0,2.0096,2.038,2.032,2.0422,2.0467,0.0,0.0,2.0767,0.0,0.0,0.0,0.0,0.0,2.361,2.558,2.7948,3.1825,3.6486,4.1148,4.4086,4.5938,4.6562,4.7609,4.8637,4.8986,4.9335,4.9317,4.8086,4.5021,4.0967,3.5897,3.2788,2.9569,2.4693,2.398,2.4025,2.3309,2.4568,2.6012,2.6926,2.8705,3.1037,3.4011,3.4101,3.46,3.6598,3.7688,3.79,3.693,3.802,3.812,3.6493,3.6107,3.5832,3.5552,3.4455,3.354,3.2894,3.245,3.2358,3.2757,3.2558,3.2486,3.2549,3.0877,2.9836,2.936,2.7761,2.6564,2.5674,2.489,2.4221,2.3574,2.2498,2.2055,2.1921,2.0758,2.0448,2.0662,2.0384,2.0281,2.0321,0.0,0.0,0.0,0.0,0.0,0.0,0.0,1.98,2.0089,2.1068,2.1225,2.0971,2.0276,2.0673,2.0702,0.0,0.0,0.0,0.0,0.0,0.0,0.0,0.0,0.0,0.0,0.0,0.0,1.9099,1.9176,0.0,0.0,0.0,0.0,0.0,0.0,1.9748,1.9673,1.9706,0.0,0.0,0.0,0.0,0.0,0.0,0.0,0.0,0.0,2.0863,2.1742,2.6363,2.8741,3.0509,3.4601,3.8545,4.1664,4.1737,4.337,4.5461,4.6929,4.8434,4.9041,4.6691,4.4195,4.0836,3.5188,3.1986,2.901,2.4842,2.367,2.3553,2.3989,2.4482,2.5382,2.7089,2.8603,3.0285,3.2343,3.3634,3.4422,3.4663,3.6405,3.7021,3.555,3.7022,3.7412,3.5826,3.5224,3.4668,3.4123,3.3802,3.3602,3.3509,3.3456,3.331,3.2958,3.3351,3.2711,3.109,3.1071,3.0485,2.9373,2.7913,2.6725,2.5693,2.3925,2.2788,2.2102,2.1031,2.059,2.055,2.01,1.998,2.0004,1.9972,1.9965,1.9965,0.0,0.0,0.0,0.0,0.0,0.0,0.0,2.0527,2.0659,2.0985,2.1935,2.1971,2.0278,2.12,2.1187,0.0,0.0,0.0,0.0,0.0,0.0,0.0,0.0,0.0,0.0,0.0,1.8893,1.8503,1.9043,0.0,0.0,0.0,0.0,0.0,0.0,1.9695,1.9617,1.9776,0.0,0.0,0.0,0.0,0.0,0.0,0.0,0.0,0.0,0.0,2.1543,2.4013,2.6371,2.8301,2.8448,3.095,3.4784,3.9664,4.247,4.4544,4.7113,4.8691,4.9133,4.7131,4.3351,3.9004,3.4728,3.0691,2.7096,2.4434,2.3542,2.3305,2.35,2.3604,2.4006,2.5011,2.5674,2.7189,3.0377,3.0761,3.1774,3.4625,3.5572,3.587,3.5469,3.625,3.6245,3.4956,3.4376,3.4247,3.4719,3.4308,3.3667,3.2714,3.3075,3.2877,3.2096,3.2028,3.1715,3.1081,3.0444,2.9419,2.8126,2.7092,2.586,2.4395,2.3158,2.2417,2.1931,2.1262,2.0976,2.0945,2.0444,2.0127,1.9938,1.9797,1.9566,1.9522,0.0,0.0,0.0,0.0,0.0,0.0,2.0501,2.0828,2.0935,2.0627,2.1908,2.206,1.9954,2.0966,2.0937,1.8836,0.0,0.0,0.0,0.0,0.0,0.0,0.0,0.0,0.0,0.0,1.9026,1.8529,1.9168,1.9239,0.0,0.0,1.9787,1.9822,0.0,0.0,0.0,0.0,0.0,0.0,0.0,0.0,0.0,0.0,0.0,0.0,0.0,0.0,0.0,0.0,0.0,2.608,2.4373,2.5556,2.8895,3.5573,3.9515,4.2378,4.5369,4.7498,4.8453,4.6801,4.2324,3.7433,3.4101,2.9722,2.5896,2.4192,2.3497,2.3245,2.3395,2.3184,2.3188,2.375,2.405,2.5321,2.8575,2.8669,2.9765,3.3393,3.4046,3.4395,3.4766,3.5576,3.5642,3.459,3.4339,3.4395,3.4934,3.4486,3.3798,3.2875,3.2816,3.2389,3.1553,3.1309,3.112,3.0986,2.976,2.8676,2.7685,2.6387,2.4993,2.3561,2.2778,2.2212,2.1791,2.1491,2.1333,2.1206,2.0601,2.0007,1.9424,1.9136,1.8686,1.8405,0.0,0.0,0.0,0.0,0.0,0.0,0.0,2.0426,2.063,1.9905,2.0583,2.0544,1.8988,1.9602,1.9778,1.8888,0.0,0.0,0.0,0.0,0.0,0.0,0.0,0.0,0.0,0.0,1.9586,1.9586,1.9591,1.9701,1.9885,1.9885,1.9977,2.0107,0.0,0.0,0.0,0.0,0.0,0.0,0.0,0.0,1.8887,0.0,0.0,0.0,0.0,0.0,0.0,0.0,0.0,0.0,0.0,2.3584,2.4887,2.818,3.3128,3.8098,4.0524,4.4086,4.6746,4.5131,4.1042,3.6542,3.3268,2.929,2.5834,2.4234,2.352,2.3409,2.4059,2.3528,2.3274,2.405,2.469,2.5577,2.7017,2.8077,2.9121,3.0207,3.1569,3.259,3.2996,3.4986,3.5905,3.4891,3.5284,3.5161,3.4141,3.3966,3.4085,3.4547,3.3101,3.2073,3.1579,3.178,3.14,3.0507,2.9278,2.8681,2.8585,2.6,2.4405,2.3648,2.2852,2.2084,2.1404,2.1396,2.119,2.0842,2.0241,1.9222,1.8071,1.7823,1.7126,1.652,0.0,0.0,0.0,0.0,0.0,0.0,0.0,1.9957,1.9814,1.9081,1.9662,1.9565,1.807,1.8645,1.8836,1.8044,0.0,0.0,0.0,0.0,0.0,0.0,0.0,0.0,0.0,0.0,1.9388,1.8777,1.942,1.948,1.9033,1.9717,2.0058,2.0107,2.0107,2.0078,0.0,0.0,0.0,0.0,0.0,1.9862,1.9575,0.0,0.0,0.0,0.0,0.0,0.0,0.0,0.0,0.0,0.0,0.0,0.0,2.5379,2.9305,3.3857,3.627,3.8707,4.0139,3.8478,3.5626,3.2655,3.0476,2.7686,2.523,2.4083,2.3455,2.3205,2.3407,2.2746,2.2468,2.3306,2.419,2.5025,2.5792,2.7561,2.9305,3.0737,3.2881,3.4174,3.3979,3.4959,3.5038,3.3696,3.4096,3.4022,3.3081,3.1956,3.1707,3.25,3.2148,3.1613,3.0855,3.091,3.0759,3.0428,2.9232,2.816,2.7131,2.5533,2.4208,2.321,2.2703,2.2498,2.2506,2.2259,2.1949,2.1534,2.0288,1.9128,1.8036,1.7212,1.6531,1.6229,0.0,0.0,0.0,0.0,0.0,0.0,0.0,1.9848,1.9647,1.9193,1.9518,1.9471,1.8579,1.8935,1.8921,1.8166,0.0,0.0,0.0,0.0,0.0,0.0,0.0,0.0,0.0,1.9839,1.9739,1.9494,1.9747,1.9793,1.9639,1.9939,2.0093,2.0103,2.0103,2.0093,0.0,0.0,0.0,0.0,1.9993,1.9803,1.9484,0.0,0.0,0.0,0.0,0.0,0.0,0.0,0.0,0.0,0.0,0.0,0.0,0.0,2.6499,2.9714,3.2423,3.4573,3.5819,3.4802,3.2436,2.999,2.8646,2.6461,2.4507,2.3833,2.3375,2.3068,2.2973,2.2327,2.2021,2.2628,2.3674,2.4537,2.4862,2.6835,2.8801,3.0376,3.2827,3.414,3.355,3.4517,3.4461,3.2853,3.3291,3.3109,3.1952,3.081,3.0548,3.1322,3.1247,3.0956,3.0507,3.0589,3.0303,2.9733,2.8489,2.714,2.579,2.4659,2.3728,2.3006,2.2784,2.2815,0.0,2.2633,2.23,2.183,2.0173,1.8865,1.7757,1.6452,1.5631,1.5285,0.0,0.0,0.0,0.0,0.0,0.0,0.0,0.0,0.0,0.0,1.9924,1.9925,1.9931,1.9936,1.9606,0.0,0.0,0.0,0.0,0.0,0.0,0.0,0.0,0.0,0.0,2.0065,2.0455,2.1199,2.0454,2.0492,2.1275,2.0584,2.0236,2.0184,2.0184,2.0122,0.0,0.0,0.0,0.0,2.0001,1.9522,0.0,0.0,0.0,0.0,0.0,0.0,0.0,0.0,0.0,0.0,0.0,0.0,0.0,0.0,0.0,0.0,0.0,3.1289,3.3099,3.303,3.0764,2.8311,2.7424,2.5528,0.0,2.354,2.3265,2.2998,2.2803,2.2298,2.1978,2.2224,2.328,2.4135,2.4269,2.614,2.8021,2.9469,3.1783,3.2889,3.2068,3.3621,3.4015,3.2328,3.2713,3.2369,3.0869,3.0365,3.0302,3.0646,3.0291,3.0269,3.0511,3.0581,2.9943,2.8648,2.7103,2.5818,2.4778,2.3568,2.3006,2.2982,2.3006,2.299,2.2862,2.2641,2.2269,2.1749,1.9962,1.8519,1.721,1.5693,1.4511,1.3868,0.0,0.0,0.0,0.0,0.0,0.0,0.0,0.0,0.0,0.0,1.9246,1.9016,1.8416,1.8342,1.8005,0.0,0.0,0.0,0.0,0.0,0.0,0.0,0.0,0.0,0.0,1.9783,2.014,2.0229,2.073,2.1048,2.1161,2.1738,2.1667,2.1023,2.1023,2.0631,2.0009,0.0,0.0,0.0,1.9999,1.9885,0.0,0.0,0.0,0.0,1.9173,1.9344,0.0,0.0,0.0,0.0,0.0,0.0,0.0,0.0,2.382,2.3646,2.4338,0.0,2.6955,2.5648,2.5641,2.5535,0.0,2.4051,2.4257,2.3383,2.2982,2.2942,2.345,2.2564,2.22,2.3629,2.3906,2.4003,2.4196,2.7139,2.9724,3.0877,3.2555,3.3088,3.1817,3.2525,3.2572,3.1298,3.1402,3.1019,2.9905,2.9371,2.891,2.8481,2.905,2.9811,3.0698,2.9238,2.8449,2.8276,2.591,2.4752,2.4778,2.3568,2.2863,2.2625,2.2895,2.2601,2.1978,2.2378,2.2078,2.1199,2.009,1.8713,1.7228,1.594,1.4703,1.3748,0.0,0.0,0.0,0.0,0.0,0.0,0.0,0.0,0.0,0.0,0.0,0.0,0.0,0.0,0.0,0.0,0.0,0.0,0.0,0.0,0.0,0.0,0.0,0.0,1.8888,1.9691,2.0446,2.1138,2.0875,2.1308,2.2382,2.1746,2.1415,2.1325,2.0899,2.0449,2.0,2.0007,2.0004,2.0007,2.0007,0.0,0.0,0.0,0.0,0.0,1.9476,1.9514,0.0,2.1085,2.1704,2.2187,0.0,0.0,0.0,0.0,2.384,2.3491,2.3387,2.3998,2.4334,2.3036,2.3534,2.4104,2.3077,2.3422,2.3768,2.3057,2.3059,2.3227,2.3316,2.2834,2.2684,2.3484,2.3777,2.4118,2.4758,2.6631,2.8671,3.0703,3.1642,3.208,3.2072,3.2061,3.1565,3.0366,3.051,3.0217,2.9219,2.8645,2.8223,2.8006,2.8011,2.8444,2.9331,2.8207,2.7481,2.7081,2.5147,2.4035,2.3695,2.3046,2.2577,2.2314,2.2617,2.2356,2.1635,2.2174,2.1888,2.1038,1.9963,1.9034,1.8033,1.6151,1.5065,1.4441,0.0,0.0,0.0,0.0,0.0,0.0,0.0,0.0,0.0,0.0,0.0,0.0,0.0,0.0,0.0,0.0,0.0,0.0,0.0,0.0,0.0,0.0,0.0,1.7944,1.8885,1.9685,2.0857,2.2409,2.1239,2.1717,2.3665,2.1621,2.0934,2.134,2.0412,2.0006,2.0001,2.0007,2.0004,1.9999,1.9999,0.0,0.0,0.0,0.0,0.0,0.0,0.0,0.0,2.1159,2.176,2.2181,2.3465,0.0,0.0,0.0,0.0,0.0,2.3833,2.4078,2.4077,2.29,2.3224,2.3741,2.3429,2.3348,2.329,2.3033,2.3419,2.3646,2.3124,2.3111,2.3147,2.2984,2.3611,2.4622,2.6123,2.6235,2.7225,3.0101,3.0334,3.0711,3.1877,3.1518,3.0726,2.9595,2.9794,2.9631,2.8801,2.8069,2.7802,2.7968,2.6963,2.6603,2.7025,2.698,2.6394,2.5412,2.4293,2.3311,2.241,2.241,2.2212,2.1955,2.2251,2.2017,2.1409,2.1752,2.1505,2.0859,1.9815,1.9305,1.8871,1.6609,1.5632,1.5264,0.0,0.0,0.0,0.0,0.0,0.0,0.0,0.0,0.0,0.0,0.0,0.0,0.0,0.0,0.0,0.0,0.0,0.0,0.0,0.0,0.0,0.0,1.6193,1.7315,1.8878,1.9682,2.0595,2.1579,2.2753,2.313,2.2811,2.3149,2.2609,2.1271,2.0455,2.0059,2.0006,1.9996,1.9995,1.9993,1.9993,0.0,0.0,0.0,0.0,0.0,0.0,0.0,0.0,1.9268,2.0341,2.1891,2.2239,0.0,0.0,0.0,0.0,0.0,2.2946,2.4622,2.5752,2.2912,2.3738,2.4827,2.3055,2.3619,2.4476,2.4271,2.4034,2.3934,2.4053,2.3314,2.3025,2.397,2.468,2.6163,2.9239,2.9016,2.9208,3.0944,3.0724,3.0152,2.9349,2.924,2.9294,2.9503,2.9219,2.8863,2.8499,2.7988,2.7203,2.6087,2.5425,2.4881,2.437,2.4364,2.4134,2.3591,2.2427,2.1919,2.2091,2.2091,2.1854,2.1499,2.1679,2.1192,2.0337,2.0756,2.0584,2.0045,2.0037,1.9437,1.8466,1.8079,1.6636,1.4749,0.0,0.0,0.0,0.0,0.0,0.0,0.0,0.0,0.0,0.0,0.0,0.0,0.0,0.0,0.0,0.0,0.0,0.0,0.0,0.0,0.0,1.5941,1.6694,1.746,1.8229,1.993,2.1211,2.2052,2.2811,2.346,2.3982,2.3441,2.206,1.9988,1.9583,1.9378,1.9354,1.9354,1.9592,2.0,0.0,0.0,0.0,0.0,0.0,0.0,0.0,0.0,0.0,0.0,2.0729,2.1918,2.1948,0.0,0.0,0.0,0.0,0.0,2.3193,2.4687,2.5953,2.451,2.5582,2.6484,2.4475,2.4753,2.533,2.4904,2.4772,2.4754,2.4875,2.4669,2.4605,2.498,2.5023,2.5516,2.7011,2.6869,2.7273,2.9074,2.899,2.8922,2.9254,2.8992,2.8792,2.8713,2.8495,2.8163,2.7675,2.7076,2.6172,2.4893,2.4202,2.3227,2.1906,2.2075,2.2399,2.2826,2.1664,2.1293,2.1687,2.1687,2.1391,2.0927,2.1151,2.0647,1.966,2.0181,2.0051,1.958,1.9857,1.9751,1.925,1.8058,1.6352,1.4494,0.0,0.0,0.0,0.0,0.0,0.0,0.0,0.0,0.0,0.0,0.0,0.0,0.0,0.0,0.0,0.0,0.0,0.0,0.0,0.0,1.6566,1.648,1.7648,1.8363,1.8559,2.0421,2.188,2.2906,2.2906,2.3389,2.4274,2.2931,2.1096,1.8899,1.8853,1.871,1.8539,1.8745,1.9173,1.9745,0.0,0.0,0.0,0.0,0.0,0.0,0.0,0.0,0.0,0.0,0.0,0.0,0.0,0.0,0.0,2.3269,2.3532,2.3907,2.3584,2.4728,2.5961,2.573,2.6812,2.7724,2.6843,2.6658,2.6594,2.6375,2.624,2.5992,2.5426,2.5744,2.5998,2.5662,2.5605,2.5608,2.5567,2.5345,2.5843,2.7731,2.7568,2.78,2.9074,2.8768,2.8265,2.7849,2.7827,2.7519,2.6776,2.6006,2.5086,2.3969,2.2963,2.1765,2.0294,2.0319,2.0802,2.1744,2.1115,2.0941,2.1159,2.1186,2.0927,2.0529,2.0622,2.0178,1.9336,1.9799,1.9702,1.9353,1.9603,1.9798,1.9708,1.7477,1.5791,1.4531,0.0,0.0,0.0,0.0,0.0,0.0,0.0,0.0,0.0,0.0,0.0,0.0,0.0,0.0,0.0,0.0,0.0,0.0,0.0,0.0,1.6535,1.6416,1.872,2.0374,2.113,2.1316,2.2185,2.3799,2.3799,2.3078,2.1674,2.156,2.0566,1.8899,1.8894,1.8436,1.7733,1.855,1.8896,1.8945,1.9707,0.0,0.0,0.0,0.0,0.0,0.0,0.0,0.0,0.0,0.0,0.0,0.0,0.0,2.3021,2.3636,2.387,2.3845,2.3576,2.503,2.6369,2.5257,2.6084,2.7775,3.0137,2.9599,2.8848,2.9746,2.919,2.7835,2.5469,2.5656,2.6076,2.5757,2.7107,2.8354,2.8722,2.7815,2.7556,2.8839,2.7983,2.737,2.7491,2.7436,2.7403,2.737,2.737,2.6931,2.6031,2.5083,2.4155,2.3198,2.1427,2.043,2.0294,1.9387,1.9167,1.963,2.0172,2.0448,2.048,2.0558,2.0545,2.047,2.0013,1.9739,1.965,1.9442,1.9346,1.9279,1.9353,1.9323,1.9024,1.6461,1.5422,1.497,0.0,0.0,0.0,0.0,0.0,0.0,0.0,0.0,0.0,0.0,0.0,0.0,0.0,0.0,0.0,0.0,0.0,0.0,0.0,0.0,1.7302,1.7217,1.8616,1.9725,2.0453,2.1563,2.2411,2.2973,2.3053,2.2505,2.1407,2.1407,2.0508,1.8899,1.8857,1.8671,1.8421,1.8724,1.9139,1.9635,1.9888,1.9996,0.0,0.0,0.0,0.0,0.0,0.0,0.0,0.0,2.0136,2.1348,2.1176,2.2216,2.3436,2.3224,2.3484,2.3753,2.3353,2.5184,2.7002,2.6221,2.7214,2.8712,2.9901,2.9913,2.9663,2.9577,2.9484,2.8911,2.7248,2.6958,2.6967,2.6935,2.715,2.7465,2.7938,2.7315,2.7009,2.7504,2.7392,2.7206,2.6868,2.6846,2.6846,2.6846,2.5881,2.5107,2.4638,2.355,2.2447,2.1373,2.0656,1.9985,1.9363,1.9004,1.8899,1.9042,1.9526,1.9979,2.04,2.0435,2.0354,2.0248,2.0034,1.9243,1.8142,1.8977,1.8733,1.8001,1.8932,1.9175,1.8779,1.6419,1.5402,1.4809,0.0,0.0,0.0,0.0,0.0,0.0,0.0,0.0,0.0,0.0,0.0,0.0,0.0,0.0,0.0,0.0,0.0,0.0,0.0,1.7402,1.8162,1.8113,1.9097,1.9845,2.0267,2.1534,2.2119,2.1991,2.213,2.164,2.0623,2.0867,2.0389,1.9257,1.8939,1.8825,1.8862,1.8825,1.9145,1.9702,1.9921,2.0001,0.0,0.0,0.0,0.0,0.0,0.0,0.0,0.0,2.0181,2.1005,2.0964,2.1963,2.3131,2.3067,2.3358,2.3613,2.3212,2.4725,2.6378,2.6135,2.7358,2.8916,3.0039,3.0388,3.063,3.1147,3.0346,2.9359,2.8665,2.7875,2.7362,2.7584,2.7295,2.7059,2.7097,2.6649,2.6398,2.6398,2.6671,2.6747,2.6431,2.6398,2.6398,2.6398,2.4975,2.4006,2.379,2.2385,2.1186,2.0348,2.0103,1.9616,1.8827,1.8939,1.8939,1.8781,1.8988,1.9518,2.0226,2.0195,2.0128,2.0078,1.9561,1.8549,1.7295,1.7966,1.7821,1.7398,1.8769,1.8907,1.8083,1.6168,1.4987,1.4062,0.0,0.0,0.0,0.0,0.0,0.0,0.0,0.0,0.0,0.0,0.0,0.0,0.0,0.0,0.0,0.0,0.0,0.0,1.7748,1.854,1.8991,1.8981,2.046,2.1203,2.1072,2.1202,2.12,2.1082,2.1214,2.0475,1.8918,1.9711,2.0093,2.005,1.9206,1.8811,1.8811,1.8811,1.8816,1.8883,1.9678,2.0005,1.9993,0.0,0.0,0.0,0.0,0.0,0.0,0.0,1.9427,1.9596,2.12,2.1616,2.1821,2.3343,2.3664,2.3429,2.3182,2.3598,2.4211,2.4623,2.6085,2.8221,3.1162,3.1457,3.199,3.5183,3.2256,2.9191,2.9472,2.819,2.7186,2.7373,2.7719,2.7656,2.6756,2.6212,2.5906,2.5895,2.5906,2.5906,2.5895,2.5895,2.5895,2.5895,2.4754,2.4006,2.379,2.1747,2.0512,2.0294,1.9731,1.9193,1.8789,1.9193,1.9193,1.8789,1.8628,1.8973,1.9876,1.9694,1.9773,1.9968,1.8304,1.7575,1.747,1.634,1.6552,1.7687,1.8848,1.8363,1.6922,1.5524,1.4078,1.258,0.0,0.0,0.0,0.0,0.0,0.0,0.0,0.0,0.0,0.0,0.0,0.0,0.0,0.0,0.0,0.0,0.0,0.0,1.7052,1.7711,1.8124,1.8094,1.8487,1.8902,1.9339,1.9384,1.9422,1.9473,2.0082,1.9855,1.8848,1.965,2.0026,2.004,2.0351,2.0161,1.9688,2.0242,2.0166,1.9659,1.9906,2.0005,1.9993,0.0,0.0,0.0,0.0,0.0,0.0,0.0,0.0,0.0,2.1234,2.1914,2.2536,2.3506,2.3664,2.3542,2.3699,2.4692,2.5781,2.6042,2.835,3.1002,3.2676,3.1436,3.0448,3.2263,3.1256,3.0041,3.0121,2.9111,2.8212,2.8004,2.7156,2.6661,2.7053,2.6704,2.6289,2.5939,2.6201,2.6278,2.5928,2.5895,2.5853,2.5686,2.3953,2.2804,2.2561,2.0512,1.9317,1.9225,1.907,1.9058,1.9209,1.932,1.9479,1.9558,1.9326,1.9207,1.9271,1.9241,1.9201,1.9035,1.8084,1.698,1.5844,1.5667,1.6321,1.7437,1.7921,1.7681,1.6869,1.484,1.3663,1.2965,0.0,0.0,0.0,0.0,0.0,0.0,0.0,0.0,0.0,0.0,1.8298,0.0,0.0,0.0,0.0,0.0,0.0,0.0,0.0,0.0,1.8615,1.822,1.8436,1.874,1.9154,1.9105,1.8966,1.8721,1.9258,1.9253,1.874,1.953,2.0289,2.0926,2.1386,2.1384,2.1029,2.1173,2.075,2.0005,2.0001,1.9971,1.9961,0.0,0.0,0.0,0.0,0.0,0.0,0.0,0.0,0.0,2.1151,2.183,2.2462,2.3757,2.37,2.3388,2.3967,2.5276,2.658,2.6985,2.9863,3.2629,3.2807,3.2759,3.2713,3.2803,3.1974,3.1172,3.0974,2.958,2.8523,2.8587,2.7352,2.6568,2.6976,2.6638,2.6234,2.5928,2.6157,2.6223,2.5928,2.5644,2.5517,2.5601,2.3347,2.1978,2.1987,1.9985,1.8781,1.8781,1.897,1.9153,1.9423,1.955,1.9718,1.9917,1.9535,1.9161,1.8837,1.89,1.8718,1.8225,1.6704,1.5475,1.4584,1.4729,1.5321,1.6116,1.6713,1.6452,1.5589,1.4207,1.3241,1.254,0.0,0.0,0.0,0.0,0.0,0.0,0.0,0.0,0.0,0.0,1.9899,2.0385,0.0,0.0,0.0,0.0,0.0,0.0,0.0,0.0,1.9792,1.8904,1.9593,1.9988,1.9977,1.9853,1.9423,1.8687,1.8806,1.8768,1.8593,1.9468,2.0697,2.2148,2.2264,2.2362,2.239,2.1673,2.0845,1.9993,1.9965,1.9947,1.9906,1.9966,0.0,0.0,0.0,0.0,0.0,0.0,0.0,0.0,2.0988,2.1459,2.1799,2.3897,2.3707,2.3058,2.4156,2.5445,2.6718,2.7747,3.0887,3.3431,3.2411,3.4897,3.6874,3.5013,3.3516,3.2399,3.1885,2.9806,2.8425,2.9096,2.8046,2.6982,2.6636,2.6245,2.595,2.5906,2.5939,2.595,2.5906,2.5338,2.5168,2.5517,2.2965,2.1552,2.1943,1.9948,1.8781,1.8781,1.9153,1.9344,1.9423,1.9718,1.9885,1.9909,1.9419,1.8964,1.85,1.8525,1.8089,1.7167,1.465,1.361,1.3607,1.3723,1.3984,1.4373,1.534,1.4883,1.3727,1.3619,1.2758,1.1678,0.0,0.0,0.0,0.0,0.0,0.0,0.0,0.0,0.0,0.0,0.0,0.0,0.0,0.0,0.0,0.0,0.0,0.0,0.0,0.0,1.8842,1.7873,1.921,1.9955,1.9856,1.9769,1.9601,1.9381,1.9369,1.9008,1.841,1.9831,2.0666,2.1031,2.2484,2.24,2.1222,2.1763,2.123,1.9988,1.9763,1.9806,1.9966,1.9824,1.9422,0.0,0.0,0.0,0.0,0.0,0.0,0.0,2.0988,2.1079,2.0978,2.3119,2.2965,2.2621,2.4927,2.5529,2.6269,2.954,3.2387,3.4654,3.571,3.5432,3.4237,3.1702,3.2071,3.2667,3.194,3.0599,2.9475,2.9258,2.7689,2.6533,2.6582,2.6497,2.6332,2.595,2.6245,2.6279,2.5939,2.577,2.5549,2.5295,2.3337,2.2066,2.1784,1.9857,1.8781,1.8781,1.8861,1.9082,1.9415,1.9495,1.9654,1.9917,1.9857,1.9109,1.7788,1.7407,1.6089,1.4169,1.4166,1.3645,1.293,1.3207,1.3943,1.4859,1.4427,1.4205,1.4002,1.3034,1.2491,1.2219,0.0,0.0,0.0,0.0,0.0,0.0,0.0,0.0,0.0,0.0,0.0,0.0,0.0,0.0,0.0,0.0,0.0,0.0,0.0,0.0,0.0,1.8582,1.9381,1.9812,1.9712,1.9584,1.9497,1.9459,1.9357,1.9309,1.9317,2.0134,2.0733,2.1181,2.2527,2.2253,2.0837,2.1328,2.0851,1.9807,1.9661,1.9668,1.9751,1.9643,1.9388,1.9176,1.9967,0.0,0.0,0.0,0.0,0.0,0.0,0.0,2.0779,2.314,2.2881,2.2389,2.4808,2.6001,2.7637,3.2169,3.4273,3.5461,3.6207,3.4782,3.2841,3.1119,3.145,3.1886,3.1483,3.0671,2.9834,2.9135,2.8052,2.7093,2.6517,2.6336,2.6103,2.5611,2.5983,2.6092,2.56,2.5367,2.502,2.4584,2.2631,2.126,2.0784,1.9206,1.8319,1.8319,1.8319,1.8573,1.9105,1.9113,1.9368,1.9917,1.9813,1.8563,1.6368,1.5469,1.4578,1.3688,1.3077,1.291,1.3032,1.2657,1.3008,1.3745,1.3285,1.3194,1.3251,1.2654,1.2387,1.2387,0.0,0.0,0.0,0.0,0.0,0.0,0.0,0.0,0.0,0.0,0.0,0.0,0.0,0.0,0.0,0.0,0.0,0.0,0.0,0.0,0.0,0.0,1.9732,1.9688,1.9589,1.9419,1.9306,1.9271,1.9142,1.9655,2.0743,2.0562,2.0897,2.1661,2.2593,2.2168,2.0737,2.0893,2.0417,1.9582,1.9527,1.9506,1.9506,1.9462,1.9481,1.9496,1.9538,1.9593,1.9616,1.9409,0.0,0.0,0.0,0.0,2.0569,2.3076,2.274,2.2081,2.4309,2.6597,2.9415,3.3829,3.515,3.5351,3.5165,3.3534,3.1889,3.1418,3.1011,3.0686,3.0686,3.0215,2.9546,2.8774,2.829,2.7545,2.6352,2.5861,2.5502,2.515,2.5415,2.5441,2.4941,2.4514,2.3984,2.3454,2.1513,2.0131,1.9651,1.8447,1.7814,1.7814,1.7814,1.8057,1.8637,1.8654,1.8994,1.955,1.9078,1.7565,1.504,1.3754,1.3396,1.3692,1.2349,1.2321,1.3223,1.2312,1.2211,1.2543,1.2386,1.2321,1.2387,1.2387,1.2387,1.2387,0.0,0.0,0.0,0.0,0.0,0.0,0.0,0.0,0.0,0.0,1.9888,2.0218,0.0,0.0,0.0,0.0,0.0,0.0,0.0,0.0,0.0,1.9835,1.9871,1.9751,1.9525,1.9479,1.9357,1.914,1.9111,2.0138,2.2113,2.1524,2.1283,2.1426,2.3089,2.2584,2.0505,2.1253,2.0778,1.9497,1.9253,1.9308,1.949,1.9379,1.9394,1.9585,2.027,2.0412,2.0268,2.0317,2.0255,0.0,0.0,0.0,1.957,2.1608,2.1523,2.1314,2.3858,2.7133,3.0148,3.1466,3.2348,3.2961,3.3201,3.1862,3.0589,3.0617,3.0041,2.9545,2.9545,2.9013,2.852,2.817,2.7115,2.618,2.5754,2.5121,2.465,2.4585,2.4639,2.443,2.3722,2.332,2.2743,2.1859,2.0531,1.9599,1.9299,1.8351,1.7814,1.7814,1.7814,1.7854,1.7914,1.8216,1.8263,1.8057,1.6963,1.5952,1.4981,1.3632,1.2524,1.1678,1.3216,1.3491,1.2775,1.2628,1.2859,1.3179,1.2257,1.2067,1.2387,1.2387,1.2387,1.2387,0.0,0.0,0.0,0.0,0.0,0.0,0.0,0.0,0.0,0.0,0.0,2.0352,0.0,0.0,0.0,0.0,0.0,0.0,0.0,0.0,0.0,1.9775,1.9713,1.9596,1.939,1.9312,1.9222,1.9102,1.9504,2.0425,2.1808,2.2328,2.2769,2.3113,2.353,2.2914,2.1527,2.1457,2.1061,2.0496,2.0345,2.0382,2.0511,1.9964,2.0098,2.0577,2.0625,2.0807,2.0971,2.0704,2.0499,2.0335,2.0282,0.0,0.0,0.0,2.1043,2.0545,2.3086,2.5859,2.8351,2.9694,3.0612,3.1292,3.1766,3.0651,2.9537,2.9589,2.8665,2.8158,2.914,2.8826,2.8244,2.77,2.6993,2.6205,2.5332,2.4798,2.4388,2.4093,2.4323,2.4035,2.2848,2.2706,2.2071,2.0562,1.9415,1.8502,1.7846,1.725,1.6897,1.6897,1.7088,1.7286,1.7536,1.7652,1.7739,1.7771,1.7176,1.6148,1.4697,1.4138,1.2914,1.1252,1.2294,1.2789,1.2887,1.2887,1.3116,1.3491,1.3028,1.265,1.2387,1.2387,1.2387,1.2387,0.0,0.0,0.0,0.0,0.0,0.0,0.0,0.0,0.0,0.0,0.0,0.0,0.0,0.0,0.0,0.0,0.0,0.0,0.0,0.0,0.0,1.9757,1.9656,1.9516,1.9346,1.9246,1.9162,1.907,1.9822,2.0658,2.1575,2.2896,2.4058,2.503,2.4336,2.3304,2.2086,2.1861,2.158,2.1293,2.1154,2.1195,2.1251,2.0475,2.0638,2.1281,2.0931,2.1247,2.1773,2.1205,2.0883,2.0724,2.0561,1.993,0.0,0.0,0.0,2.0697,2.2407,2.4309,2.6165,2.7612,2.8776,2.9644,3.0007,2.9411,2.8768,2.8687,2.772,2.7288,2.8595,2.8347,2.7754,2.702,2.6536,2.5922,2.4898,2.4388,2.3973,2.3553,2.3731,2.3331,2.1868,2.166,2.0892,1.916,1.8259,1.7447,1.6603,1.6349,1.6166,1.6071,1.6333,1.6595,1.6873,1.6961,1.7223,1.7557,1.7422,1.6221,1.418,1.4388,1.3263,1.1186,1.1939,1.2668,1.3347,1.3588,1.3646,1.3533,1.3591,1.3075,1.2316,1.2363,1.2387,1.2387,0.0,0.0,0.0,0.0,0.0,0.0,0.0,0.0,0.0,0.0,0.0,0.0,0.0,0.0,1.9322,2.015,1.9291,1.9032,1.9761,1.9854,1.9896,1.9889,1.9883,0.0,1.9511,1.9474,1.9315,1.901,1.9804,2.0908,2.2264,2.3113,2.4608,2.6552,2.5822,2.3916,2.1345,2.2712,2.2517,2.1273,2.0948,2.0969,2.1146,2.059,2.0686,2.1139,2.1298,2.1985,2.273,2.2048,2.1791,2.1672,2.1416,2.0693,2.0238,0.0,0.0,0.0,2.2061,2.3062,2.4312,2.4726,2.6352,2.7739,2.7391,2.7953,2.8421,2.8023,2.7696,2.7477,2.7568,2.7144,2.6582,2.5983,2.5116,2.4499,2.4429,2.365,2.3067,2.3045,2.2579,2.1773,2.0614,1.9691,1.8698,1.7524,1.7028,1.6628,1.6254,1.6214,1.6047,1.5752,1.576,1.5776,1.58,1.6095,1.6481,1.6939,1.6757,1.5497,1.3372,1.3895,1.2966,1.1029,1.3432,1.4381,1.4286,1.5248,1.46,1.3057,1.3327,1.2893,1.2123,1.2316,1.2387,1.2387,0.0,0.0,0.0,0.0,0.0,0.0,0.0,0.0,0.0,0.0,0.0,0.0,0.0,1.9464,1.9258,2.0071,1.9721,1.9574,1.986,1.9842,1.9854,1.9894,1.9831,1.9687,1.9502,1.9368,1.9208,1.901,1.9722,2.059,2.1611,2.2865,2.3845,2.4605,2.53,2.5282,2.4716,2.4744,2.4217,2.3405,2.3189,2.2859,2.2468,2.2376,2.2399,2.2574,2.2973,2.3363,2.3549,2.28,2.2677,2.263,2.1608,2.1212,2.1191,2.1369,2.2089,2.2617,2.1593,2.1965,2.2751,2.3248,2.3845,2.4253,2.4061,2.4817,2.5415,2.4983,2.541,2.589,2.589,2.6621,2.6862,2.5766,2.5244,2.4682,2.3828,2.3035,2.2673,2.2968,2.2211,2.1254,2.0183,1.9187,1.8044,1.6701,1.6063,1.5682,1.5554,1.5547,1.5491,1.5364,1.5601,1.5712,1.5712,1.5921,1.6108,1.6277,1.6335,1.5275,1.3329,1.3731,1.3076,1.176,1.339,1.4154,1.4364,1.5365,1.5492,1.4931,1.4383,1.3715,1.3039,1.2428,1.2274,1.2387,0.0,0.0,0.0,0.0,0.0,0.0,0.0,0.0,0.0,0.0,0.0,0.0,0.0,0.0,1.9462,1.9969,2.0156,2.0149,1.985,2.002,2.0026,1.9776,1.9668,1.9539,1.9391,1.9264,1.9111,1.8967,1.9659,2.0399,2.1192,2.2449,2.3311,2.3857,2.5085,2.5778,2.5985,2.5954,2.5591,2.4947,2.4387,2.4178,2.4173,2.3975,2.4104,2.4396,2.4597,2.457,2.4296,2.335,2.2983,2.2804,2.21,2.2123,2.2258,2.1549,2.2084,2.2664,2.1462,2.1389,2.1723,2.2071,2.2359,2.2441,2.1938,2.3038,2.389,2.3016,2.3936,2.4869,2.4704,2.5929,2.6492,2.5224,2.4681,2.4206,2.3513,2.2753,2.2433,2.2739,2.1633,2.0491,1.9554,1.8499,1.7368,1.6141,1.561,1.53,1.5226,1.5189,1.5133,1.5006,1.5213,1.535,1.5431,1.5521,1.5599,1.5711,1.582,1.4923,1.3089,1.3405,1.2786,1.1561,1.3072,1.408,1.4804,1.5745,1.6116,1.5912,1.4986,1.4195,1.3492,1.2476,1.2212,1.2387,0.0,0.0,0.0,0.0,0.0,0.0,0.0,0.0,0.0,0.0,0.0,0.0,0.0,0.0,0.0,1.9818,2.0521,2.0607,1.9749,2.0369,2.0369,1.9529,1.9423,1.9327,1.9192,1.9202,1.9104,1.8905,1.9649,2.039,2.1126,2.1921,2.3119,2.4597,2.5354,2.5301,2.4709,2.6207,2.6442,2.5725,2.4336,2.4729,2.6038,2.5247,2.5544,2.6352,2.5926,2.5497,2.4912,2.3696,2.2771,2.2281,2.3022,2.3419,2.3397,2.2352,2.2481,2.2758,0.0,0.0,0.0,2.1118,2.196,2.2485,2.1155,2.2733,2.4024,2.2367,2.3393,2.4473,2.4066,2.4879,2.5258,2.4191,2.3263,2.2893,2.3481,2.2786,2.2258,2.2233,2.0813,1.9472,1.8653,1.758,1.6552,1.5742,1.565,1.5545,1.5189,1.5165,1.5006,1.4613,1.4605,1.4699,1.4897,1.4905,1.5027,1.5295,1.5288,1.4385,1.2778,1.2909,1.2021,1.0452,1.2547,1.4209,1.5502,1.6478,1.648,1.5778,1.496,1.4136,1.3321,1.2475,1.2266,1.2387,0.0,0.0,0.0,0.0,0.0,0.0,0.0,0.0,0.0,0.0,0.0,0.0,0.0,0.0,1.9855,1.9662,1.9816,1.9773,1.9427,1.9594,1.9608,1.9376,1.9331,1.9266,1.9123,1.9082,1.9008,1.8905,1.9629,2.0368,2.1126,2.1921,2.2839,2.3856,2.5193,2.5511,2.5227,2.6935,2.7363,2.6801,2.5936,2.5244,2.4812,2.5402,2.4872,2.398,2.5162,2.5337,2.4839,2.3579,2.4214,2.547,2.4958,2.4135,2.3301,2.2838,2.2557,2.2269,2.1983,0.0,0.0,0.0,0.0,0.0,1.983,2.0769,2.1538,2.052,2.1329,2.2133,2.1707,2.1538,2.1498,2.1629,2.2359,2.2835,2.2551,2.1479,2.0804,2.1049,2.0285,1.9394,1.8543,1.7523,1.6453,1.5429,1.5078,1.4851,1.4756,1.4756,1.4708,1.4605,1.4605,1.4581,1.4538,1.4632,1.4866,1.524,1.5094,1.4676,1.3968,1.3145,1.2149,1.1037,1.1669,1.2771,1.4333,1.6158,1.6902,1.6831,1.6126,1.5277,1.4384,1.3607,1.2948,1.2387,0.0,0.0,0.0,0.0,0.0,0.0,0.0,0.0,0.0,0.0,0.0,0.0,0.0,0.0,2.0559,2.0022,2.0252,2.008,1.9266,1.952,1.9543,1.9156,1.9123,1.9084,1.8983,1.8966,1.8931,1.8869,1.9279,2.0055,2.1108,2.1569,2.2351,2.3395,2.4893,2.5393,2.5251,2.6976,2.7679,2.754,2.6458,2.6007,2.6016,2.6065,2.5523,2.4795,2.5409,2.5481,2.502,2.3126,2.3695,2.4992,2.4133,2.374,2.3451,2.2709,2.2307,2.2017,2.1723,2.1212,2.0699,2.0482,0.0,0.0,1.9516,2.0079,2.0483,1.9593,2.0301,2.0965,2.057,2.0444,2.055,2.0881,2.1143,2.1319,2.1374,2.0438,1.9814,2.0063,1.9311,1.8516,1.7929,1.6965,1.6025,1.5232,1.4816,1.4605,1.4605,1.4605,1.4569,1.4533,1.4533,1.4389,1.4145,1.4234,1.4404,1.4687,1.4345,1.3926,1.3528,1.2534,1.1617,1.0766,1.1154,1.1937,1.3166,1.4786,1.6221,1.7214,1.656,1.6025,1.5506,1.4798,1.4208,1.3776,0.0,0.0,0.0,0.0,0.0,0.0,0.0,0.0,0.0,0.0,0.0,0.0,0.0,0.0,0.0,0.0,2.1247,2.0958,1.931,1.9865,1.9885,1.9067,1.8923,1.8896,1.8913,1.8896,1.8896,1.8921,1.8992,1.9794,2.1212,2.1281,2.1993,2.3258,2.457,2.51,2.507,2.659,2.7513,2.7794,2.6437,2.6856,2.8149,2.6931,2.6638,2.6823,2.5952,2.5587,2.5176,2.283,2.2333,2.2611,2.21,2.2834,2.3616,2.2239,2.192,2.1873,2.1134,2.0451,0.0,2.016,2.0282,0.0,1.9748,2.0158,2.0343,1.9307,1.9922,2.0482,2.0091,2.0548,2.0969,2.0934,1.9705,1.9107,2.0029,1.9523,1.9075,1.9116,1.8134,1.7368,1.7068,1.6258,1.5534,1.5121,1.4787,1.4589,1.455,1.4581,1.4533,1.4389,1.4397,1.4181,1.3797,1.3797,1.3903,1.404,1.3404,1.2872,1.2438,1.1668,1.0911,1.0197,1.0862,1.1503,1.2159,1.2979,1.4858,1.7073,1.6553,1.6453,1.6533,1.5976,1.582,1.5755,0.0,0.0,0.0,0.0,0.0,0.0,0.0,0.0,0.0,0.0,0.0,0.0,0.0,0.0,0.0,0.0,2.1314,2.095,1.9891,1.9875,1.9864,1.9789,1.9109,1.9045,1.9674,1.9063,1.9017,1.9605,2.0253,2.1026,2.193,2.2394,2.3092,2.3951,2.4635,2.5116,2.5438,2.6401,2.682,2.6869,2.7474,2.7375,2.6879,2.6809,2.5644,2.4075,2.4452,2.4563,2.4448,2.4202,2.3524,2.2841,2.3208,2.3287,2.3094,2.2212,2.18,2.1459,2.0786,2.0106,1.9591,1.9584,1.9738,0.0,1.9386,1.9771,2.0006,1.9251,1.9285,1.931,1.8906,1.8943,1.8927,1.8533,1.821,1.8156,1.8574,1.841,1.8002,1.7395,1.7737,1.7678,1.6786,1.6516,1.603,1.5172,1.4787,1.4478,1.4193,1.4348,1.4433,1.4389,1.4245,1.4029,1.3797,1.3797,1.4015,1.4377,1.3507,1.3411,1.3898,1.2121,1.1293,1.1238,1.0542,1.0977,1.2113,1.2296,1.3831,1.6137,1.6533,1.6633,1.666,1.7035,1.662,1.5861,0.0,0.0,0.0,0.0,0.0,0.0,0.0,0.0,0.0,0.0,0.0,0.0,2.3409,2.3358,0.0,0.0,0.0,0.0,0.0,2.1102,2.1114,2.1047,2.0628,2.0767,2.1589,2.082,2.0579,2.0944,2.0983,2.1512,2.2487,2.2768,2.318,2.3735,2.4722,2.5179,2.5272,2.6264,2.7118,2.7698,2.7098,2.6571,2.6104,2.5728,2.4833,2.3779,2.3893,2.3696,2.3422,2.3844,2.3507,2.2899,2.2863,2.3183,2.3349,2.2381,2.2053,2.1885,2.1255,2.0389,1.968,1.9733,1.9392,0.0,0.0,1.92,1.9363,1.9008,1.8898,1.8784,1.8592,1.8519,1.8422,1.8187,1.8199,1.8109,1.772,1.7505,1.719,1.6562,1.6769,1.6768,1.6283,1.6028,1.5617,1.4897,1.4382,1.4011,1.3776,1.3979,1.4026,1.3856,1.3909,1.3855,1.3645,1.3645,1.3586,1.3407,1.272,1.2432,1.241,1.1182,1.0696,1.0749,1.0212,1.0557,1.1506,1.139,1.2565,1.4497,1.5455,1.6156,1.6747,1.7246,1.7501,1.7509,2.124,0.0,0.0,0.0,0.0,0.0,0.0,0.0,0.0,2.3281,2.3789,2.4316,2.4765,2.4754,2.4375,2.3576,0.0,0.0,2.2755,2.2539,2.2436,2.237,2.2053,2.2317,2.3247,2.2352,2.2017,2.2288,2.1489,2.1791,2.3093,2.2933,2.3171,2.3739,2.4611,2.5118,2.537,2.6058,2.7058,2.8045,2.6053,2.5768,2.6399,2.527,2.4778,2.4563,2.3766,2.3109,2.2676,2.3076,2.3118,2.29,2.2405,2.2977,2.3658,2.2601,2.2325,2.22,2.158,2.0591,1.9781,1.995,1.9232,1.8547,0.0,0.0,0.0,1.8655,1.8541,1.8465,1.8427,1.8309,1.819,1.8221,1.8362,1.8112,1.7015,1.6883,1.6751,1.6239,1.6053,1.592,1.586,1.5477,1.4962,1.4374,1.3974,1.3562,1.3228,1.3452,1.3527,1.3297,1.3523,1.3614,1.3492,1.3492,1.3156,1.2532,1.1961,1.1364,1.0768,1.0241,1.0018,1.0056,1.0013,1.0308,1.0768,1.0674,1.1406,1.2727,1.399,1.5295,1.649,1.7096,1.8011,1.8821,2.1702,2.1762,0.0,0.0,0.0,0.0,0.0,0.0,0.0,2.465,2.4486,2.4347,2.4538,2.4242,2.4088,2.4264,2.3668,2.3703,2.4693,2.3238,2.2624,2.3313,2.1866,2.1684,2.3084,2.1755,2.1684,2.2979,2.2004,2.2322,2.3773,2.3351,2.3877,2.5111,2.4031,2.4757,2.6777,2.5555,2.5137,2.5317,2.4695,2.6336,2.8987,2.7397,2.6454,2.5745,2.3833,2.3105,2.3023,2.2965,2.2942,2.2938,2.3021,2.3221,2.3275,2.2787,2.2244,2.157,2.0568,1.9924,1.9535,1.957,1.9381,1.9244,1.9445,0.0,1.8868,1.8161,0.0,1.7941,1.7821,0.0,0.0,1.715,1.7491,1.7311,1.6123,1.6804,1.7088,1.6221,1.6557,1.655,1.5803,1.5399,1.4725,1.3543,1.3924,1.3688,1.2484,1.2742,1.3024,1.3289,1.3151,1.3199,1.3492,1.3492,1.3455,1.3353,1.2233,1.174,1.1799,1.0567,1.0099,1.027,1.008,1.0146,1.0371,1.0716,1.0948,1.1284,1.2778,1.4042,1.5221,1.6718,1.7404,1.7685,2.2222,2.1962,2.1941,0.0,0.0,0.0,0.0,0.0,2.4454,2.4888,2.5087,2.5339,2.5799,2.599,2.5968,2.5594,2.5445,2.5465,2.5728,2.4493,2.4345,2.5648,2.432,2.4328,2.5979,2.4178,2.3632,2.4423,2.3345,2.3302,2.4252,2.4284,2.4431,2.4629,2.4489,2.4625,2.501,2.4942,2.5416,2.6143,2.5162,2.6432,2.8632,2.6082,2.4972,2.4525,2.2847,2.2226,2.2208,2.2056,2.2294,2.2566,2.2335,2.2782,2.3239,2.2649,2.2526,2.2461,2.1875,2.1205,2.0604,2.0381,1.9651,1.8969,1.8835,1.8528,1.8194,1.784,0.0,0.0,0.0,0.0,0.0,0.0,1.7437,1.7413,1.7064,1.731,1.7086,1.5936,1.5853,1.5628,1.4942,1.4647,1.4282,1.3765,1.3444,1.3017,1.2332,1.2425,1.2595,1.2826,1.2941,1.317,1.3492,1.3492,1.3046,1.2127,1.1958,1.1447,1.0611,1.0328,1.0232,1.0308,1.0089,1.0255,1.0641,1.0688,1.0924,1.1309,1.184,1.2771,1.3972,1.479,1.5593,1.6336,2.269,2.2264,2.2064,2.3465,2.3359,0.0,0.0,2.4475,2.4853,2.5101,2.548,2.5929,2.6495,2.6762,2.6743,2.6342,2.6062,2.6007,2.6188,2.527,2.5206,2.6279,2.5771,2.6033,2.7299,2.5753,2.518,2.5672,2.4517,2.4198,2.4668,2.4913,2.4894,2.4675,2.4897,2.4729,2.4307,2.4471,2.5119,2.5967,2.4685,2.5342,2.6814,2.467,2.3851,2.3634,2.2263,2.1966,2.2217,2.2136,2.2261,2.2481,2.2297,2.2673,2.3116,2.2602,2.2658,2.2772,2.2445,2.1891,2.1277,2.0643,1.9818,1.9022,1.8476,1.8221,1.7965,1.7531,1.7558,0.0,0.0,0.0,1.6777,1.7038,0.0,1.7205,1.7136,1.7144,1.6884,1.615,1.5613,1.5143,1.4795,1.4475,1.4164,1.3915,1.3368,1.2762,1.22,1.2282,1.2387,1.2504,1.2753,1.3075,1.3492,1.3492,1.2783,1.1459,1.2034,1.1475,0.9949,1.0426,1.0537,1.0308,1.0151,1.0447,1.1003,1.1069,1.132,1.1599,1.1663,1.2073,1.273,1.329,1.4128,1.5046,2.3017,2.2691,2.2462,2.3345,2.3229,2.3158,2.3639,2.4288,2.4955,2.5686,2.5624,2.5614,2.5896,2.5305,2.5187,2.5962,2.4314,2.4071,2.6075,2.5148,2.4292,2.383,2.4768,2.5338,2.5389,2.5123,2.5447,2.637,2.5167,2.475,2.5079,2.4889,2.5283,2.6074,2.495,2.513,2.6176,2.4197,2.3308,2.3137,2.226,2.2612,2.3705,2.4133,2.4213,2.3923,2.2636,2.2894,2.3826,2.3808,2.3352,2.2924,2.3592,2.3326,2.2751,2.2855,2.244,2.181,2.1154,2.1075,2.0934,1.9736,1.9807,1.9887,1.8913,1.8885,1.8623,1.7156,1.719,1.7323,1.6744,1.6083,1.5737,1.6,1.6326,0.0,0.0,1.5792,1.6485,1.7174,1.6373,1.5822,1.5925,1.5345,1.4583,1.3675,1.3961,1.3485,1.1896,1.2236,1.2506,1.2504,1.2499,1.2848,1.3484,1.3492,1.3083,1.2274,1.2822,1.2243,1.0779,1.132,1.1098,1.0317,1.0312,1.0681,1.1326,1.2051,1.216,1.195,1.2672,1.2261,1.1447,1.2927,1.351,1.3786,2.2319,2.2388,2.2461,2.3061,2.325,2.3461,2.3835,2.4576,2.5274,2.5743,2.6518,2.7119,2.7389,2.7234,2.7023,2.6767,2.5412,2.4984,2.6049,2.5393,2.5073,2.5325,2.6167,2.6304,2.5647,2.5564,2.5545,2.5603,2.5014,2.4789,2.4919,2.5197,2.5186,2.4952,2.4931,2.4433,2.3613,2.3239,2.3044,2.2905,2.225,2.2546,2.3303,2.2749,2.3237,2.4068,2.2788,2.2326,2.2293,2.2153,2.2208,2.2293,2.2078,2.2317,2.2531,2.1571,2.1421,2.1397,2.0596,2.0415,2.0331,1.9745,1.9424,1.9167,1.8684,1.8391,1.8038,1.7343,1.7506,1.758,1.6981,1.6578,1.6334,1.6321,1.5879,1.5712,0.0,1.6339,1.6448,1.6726,1.5883,1.5274,1.5276,1.4877,1.4443,1.4035,1.3604,1.3031,1.2374,1.2207,1.2204,1.2489,1.2485,1.2833,1.3484,1.3492,1.3083,1.2311,1.2738,1.2653,1.2047,1.1575,1.1739,1.2349,1.1409,1.1624,1.2808,1.324,1.3614,1.3781,1.3474,1.2984,1.2516,1.2419,1.238,1.2516,2.2078,2.243,2.2781,2.3154,2.3673,2.4002,2.3942,2.4701,2.5434,2.5863,2.6652,2.7414,2.7973,2.7885,2.7498,2.6883,2.585,2.5419,2.5808,2.5646,2.551,2.5521,2.6448,2.6327,2.4928,2.556,2.5772,2.5468,2.5532,2.5384,2.5113,2.5282,2.5017,2.4426,2.5028,2.4334,2.2673,2.2932,2.2698,2.212,2.1603,2.2084,2.3017,2.2271,2.3138,2.4545,2.2818,2.2209,2.2201,2.184,2.193,2.2088,2.1366,2.1608,2.1904,2.0691,2.064,2.0786,2.0139,2.003,1.9943,1.9336,1.9164,1.8925,1.8254,1.8227,1.8205,1.7704,1.7888,1.7873,1.7106,1.6929,1.6743,1.6312,1.5821,1.5728,0.0,1.6048,1.5895,1.6179,1.5615,1.5244,1.5453,1.5234,1.4899,1.4489,1.4154,1.3558,1.2594,1.2505,1.2491,1.2497,1.2485,1.2892,1.366,1.355,1.314,1.2502,1.3147,1.3145,1.2506,1.2392,1.2706,1.3288,1.2419,1.2809,1.4057,1.4526,1.4949,1.5238,1.4414,1.3701,1.3075,1.223,1.1978,1.2096,2.2297,2.2841,2.3351,2.3558,2.4329,2.4664,2.3966,2.4685,2.5515,2.6064,2.6239,2.6683,2.7643,2.7224,2.6726,2.633,2.5618,2.5263,2.5389,2.5901,2.5615,2.4347,2.5693,2.5453,2.3263,2.5154,2.6084,2.5892,2.654,2.6445,2.5679,2.5118,2.4756,2.4567,2.5179,2.4684,2.3387,2.3171,2.2188,2.0766,2.0384,2.1247,2.2731,2.2677,2.3864,2.5218,2.2772,2.2614,2.3471,2.2848,2.2525,2.2223,2.1545,2.1187,2.0901,2.0226,2.0063,1.9965,1.9685,1.9813,1.9727,1.856,1.8966,1.9218,1.777,1.8369,1.8994,1.8134,1.825,1.8159,1.7101,1.7105,1.6943,1.599,1.6109,1.6088,1.5433,1.4954,1.4933,1.5586,1.5554,1.5732,1.6416,1.6384,1.5916,1.4983,1.5527,1.4889,1.2564,1.3146,1.3215,1.253,1.2507,1.3001,1.399,1.3653,1.3283,1.2867,1.3941,1.3739,1.2384,1.3775,1.3941,1.3147,1.3458,1.4173,1.5138,1.5831,1.6211,1.6362,1.5501,1.4435,1.3224,1.2392,1.2257,1.2495,2.224,2.2912,2.3343,2.3499,2.361,2.3887,2.4526,2.5852,2.6766,2.6777,2.8292,2.9114,2.8372,2.8209,2.7656,2.6415,2.6385,2.6159,2.5537,2.6617,2.6388,2.4387,2.6375,2.577,2.2036,2.5272,2.6188,2.4497,2.5575,2.5905,2.5529,2.4706,2.4091,2.3725,2.4394,2.3769,2.2265,2.2635,2.2031,2.0791,2.0688,2.1777,2.3324,2.2272,2.3022,2.4506,2.3505,2.3059,2.2818,2.1994,2.1714,2.1514,2.0677,2.0387,2.0226,1.9497,1.9276,1.9164,1.8602,1.8494,1.8465,1.8164,1.8258,1.8324,1.7948,1.8114,1.8207,1.7785,1.8041,1.8114,1.7341,1.7578,1.7495,1.629,1.5716,1.5221,1.4657,1.4481,1.4617,1.5198,1.51,1.532,1.6204,1.6386,1.6068,1.5196,1.5711,1.5109,1.2965,1.3502,1.3444,1.2545,1.276,1.3126,1.3616,1.3536,1.3549,1.371,1.3986,1.4288,1.4587,1.4313,1.4545,1.5137,1.4759,1.5282,1.6459,1.7091,1.7679,1.8031,1.6994,1.5889,1.4584,1.2635,1.2659,1.3759,2.2094,2.2646,2.3167,2.3864,2.4,2.4302,2.5092,2.5735,2.6354,2.6956,2.813,2.8682,2.8104,2.8182,2.7903,2.6863,2.6552,2.6474,2.6666,2.6742,2.6311,2.5228,2.6196,2.5188,2.1844,2.4255,2.4884,2.3508,2.439,2.4872,2.4937,2.4208,2.361,2.3171,2.3816,2.3307,2.1956,2.1876,2.1537,2.1064,2.0906,2.1743,0.0,2.217,2.2488,2.3306,2.2714,2.2279,2.1932,2.142,2.106,2.0677,1.9868,1.9606,1.9474,1.8754,1.8563,1.8496,1.811,1.8008,1.8008,1.8008,1.8008,1.8008,1.8008,1.8008,1.7962,1.7908,1.8055,1.7975,1.7361,1.7597,1.7575,1.6662,1.6035,1.5553,1.5268,1.4857,1.4867,1.5588,1.5188,1.5223,1.6138,1.6504,1.6341,1.5546,1.6175,1.5657,1.3558,1.3959,1.3803,1.2758,1.3331,1.3733,1.3954,1.4201,1.4362,1.4399,1.4399,1.4684,1.5185,1.4993,1.5255,1.5892,1.5716,1.6204,1.7131,1.7534,1.8117,1.8737,1.7599,1.6452,1.5231,1.3907,1.4046,1.4874,2.1774,2.2229,2.2951,2.4228,2.4721,2.5116,2.5558,2.5357,2.5575,2.6811,2.705,2.7138,2.7347,2.7584,2.7525,2.7037,2.6228,2.6266,2.7603,2.6401,2.5742,2.6005,2.5454,2.4129,2.1956,2.2855,2.3221,2.2965,2.3474,2.3951,2.4325,2.3804,2.326,2.2778,2.3297,2.2972,2.1969,2.1036,2.0824,2.1126,2.0817,2.119,2.1894,2.1894,2.1929,2.1926,2.127,2.1085,2.106,2.0901,2.0452,1.9835,1.911,1.8877,1.8754,1.8168,1.8008,1.8008,1.8008,1.8008,1.8008,1.8008,1.8008,1.8008,1.8008,1.8008,1.8042,1.8202,1.8134,1.7884,1.7384,1.7428,1.7364,1.6994,1.6606,1.6381,1.6407,1.5708,1.5462,1.6221,1.5614,0.0,1.6239,1.6745,1.6726,1.6034,1.6854,1.6416,1.4139,1.4489,1.4194,1.3037,1.3916,1.4504,1.4636,1.5109,1.5243,1.509,1.5002,1.5009,1.5112,1.5716,1.5972,1.5965,1.6425,1.6936,1.7425,1.752,1.8094,1.8724,1.7767,1.6729,1.5826,1.5936,1.611,1.618,2.1116,2.2069,2.2953,2.3582,2.3986,2.4542,2.5586,2.7031,2.7555,2.6419,2.7593,2.8074,2.6832,2.6811,2.6367,2.5044,2.5434,2.5595,2.5098,2.5501,2.542,2.4594,2.4471,2.3293,2.0903,2.2679,2.351,2.3223,2.4034,2.4618,2.4987,2.3879,2.304,2.2482,2.2589,2.2115,2.118,2.0479,2.007,1.9835,1.9771,1.9954,2.0225,2.0225,2.0511,2.0941,2.0808,2.0916,2.0933,1.9759,1.9299,1.9077,1.8395,1.8178,1.8134,1.8042,1.8008,1.8008,1.8008,1.8008,1.8008,1.8008,1.8008,1.8008,1.8008,1.8008,1.8008,1.8042,1.8178,1.8162,1.7913,1.7414,1.7059,1.7124,1.6585,1.6206,1.6367,1.6248,1.6064,1.5858,1.6205,1.6456,1.6406,1.7131,1.7263,1.6377,1.762,1.7158,1.425,1.4975,1.4743,1.3044,1.3697,1.445,1.5214,1.5061,1.5352,1.6111,1.5592,1.5613,1.6126,1.6279,1.6287,1.6338,1.698,1.7296,1.7439,1.776,1.8164,1.8447,1.7974,1.7945,1.8215,1.8215,1.8414,1.8527,2.1673,2.2245,2.2937,2.3775,2.389,2.412,2.4773,2.58,2.6518,2.6512,2.7174,2.7232,2.6098,2.6359,2.6246,2.5322,2.5161,2.5133,2.5179,2.486,2.4506,2.4213,2.3943,2.3044,2.1464,2.1863,2.2224,2.2474,2.2675,2.3199,2.3991,2.3513,2.2979,2.2377,2.185,2.1247,2.0548,1.983,1.9501,1.9465,1.9311,1.9514,1.9959,2.0092,2.0471,2.0868,2.0581,2.058,2.0548,1.9648,1.91,1.8694,1.8178,1.812,1.8256,1.8076,1.8164,1.8295,1.8295,1.8174,1.8057,1.8247,1.813,1.8008,1.8008,1.8008,1.8008,1.8008,1.8076,1.811,1.8008,1.769,1.7537,1.7808,1.7384,1.7073,1.7378,1.7015,1.6643,1.6386,1.6686,1.684,1.6628,1.7427,1.7626,1.6868,1.7645,1.7258,1.5278,1.5514,1.5132,1.3884,1.44,1.4874,1.5133,1.5679,1.6082,1.6411,1.606,1.6074,1.6419,1.6461,1.6538,1.668,1.6935,1.719,1.7455,1.7703,1.7782,1.7743,1.7902,1.8145,1.8397,1.8561,1.8778,1.8966,2.2163,2.2288,2.2723,2.3642,2.3715,2.3682,2.3752,2.4096,2.4797,2.6082,2.591,2.5501,2.5088,2.5444,2.5596,2.5394,2.4742,2.4597,2.5244,2.4164,2.3593,2.3934,2.3341,2.2662,2.194,2.0865,2.0728,2.1582,2.1369,2.1812,2.2914,2.3201,2.2904,2.2049,2.1141,2.0441,1.9856,1.9154,1.897,1.9157,1.8805,1.9107,1.9751,2.0003,2.0376,2.0724,2.0365,2.0282,2.0292,1.989,1.9229,1.8559,1.8359,1.8447,1.8559,1.835,1.8516,1.8724,1.8627,1.8364,1.8188,1.852,1.8286,1.8037,1.8125,1.8076,1.8008,1.8008,1.8008,1.8008,1.8008,1.7964,1.8032,1.8414,1.8228,1.8117,1.8375,1.7883,1.739,1.7132,1.7236,1.7216,1.7021,1.7683,1.7922,1.7403,1.7603,1.73,1.6291,1.5965,1.5541,1.4935,1.5245,1.5425,1.5513,1.6352,1.6807,1.6822,1.6617,1.6624,1.6784,1.6798,1.6883,1.6999,1.6995,1.7168,1.7499,1.7541,1.7418,1.7332,1.7752,1.7958,1.8093,1.8338,1.8593,1.8719,2.1547,2.1743,2.1951,2.2171,2.2762,2.3125,2.3011,2.3501,2.393,2.4049,2.3391,2.3062,2.3528,2.3351,2.3178,2.3277,2.3574,2.3629,2.3275,2.3135,2.3075,2.3113,2.2273,2.1511,2.0949,1.9952,2.0002,2.1142,2.1552,2.2125,2.2907,2.3368,2.2665,2.1021,2.0512,1.9789,1.8879,1.8446,1.8269,1.8183,1.7803,1.8004,1.8589,1.8808,1.9215,1.9741,1.9891,2.0221,2.0486,2.0054,1.9314,1.8666,1.9062,1.8926,1.8676,1.9062,1.9189,1.9141,1.8705,1.8568,1.8549,1.8588,1.8286,1.8115,1.8451,1.8247,1.8008,1.8008,1.8008,1.8008,1.8008,1.7974,1.8076,1.8269,1.8591,1.8725,1.8506,1.8761,1.862,1.7594,1.8005,1.8145,1.7647,1.8031,1.8155,1.7868,1.8085,1.7687,1.6442,1.6254,1.6092,1.5945,1.5606,1.6067,1.753,1.6791,1.6989,1.8108,1.7277,1.7314,1.8116,1.7797,1.7558,1.7382,1.7732,1.7764,1.7574,1.7365,1.7502,1.7914,1.7719,1.7936,1.8387,1.8408,1.8422,1.8464,2.1762,2.1828,2.2063,2.2426,2.2372,2.2532,2.3112,2.2838,2.2809,2.3487,2.3403,2.3261,2.3216,2.334,2.334,2.3257,2.3658,2.3802,2.3444,2.3438,2.3307,2.3012,2.203,2.1388,2.1171,2.0097,1.9862,2.0496,2.0924,2.1285,2.1593,2.186,2.1341,2.0153,1.9596,1.9124,1.8703,1.8324,1.8135,1.8072,1.7898,1.8156,1.8618,1.8929,1.9374,1.985,2.0188,2.0458,2.0576,2.0361,1.9902,1.9385,1.9316,1.9346,1.9385,1.9307,1.9463,1.9629,1.9416,1.8987,1.8724,1.9241,1.8666,1.8193,1.8867,1.8691,1.8432,1.8721,1.8779,1.8701,1.8403,1.8702,1.9088,1.9403,1.9469,1.9476,1.9379,1.9274,1.8821,1.7861,1.8177,1.8265,1.7706,1.8045,1.8299,1.832,1.8183,1.7886,1.7408,1.6635,1.6336,1.6591,1.5789,1.5833,1.6667,1.6857,1.7304,1.8006,1.7816,1.7925,1.8291,1.7775,1.7348,1.6995,1.7349,1.7319,1.7061,1.7172,1.7324,1.7542,1.7603,1.7743,1.7918,1.8109,1.8167,1.8215,2.201,2.2179,2.244,2.291,2.2566,2.2519,2.3301,2.2413,2.1989,2.2799,2.3062,2.3079,2.2836,2.313,2.335,2.3387,2.3833,2.3911,2.3468,2.3453,2.316,2.2488,2.1612,2.1104,2.1151,2.0032,1.9647,1.9996,2.0306,2.0514,2.054,2.0631,2.0288,1.9581,1.9017,1.8748,1.8687,1.8255,1.8219,1.842,1.8301,1.854,1.8928,1.9246,1.954,1.9863,2.0333,2.0489,2.0527,2.0566,2.04,2.0049,1.9756,1.9775,1.9883,1.9717,1.9873,2.0078,1.9951,1.9436,1.9124,1.9766,1.9141,1.8574,1.9307,1.9141,1.8916,1.9219,1.9287,1.9189,1.8887,1.918,1.9587,1.9875,1.9909,1.984,1.972,1.9437,1.8959,1.8288,1.8578,1.8574,1.7929,1.8363,1.8641,1.8517,1.8074,1.7887,1.7976,1.6954,1.653,1.6927,1.6014,1.5776,1.633,1.6901,1.745,1.7962,1.8094,1.8255,1.843,1.7672,1.7155,1.6924,1.7042,1.6947,1.686,1.7206,1.738,1.7435,1.7635,1.7776,1.7862,1.7942,1.8017,1.8068,2.2145,2.274,2.3153,2.3371,2.3371,2.3381,2.3391,2.2413,2.1696,2.1741,2.1741,2.1841,2.2079,2.2192,2.2525,2.3316,2.3833,2.3738,2.2864,2.2801,2.232,2.1262,2.0705,2.0474,2.0595,1.9492,1.9185,1.9781,1.989,2.0018,2.0191,2.0082,1.9804,1.9393,1.8911,1.8705,1.8687,1.8255,1.8577,1.9256,1.8861,1.8944,1.9292,1.9508,1.9597,1.9685,2.0147,2.0303,2.0342,2.0527,2.0595,2.0595,2.0595,2.0254,2.0,2.0458,2.0595,2.0507,2.0029,1.9902,1.9902,1.9912,1.959,1.9385,1.9814,1.958,1.9277,1.9287,1.9287,1.9287,1.9277,1.9287,1.9297,1.9297,1.9639,1.9766,1.9346,1.9287,1.9193,1.8913,1.9284,1.9312,1.8562,1.9143,1.9231,1.8383,1.7741,1.756,1.799,1.7159,1.6804,1.7007,1.6269,1.636,1.725,1.7011,1.7394,1.8291,1.7969,1.816,1.876,1.7626,1.726,1.7449,1.6907,1.6874,1.7219,1.7455,1.7756,1.7982,1.7982,1.8223,1.8444,1.8102,1.7975,1.807,2.1822,2.2029,2.2157,2.2246,2.2246,2.2501,2.326,2.2413,2.1989,2.2755,2.2157,2.173,2.1822,2.1847,2.2142,2.2906,2.2779,2.2637,2.2527,2.2188,2.1566,2.0689,2.0118,1.9683,1.952,1.8707,1.8392,1.8646,1.8946,1.9092,1.9174,1.9118,1.9042,1.892,1.8765,1.8861,1.91,1.8981,1.9072,1.9292,1.9164,1.9191,1.9301,1.9518,1.9606,1.9645,1.9912,2.0029,2.002,2.0098,2.0137,2.0137,2.0137,2.0236,2.0429,2.0566,2.0605,2.0576,2.0429,2.0137,1.999,2.0283,1.9814,1.9473,2.0195,2.0292,2.0116,1.9775,1.9951,2.0106,1.9766,1.9961,2.0194,2.0194,2.0273,2.0205,1.9775,1.9717,1.9597,1.9213,1.9291,1.9298,1.9085,1.9239,1.9534,1.9838,1.8789,1.8107,1.7999,1.6915,1.6549,1.7115,1.6799,1.6806,1.7279,1.7669,1.7999,1.8299,1.8196,1.8138,1.8116,1.7426,1.7036,1.6903,1.6731,1.676,1.6887,1.7382,1.7762,1.8009,1.827,1.8283,1.8203,1.8523,1.8347,1.8047,2.1696,2.2033,2.2334,2.2334,2.2334,2.2589,2.3304,2.2271,2.1668,2.2394,2.1748,2.115,2.115,2.115,2.1597,2.2706,2.2325,2.1995,2.2012,2.1536,2.0845,1.9943,1.9427,1.9158,1.9191,1.8423,1.8152,1.8458,1.8607,1.8687,1.871,1.8857,1.8935,1.8935,1.8935,1.9072,1.9301,1.9301,1.9301,1.9301,1.9301,1.9301,1.9301,1.9429,1.9478,1.9508,1.9715,1.9794,1.9794,1.9863,1.9902,1.9902,1.9902,2.0098,2.0333,2.0333,2.0411,2.0498,2.0498,2.0255,2.011,2.042,2.009,1.9837,2.0439,2.0605,2.0527,2.0215,2.0419,2.0517,2.0215,2.0381,2.0605,2.0605,2.0605,2.0507,2.0195,2.0019,1.9835,1.9673,1.9381,1.9127,1.8928,1.9089,1.9307,1.9593,1.8754,1.8098,1.7783,1.6906,1.6593,1.69,1.6885,1.7011,1.7279,1.7852,1.8116,1.8116,1.8116,1.8013,1.7768,1.7389,1.7153,1.7111,1.7066,1.7093,1.7234,1.7608,1.8003,1.8328,1.8464,1.8444,1.837,1.8659,1.8509,1.8227,2.1696,2.2545,2.326,2.326,2.326,2.326,2.326,2.1952,2.0997,2.0952,2.0555,2.0292,2.0292,2.0292,2.0916,2.2485,2.2138,2.1653,2.1284,2.0813,2.0122,1.9075,1.8769,1.8839,1.9356,1.8449,1.825,1.8877,1.8723,1.866,1.866,1.9033,1.9222,1.9222,1.9222,1.9222,1.9222,1.9222,1.9262,1.9262,1.9301,1.9301,1.9301,1.9301,1.9301,1.9301,1.9518,1.9566,1.9597,1.9784,1.9863,1.9863,1.9863,1.9863,1.9863,1.9902,2.0069,2.0255,2.0226,2.0245,2.0255,2.0187,2.0236,2.0294,2.0489,2.0586,2.0605,2.0605,2.0605,2.0605,2.0605,2.0605,2.0605,2.0605,2.0605,2.0605,2.0605,2.0215,2.0022,2.0217,1.9578,1.8919,1.8359,1.8762,1.8804,1.817,1.7939,1.7728,1.7497,1.7216,1.6863,1.6433,1.6807,1.7099,1.7344,1.7699,1.7838,1.7816,1.7816,1.783,1.7852,1.757,1.7589,1.7889,1.7696,1.7781,1.801,1.8023,1.8384,1.8865,1.8617,1.8671,1.8881,1.8653,1.8536,1.8567,2.1696,2.1909,2.2122,2.2122,2.2122,2.198,2.1606,2.1257,2.0862,2.051,2.0382,2.0292,2.0292,2.0292,2.0473,2.0871,2.0456,2.0133,2.0048,1.955,1.9032,1.8495,1.8398,1.8194,1.7819,1.7603,1.7548,1.7789,1.804,1.8161,1.8161,1.8273,1.8313,1.8313,1.8313,1.8313,1.8313,1.8683,1.8851,1.8851,1.9192,1.9301,1.9301,1.9301,1.9301,1.9301,1.9341,1.939,1.9381,1.942,1.942,1.942,1.942,1.942,1.9499,1.9824,1.9942,1.9914,1.9601,1.9744,1.9868,1.9221,1.9468,1.9869,1.9907,2.0265,2.0605,2.0605,2.0605,2.0605,2.0605,2.0605,2.0605,2.0605,2.0605,2.0605,2.0605,2.0362,2.0111,1.986,2.0076,1.9724,1.8491,1.9327,1.9706,1.9261,1.8573,1.8271,1.8447,1.7911,1.735,1.68,1.753,1.7999,1.8072,1.8145,1.8064,1.7816,1.7816,1.7947,1.8189,1.7901,1.7796,1.7889,1.7892,1.7965,1.8018,1.8309,1.8585,1.8876,1.8814,1.883,1.8897,1.9071,1.9001,1.8864,2.106,2.106,2.106,2.106,2.106,2.097,2.0736,2.0501,2.0275,2.0011,1.9783,1.9608,1.9608,1.9608,1.9608,1.9608,1.96,1.9592,1.9592,1.9096,1.8694,1.8549,1.839,1.8049,1.756,1.74,1.7229,1.7066,1.7514,1.7716,1.7716,1.7919,1.8,1.8,1.8,1.8,1.804,1.8282,1.8371,1.8402,1.8634,1.8834,1.9042,1.9042,1.9152,1.9301,1.9301,1.9301,1.9301,1.9301,1.9301,1.9301,1.9301,1.9301,1.9378,1.978,1.9816,1.9708,1.9483,1.9717,1.9914,1.9503,1.9788,2.0171,2.0147,2.0438,2.076,2.076,2.0674,2.0605,2.0605,2.0605,2.0605,2.0605,2.0664,2.0683,2.0479,2.0428,2.015,1.9362,1.9309,1.8921,1.7861,1.8578,1.8981,1.8748,1.8548,1.8475,1.8533,1.8215,1.7743,1.7091,1.7867,1.8233,1.8079,1.8079,1.8064,1.8035,1.8035,1.8211,1.8525,1.8375,1.8412,1.8564,1.843,1.8476,1.8579,1.8652,1.8837,1.9062,1.8928,1.8847,1.874,1.9029,1.8942,1.875,2.0292,2.0292,2.0292,2.0292,2.0292,2.0292,2.0201,1.9874,1.9546,1.9509,1.9096,1.8781,1.8781,1.8781,1.8781,1.8781,1.9234,1.9463,1.9463,1.905,1.8781,1.8781,1.8541,1.8192,1.7822,1.7397,1.704,1.6689,1.7106,1.727,1.731,1.7635,1.7789,1.7789,1.7789,1.7789,1.7797,1.7878,1.7919,1.7919,1.8,1.8241,1.8612,1.866,1.8922,1.9231,1.9262,1.9301,1.9301,1.9301,1.9347,1.9393,1.9393,1.9439,1.9558,1.9875,1.9859,1.9734,1.9669,1.9808,2.0003,2.0133,2.0406,2.0587,2.0552,2.0754,2.0943,2.0943,2.0836,2.0703,2.0644,2.0664,2.0684,2.0713,2.0818,2.0745,2.0495,2.0516,2.0133,1.8874,1.8431,1.7876,1.7041,1.7623,1.7995,1.7814,1.8298,1.851,1.8285,1.8308,1.8028,1.7421,1.8035,1.8218,1.7889,1.7889,1.8079,1.8445,1.8445,1.8621,1.8935,1.8935,1.906,1.9279,1.9078,1.9072,1.927,1.9088,1.9132,1.9263,1.9105,1.885,1.8665,1.8841,1.8751,1.8601,2.0292,2.0292,2.0292,2.0292,2.0292,2.0155,1.9783,1.9646,1.9463,1.8966,1.8874,1.8781,1.8781,1.8781,1.8781,1.8781,1.8874,1.892,1.892,1.8827,1.8781,1.8781,1.8726,1.8438,1.783,1.7143,1.6753,1.6689,1.6779,1.6812,1.6812,1.6853,1.6894,1.6894,1.6894,1.6894,1.6943,1.731,1.7473,1.7514,1.7878,1.804,1.8161,1.8531,1.8732,1.8851,1.9192,1.9301,1.9301,1.9301,1.954,1.9793,1.9793,2.0021,2.0347,2.0411,2.0383,2.0306,1.9966,1.9415,1.9102,1.9791,1.9876,1.9857,2.0177,2.0737,2.1167,2.1167,2.1266,2.1277,2.093,2.0973,2.117,2.1325,2.0953,2.075,2.1009,2.0806,2.0021,1.8498,1.9342,1.9229,1.7117,1.8351,1.8993,1.8253,1.8385,1.8564,1.8694,1.8471,1.813,1.775,1.8372,1.8555,1.8233,1.8225,1.8525,1.9125,1.9125,1.9294,1.9669,1.9669,1.9536,1.9279,1.9279,1.9256,1.9344,1.9567,1.9526,1.9311,1.9556,1.9466,1.9146,1.8949,1.9017,1.9129,1.9821,1.9821,1.9756,1.955,1.9471,1.9425,1.9188,1.8812,1.8481,1.8257,1.7839,1.7753,1.8164,1.821,1.8357,1.8781,1.8781,1.8781,1.8781,1.8781,1.8781,1.8781,1.8781,1.8589,1.8065,1.7382,1.7032,1.7032,1.6833,1.6689,1.6689,1.6689,1.6689,1.6689,1.6689,1.6689,1.6689,1.6943,1.7025,1.7025,1.7221,1.7587,1.8,1.8008,1.8442,1.9002,1.9002,1.9257,1.96,1.96,1.9875,2.0204,2.0204,2.0332,2.0558,2.0778,2.0686,2.0521,2.0558,2.0292,2.009,2.0466,2.0637,2.0739,2.0693,2.101,2.1287,2.1287,2.1329,2.132,2.1252,2.0727,2.0454,2.0866,1.9957,1.9317,1.962,1.9278,1.8693,1.7743,1.8473,1.8627,1.7352,1.8406,1.8941,1.8341,1.8525,1.8708,1.8818,1.8482,1.8313,1.8343,1.846,1.854,1.8562,1.8738,1.9155,1.9791,1.944,1.95,1.9808,1.9632,1.947,1.9279,1.9279,1.9279,1.9301,1.9495,1.942,1.9324,1.9498,1.9361,1.9078,1.9099,1.9092,1.9092,1.9005,1.8863,1.8636,1.8365,1.8265,1.8265,1.8265,1.7792,1.7458,1.7458,1.6951,1.6817,1.7365,1.7665,1.8045,1.8613,1.8807,1.8955,1.8955,1.8829,1.8781,1.8781,1.8748,1.8573,1.8303,1.7707,1.744,1.744,1.704,1.6816,1.6857,1.6737,1.6689,1.6689,1.6689,1.6737,1.6816,1.6816,1.6864,1.6976,1.6976,1.735,1.7928,1.7722,1.8247,1.9093,1.8998,1.9366,1.9866,1.9866,2.012,2.0446,2.0361,2.0445,2.0652,2.1082,2.1158,2.1046,2.1099,2.1181,2.1273,2.1365,2.1586,2.1769,2.1585,2.1636,2.1734,2.1734,2.1627,2.149,2.1334,2.0457,1.9841,2.0056,1.8948,1.815,1.8474,1.8218,1.7768,1.7301,1.7836,1.8093,1.7661,1.8405,1.8833,1.8657,1.8803,1.8964,1.9118,1.8745,1.8642,1.8891,1.8657,1.865,1.8899,1.9228,1.9674,2.0176,1.9659,1.9573,1.9808,1.9558,1.9345,1.9279,1.9279,1.9279,1.9331,1.936,1.943,1.9417,1.95,1.934,1.9147,1.9256,1.92,1.9055,1.7776,1.7268,1.6798,1.6777,1.677,1.677,1.677,1.6723,1.6676,1.6676,1.6629,1.6629,1.6683,1.7589,1.8195,1.8243,1.8933,1.9383,1.9383,1.9018,1.8781,1.8781,1.8518,1.8327,1.8295,1.793,1.7775,1.7775,1.7405,1.7239,1.7231,1.6848,1.6689,1.6689,1.6689,1.6921,1.7239,1.7239,1.7456,1.7735,1.7735,1.7778,1.7865,1.821,1.8374,1.8589,1.9425,1.9749,1.9818,1.9818,2.0066,2.0342,1.9912,2.0217,2.0876,2.1419,2.2122,2.2483,2.141,2.1392,2.1733,2.2099,2.2217,2.2327,2.2693,2.2776,2.2776,2.2776,2.2668,2.2216,2.0881,2.0439,2.0018,1.9311,1.8616,1.8394,1.9042,1.8953,1.8512,1.7658,1.8644,1.8996,1.8085,1.8736,1.936,1.9683,1.9396,1.9499,2.0044,1.9542,1.9213,1.9242,1.9213,1.9213,1.9242,1.9617,1.9901,2.0176,1.9886,1.9793,1.9815,1.9793,1.961,1.9279,1.9279,1.9279,1.9301,1.9654,1.974,1.9798,2.0059,1.9971,1.9682,1.9486,1.9408,1.9398,1.6749,1.6557,1.6255,1.6022,1.599,1.599,1.599,1.5505,1.5208,1.5554,1.5221,1.5221,1.6037,1.664,1.7162,1.766,1.7954,1.8077,1.7927,1.7794,1.801,1.8789,1.87,1.8629,1.8629,1.8279,1.7882,1.7437,1.6937,1.6776,1.6932,1.6595,1.6796,1.7382,1.7382,1.7453,1.7623,1.7623,1.7695,1.7814,1.7814,1.7945,1.8154,1.8067,1.8067,1.8146,1.8715,1.8944,1.9094,1.9565,2.0146,2.0611,2.0429,2.0733,2.1238,2.1758,2.2147,2.24,2.2235,2.2327,2.2483,2.2629,2.2666,2.2712,2.2876,2.2904,2.2904,2.2904,2.2878,2.2518,2.1462,2.055,1.9706,1.9075,1.7822,1.7177,1.7797,1.7527,1.7375,1.7604,1.8353,1.8779,1.8579,1.9353,1.9842,1.9823,1.9828,1.9981,2.0168,2.0003,1.9689,1.9286,1.9667,1.9777,1.9632,1.9757,1.9923,2.0176,1.9916,1.9864,2.0055,2.0055,1.9989,1.9857,1.9659,1.9632,1.9601,1.9923,1.9938,1.9835,2.0323,2.0323,2.0038,1.995,1.9904,1.9992,1.5632,1.5484,1.5224,1.4937,1.4901,1.4901,1.4901,1.4362,1.4058,1.4468,1.4219,1.4319,1.5202,1.5946,1.6619,1.718,1.7438,1.7498,1.7288,1.71,1.7335,1.8094,1.8125,1.8218,1.845,1.8216,1.7963,1.7698,1.7178,1.7011,1.7188,1.6896,1.7161,1.7814,1.7814,1.7878,1.7938,1.7938,1.8001,1.8097,1.8097,1.8141,1.8133,1.7867,1.7644,1.7548,1.7895,1.8295,1.8688,1.9257,2.0,2.0707,2.0557,2.0704,2.0955,2.1103,2.1381,2.1722,2.2434,2.2685,2.2811,2.3028,2.3187,2.3327,2.3327,2.3327,2.3327,2.3327,2.2931,2.2306,2.1462,2.0143,1.903,1.8324,1.719,1.6564,1.716,1.6965,1.7009,1.7928,1.8492,1.8883,1.9155,1.9819,2.0186,2.0077,2.0172,2.0183,2.0183,2.0142,1.993,1.9586,1.9806,1.9879,1.9815,1.9864,2.0018,2.0176,2.0018,2.0025,2.0183,2.0183,2.0183,2.0168,2.0011,1.9967,2.0084,2.0296,2.0384,2.0435,2.0858,2.088,2.0637,2.0625,2.048,2.0409,1.4451,1.3913,1.3372,1.3372,1.3372,1.3372,1.3372,1.3372,1.3372,1.3372,1.3873,1.4174,1.4168,1.5735,1.6781,1.6781,1.7442,1.7858,1.7851,1.733,1.6855,1.6602,1.6588,1.6951,1.7692,1.7692,1.8071,1.8781,1.847,1.8303,1.8295,1.7938,1.7814,1.7822,1.7822,1.7969,1.8303,1.8303,1.851,1.8781,1.8781,1.835,1.7692,1.7692,1.7232,1.6683,1.7124,1.7988,1.8909,1.8909,1.967,2.0507,2.0071,1.9951,1.988,1.9339,1.9782,2.0641,2.1777,2.2308,2.2641,2.3356,2.3859,2.4202,2.4202,2.4202,2.4202,2.4211,2.2969,2.16,2.061,1.9201,1.7903,1.6864,1.6714,1.6921,1.7508,1.7589,1.7916,1.8789,1.9195,1.9518,1.9778,2.0066,2.0321,2.0698,2.0373,2.019,2.019,1.9945,1.9916,2.0176,1.9623,1.9492,1.9815,2.0077,2.0176,2.0176,2.0183,2.0183,2.0183,2.019,2.019,2.019,2.0183,2.0373,2.0728,2.0728,2.1115,2.1693,2.1701,2.1714,2.1675,2.1314,2.1013,2.0779,1.2986,1.2836,1.268,1.268,1.268,1.268,1.268,1.2558,1.2408,1.2183,1.2336,1.2598,1.2965,1.3636,1.4313,1.491,1.517,1.5358,1.5557,1.5257,1.5176,1.5513,1.6238,1.6723,1.6904,1.7458,1.7552,1.7239,1.7507,1.769,1.7865,1.7575,1.7815,1.851,1.851,1.8573,1.8669,1.8669,1.8732,1.8735,1.8257,1.7878,1.7667,1.7337,1.6697,1.6146,1.7037,1.7618,1.7998,1.8529,1.9491,2.0381,1.9914,1.9338,1.8911,1.9154,1.948,1.9981,2.0692,2.1684,2.2752,2.375,2.411,2.4202,2.4202,2.4202,2.4284,2.4537,2.3565,2.2384,2.1341,2.0264,1.9055,1.759,1.7682,1.7949,1.7909,1.809,1.8502,1.9167,1.9487,1.9814,2.0033,2.0591,2.0867,2.0728,2.0845,2.0918,2.0918,2.083,2.072,2.0581,2.0391,2.023,2.0098,1.9967,1.9908,1.9908,2.0362,2.0574,2.0589,2.0815,2.0918,2.0903,2.0676,2.0764,2.1086,2.1313,2.1525,2.1737,2.2176,2.2222,2.1997,2.1875,2.1649,2.1403,1.2387,1.2387,1.2387,1.2387,1.2387,1.2387,1.2387,1.2008,1.1608,1.1438,1.1326,1.146,1.1806,1.2448,1.3108,1.3694,1.4001,1.4271,1.4395,1.4359,1.4487,1.4745,1.5579,1.6071,1.6279,1.6695,1.6829,1.6588,1.6904,1.7089,1.7271,1.7082,1.7328,1.7939,1.7939,1.8079,1.835,1.835,1.8435,1.8473,1.8042,1.7582,1.7083,1.6793,1.618,1.5612,1.6234,1.6824,1.7278,1.7717,1.8716,1.9649,1.9067,1.8499,1.8075,1.8054,1.8222,1.8641,1.9413,2.04,2.1548,2.3129,2.3845,2.4248,2.4413,2.445,2.4569,2.4931,2.373,2.2399,2.1759,2.0433,1.9159,1.8104,1.825,1.847,1.8348,1.8655,1.9089,1.9703,1.9984,2.0259,2.0584,2.0976,2.113,2.0933,2.0976,2.102,2.102,2.0896,2.0735,2.0537,2.0475,2.038,2.0183,2.0172,2.0142,2.015,2.0669,2.0911,2.0918,2.1123,2.1211,2.1203,2.1137,2.1298,2.162,2.1935,2.214,2.2293,2.2667,2.269,2.2505,2.2326,2.2199,2.2048,1.2438,1.2438,1.2438,1.2438,1.2438,1.2438,1.2329,1.1671,1.1067,1.0898,1.0669,1.056,1.061,1.1755,1.26,1.2831,1.359,1.4067,1.4029,1.4305,1.4434,1.4299,1.4816,1.5293,1.5744,1.5784,1.6022,1.6529,1.6602,1.6588,1.6588,1.6588,1.6588,1.6588,1.6588,1.6972,1.7643,1.7643,1.7789,1.8012,1.7956,1.7239,1.6179,1.6155,1.5727,1.5149,1.5167,1.5889,1.6865,1.6917,1.7706,1.8555,1.7813,1.7562,1.7364,1.6594,1.6524,1.6959,1.8005,1.8741,1.9673,2.174,2.3184,2.4245,2.4702,2.4812,2.495,2.5396,2.3576,2.1957,2.1957,2.011,1.8551,1.8497,1.8537,1.8657,1.8891,1.9172,1.9621,2.0242,2.0493,2.0788,2.1153,2.1211,2.1211,2.1211,2.0933,2.0764,2.0764,2.0486,2.0263,2.0263,2.0263,2.0263,2.0263,2.0618,2.075,2.0728,2.1057,2.1211,2.1211,2.1211,2.1211,2.1225,2.1554,2.1884,2.2206,2.2506,2.2813,2.3106,2.3106,2.3106,2.3043,2.2738,2.2613,2.2606,1.2876,1.2932,1.2932,1.2932,1.2932,1.2701,1.1903,1.1614,1.0984,0.9498,0.9266,0.9219,0.9252,0.9512,1.0194,1.1565,1.2385,1.3049,1.3663,1.3632,1.3971,1.4769,1.4929,1.5176,1.5581,1.57,1.5878,1.5959,1.6408,1.6588,1.6588,1.6588,1.6588,1.6588,1.6588,1.6809,1.7172,1.7172,1.7308,1.7492,1.6891,1.6427,1.6155,1.578,1.5564,1.5439,1.5644,1.6327,1.7213,1.7848,1.7988,1.7813,1.7651,1.7266,1.6833,1.6665,1.6784,1.706,1.733,1.8257,1.9394,2.0082,2.1793,2.3609,2.4566,2.5023,2.5405,2.58,2.396,2.2323,2.2385,2.0625,1.9025,1.8564,1.8878,1.9118,1.8945,1.9182,1.9632,2.0206,2.0328,2.0622,2.1153,2.1211,2.1211,2.1211,2.1145,2.1101,2.1101,2.1035,2.0998,2.0998,2.0998,2.0998,2.0998,2.1072,2.0976,2.0728,2.1057,2.1211,2.1211,2.1211,2.1211,2.1225,2.1554,2.1884,2.2206,2.2506,2.2813,2.3106,2.3106,2.3106,2.3106,2.3043,2.2863,2.2606,1.2779,1.2836,1.2893,1.3069,1.3122,1.2779,1.1738,1.1277,1.0466,0.9016,0.8439,0.8175,0.824,0.8595,0.9357,1.0793,1.1129,1.1663,1.2594,1.2657,1.3246,1.4546,1.4874,1.5245,1.5692,1.5692,1.5614,1.5482,1.5731,1.5856,1.5856,1.5856,1.5856,1.5856,1.5856,1.6179,1.6608,1.6608,1.6783,1.6958,1.6546,1.6273,1.6045,1.5783,1.5686,1.5704,1.5843,1.6285,1.6839,1.7417,1.7492,1.734,1.734,1.7166,1.6887,1.6887,1.7016,1.7074,1.7074,1.7736,1.8561,1.9215,2.1053,2.2926,2.4202,2.5124,2.5819,2.6223,2.436,2.2696,2.2752,2.0894,1.9323,1.8958,1.9165,1.9359,1.9345,1.9468,1.9809,2.0441,2.0461,2.0725,2.1408,2.1423,2.1489,2.1672,2.1358,2.1336,2.1664,2.1379,2.1284,2.1437,2.1291,2.1211,2.1211,2.1364,2.1357,2.1189,2.1357,2.1525,2.1672,2.1672,2.1672,2.1693,2.2001,2.2235,2.2418,2.2725,2.2952,2.3106,2.3106,2.3106,2.3106,2.3106,2.2981,2.2856,1.2178,1.2178,1.2294,1.2765,1.2765,1.2361,1.1367,1.0616,0.9799,0.8799,0.8043,0.7616,0.772,0.8381,0.9228,1.0206,1.0163,1.0501,1.1599,1.1845,1.2636,1.4234,1.4728,1.5329,1.603,1.5771,1.5481,1.5179,1.5131,1.5107,1.5107,1.5107,1.5107,1.5107,1.5107,1.5474,1.6055,1.6055,1.6228,1.6497,1.6497,1.6271,1.5891,1.5891,1.5891,1.5897,1.594,1.6127,1.6386,1.6622,1.6875,1.7092,1.7092,1.7123,1.7159,1.7159,1.7167,1.7153,1.7153,1.7328,1.7722,1.8715,2.0386,2.2127,2.3338,2.4895,2.616,2.6291,2.4556,2.2926,2.2757,2.0895,1.9424,1.9424,1.947,1.9526,1.9766,1.9802,2.004,2.0657,2.0725,2.1026,2.1586,2.1608,2.1735,2.1997,2.1572,2.1536,2.2102,2.1664,2.1503,2.1774,2.1518,2.1379,2.1379,2.1642,2.1803,2.1854,2.1854,2.1972,2.2184,2.2184,2.2184,2.2198,2.2491,2.2623,2.2645,2.2974,2.3106,2.3106,2.3106,2.3106,2.3106,2.3106,2.3106,2.3106,1.0763,1.0587,1.0587,1.1743,1.1503,1.0782,0.9761,0.9519,0.9096,0.8124,0.7942,0.7831,0.7845,0.8516,0.9086,0.9415,0.9925,1.0678,1.1783,1.1718,1.2625,1.4727,1.4839,1.5462,1.6592,1.632,1.5934,1.5445,1.5215,1.5107,1.5107,1.5107,1.5107,1.5107,1.5107,1.5285,1.5594,1.5594,1.5753,1.599,1.599,1.5962,1.5891,1.5891,1.5891,1.5922,1.6145,1.6404,1.6652,1.6688,1.6875,1.7092,1.7092,1.7249,1.743,1.743,1.7465,1.7434,1.7434,1.7493,1.7609,1.8023,1.9296,2.0559,2.1072,2.3956,2.6236,2.5276,2.3935,2.2692,2.1631,2.0328,1.9424,1.9424,1.9579,1.976,1.9793,1.9747,1.9966,2.0644,2.0979,2.1145,2.1247,2.1247,2.1314,2.1314,2.1512,2.1685,2.1728,2.1969,2.2074,2.2118,2.2074,2.2052,2.2052,2.2096,2.225,2.2498,2.2498,2.2389,2.2184,2.2184,2.2184,2.2198,2.2491,2.2623,2.2645,2.2974,2.3106,2.3106,2.3106,2.3106,2.3106,2.3106,2.3106,2.3106,0.929,0.9184,0.9316,1.0475,1.049,1.0094,0.9409,0.9339,0.9054,0.8064,0.7872,0.7872,0.7872,0.8184,0.8418,0.8538,0.8671,0.9229,1.0232,1.0678,1.1848,1.3957,1.4592,1.5451,1.6644,1.6579,1.6404,1.6169,1.5747,1.5547,1.5547,1.5547,1.5547,1.5547,1.5547,1.5608,1.5716,1.5716,1.5783,1.5891,1.5891,1.5976,1.6109,1.6109,1.6205,1.6374,1.664,1.6815,1.6942,1.7086,1.7213,1.731,1.731,1.7388,1.7485,1.7485,1.7485,1.7485,1.7485,1.7485,1.758,1.785,1.9214,2.0529,2.0645,2.2894,2.4815,2.4161,2.3189,2.2278,2.1759,2.0663,1.9853,1.9853,1.996,2.01,2.0267,1.9957,1.9874,2.0338,2.0992,2.1396,2.1396,2.1396,2.152,2.1705,2.1666,2.1829,2.2183,2.2185,2.2257,2.2425,2.2264,2.2184,2.2184,2.2345,2.2491,2.2623,2.2806,2.2828,2.2696,2.2696,2.2696,2.2703,2.2835,2.2893,2.2908,2.3047,2.3106,2.3106,2.3106,2.3106,2.3106,2.3106,2.3106,2.3106]}]]